<?xml version="1.0" encoding="UTF-8" standalone="no" ?>
<gpx xmlns="http://www.topografix.com/GPX/1/1" xmlns:xsi="http://www.w3.org/2001/XMLSchema-instance" xsi:schemaLocation="http://www.topografix.com/GPX/1/1 http://www.topografix.com/GPX/1/1/gpx.xsd" version="1.1" creator="VisuGPX - https://www.visugpx.com">
  <metadata>
    <name>Montbrand - Col de la Haute Beaume</name>
    <desc><![CDATA[Montbrand - Col de la Haute Beaume par la crête de Luzet. Passage à pieds car gros dénivelé au niveau du col des Imbards. Au niveau du col de Domenge, ne pas suivre les crêtes, faire ce passage à pieds en passant le long de la courbe de niveau, c'est pas super mais ça passe
Au niveau du col de Gaud il y a 2 pistes pour redescendre, prendre celle qui est tracé, sur l'autre il y a souvent les moutons et les filets au milieu
Quand tu arrives au col de la haute Beaume, tu peux aussi passer par Aureille et serre Pinet.

]]></desc>
  </metadata>
  <trk>
    <name><![CDATA[montbrand gps jour 2]]></name>
    <trkseg>
      <trkpt lat="44.59078" lon="5.68214">
        <ele>993.94</ele>
        <time>2019-10-27T07:31:20Z</time>
      </trkpt>
      <trkpt lat="44.59074" lon="5.68214">
        <ele>994.79</ele>
        <time>2019-10-27T07:31:36Z</time>
      </trkpt>
      <trkpt lat="44.59061" lon="5.6822">
        <ele>996.71</ele>
        <time>2019-10-27T07:31:55Z</time>
      </trkpt>
      <trkpt lat="44.59048" lon="5.68239">
        <ele>999.07</ele>
        <time>2019-10-27T07:32:11Z</time>
      </trkpt>
      <trkpt lat="44.59036" lon="5.68257">
        <ele>1003.48</ele>
        <time>2019-10-27T07:32:26Z</time>
      </trkpt>
      <trkpt lat="44.5902" lon="5.68267">
        <ele>1008.35</ele>
        <time>2019-10-27T07:32:42Z</time>
      </trkpt>
      <trkpt lat="44.59005" lon="5.68265">
        <ele>1010.39</ele>
        <time>2019-10-27T07:32:56Z</time>
      </trkpt>
      <trkpt lat="44.58993" lon="5.68246">
        <ele>1010.14</ele>
        <time>2019-10-27T07:33:12Z</time>
      </trkpt>
      <trkpt lat="44.58985" lon="5.68235">
        <ele>1010.49</ele>
        <time>2019-10-27T07:33:24Z</time>
      </trkpt>
      <trkpt lat="44.58974" lon="5.68229">
        <ele>1010.61</ele>
        <time>2019-10-27T07:33:33Z</time>
      </trkpt>
      <trkpt lat="44.58954" lon="5.68233">
        <ele>1009.72</ele>
        <time>2019-10-27T07:33:48Z</time>
      </trkpt>
      <trkpt lat="44.58939" lon="5.68249">
        <ele>1009.83</ele>
        <time>2019-10-27T07:34:03Z</time>
      </trkpt>
      <trkpt lat="44.58926" lon="5.6825">
        <ele>1007.44</ele>
        <time>2019-10-27T07:34:16Z</time>
      </trkpt>
      <trkpt lat="44.58917" lon="5.68249">
        <ele>1005.46</ele>
        <time>2019-10-27T07:34:25Z</time>
      </trkpt>
      <trkpt lat="44.58908" lon="5.68246">
        <ele>1001.35</ele>
        <time>2019-10-27T07:34:42Z</time>
      </trkpt>
      <trkpt lat="44.58899" lon="5.68236">
        <ele>996.92</ele>
        <time>2019-10-27T07:35:03Z</time>
      </trkpt>
      <trkpt lat="44.58893" lon="5.68224">
        <ele>993.51</ele>
        <time>2019-10-27T07:35:25Z</time>
      </trkpt>
      <trkpt lat="44.58886" lon="5.68195">
        <ele>992.36</ele>
        <time>2019-10-27T07:35:46Z</time>
      </trkpt>
      <trkpt lat="44.58884" lon="5.68166">
        <ele>992.57</ele>
        <time>2019-10-27T07:36:08Z</time>
      </trkpt>
      <trkpt lat="44.58884" lon="5.68159">
        <ele>992.64</ele>
        <time>2019-10-27T07:36:13Z</time>
      </trkpt>
      <trkpt lat="44.58878" lon="5.6813">
        <ele>990.96</ele>
        <time>2019-10-27T07:36:35Z</time>
      </trkpt>
      <trkpt lat="44.5887" lon="5.68086">
        <ele>990.24</ele>
        <time>2019-10-27T07:36:57Z</time>
      </trkpt>
      <trkpt lat="44.58871" lon="5.68068">
        <ele>986.23</ele>
        <time>2019-10-27T07:37:13Z</time>
      </trkpt>
      <trkpt lat="44.58872" lon="5.68065">
        <ele>984.14</ele>
        <time>2019-10-27T07:37:18Z</time>
      </trkpt>
      <trkpt lat="44.58878" lon="5.68058">
        <ele>980.73</ele>
        <time>2019-10-27T07:37:25Z</time>
      </trkpt>
      <trkpt lat="44.58893" lon="5.68041">
        <ele>976.36</ele>
        <time>2019-10-27T07:37:40Z</time>
      </trkpt>
      <trkpt lat="44.58911" lon="5.68021">
        <ele>973.35</ele>
        <time>2019-10-27T07:37:57Z</time>
      </trkpt>
      <trkpt lat="44.58922" lon="5.68011">
        <ele>972.61</ele>
        <time>2019-10-27T07:38:11Z</time>
      </trkpt>
      <trkpt lat="44.58929" lon="5.68006">
        <ele>972.47</ele>
        <time>2019-10-27T07:38:20Z</time>
      </trkpt>
      <trkpt lat="44.58939" lon="5.68009">
        <ele>970.97</ele>
        <time>2019-10-27T07:38:36Z</time>
      </trkpt>
      <trkpt lat="44.58944" lon="5.68001">
        <ele>967.54</ele>
        <time>2019-10-27T07:39:03Z</time>
      </trkpt>
      <trkpt lat="44.58943" lon="5.67994">
        <ele>964.56</ele>
        <time>2019-10-27T07:39:28Z</time>
      </trkpt>
      <trkpt lat="44.58949" lon="5.6798">
        <ele>963.64</ele>
        <time>2019-10-27T07:39:48Z</time>
      </trkpt>
      <trkpt lat="44.58966" lon="5.67961">
        <ele>967.97</ele>
        <time>2019-10-27T07:40:11Z</time>
      </trkpt>
      <trkpt lat="44.58973" lon="5.6796">
        <ele>970.69</ele>
        <time>2019-10-27T07:40:22Z</time>
      </trkpt>
      <trkpt lat="44.58995" lon="5.67954">
        <ele>974.71</ele>
        <time>2019-10-27T07:40:42Z</time>
      </trkpt>
      <trkpt lat="44.59014" lon="5.67944">
        <ele>978.37</ele>
        <time>2019-10-27T07:41:03Z</time>
      </trkpt>
      <trkpt lat="44.59033" lon="5.67931">
        <ele>983.29</ele>
        <time>2019-10-27T07:41:23Z</time>
      </trkpt>
      <trkpt lat="44.5905" lon="5.67906">
        <ele>992.22</ele>
        <time>2019-10-27T07:41:45Z</time>
      </trkpt>
      <trkpt lat="44.59071" lon="5.67886">
        <ele>999.34</ele>
        <time>2019-10-27T07:42:08Z</time>
      </trkpt>
      <trkpt lat="44.59098" lon="5.67863">
        <ele>1006.5</ele>
        <time>2019-10-27T07:42:29Z</time>
      </trkpt>
      <trkpt lat="44.59111" lon="5.67826">
        <ele>1003.31</ele>
        <time>2019-10-27T07:42:46Z</time>
      </trkpt>
      <trkpt lat="44.59119" lon="5.67781">
        <ele>1000.59</ele>
        <time>2019-10-27T07:43:05Z</time>
      </trkpt>
      <trkpt lat="44.59115" lon="5.67765">
        <ele>999.69</ele>
        <time>2019-10-27T07:43:28Z</time>
      </trkpt>
      <trkpt lat="44.59121" lon="5.67748">
        <ele>1002.27</ele>
        <time>2019-10-27T07:43:48Z</time>
      </trkpt>
      <trkpt lat="44.59134" lon="5.67735">
        <ele>1006.24</ele>
        <time>2019-10-27T07:44:07Z</time>
      </trkpt>
      <trkpt lat="44.59152" lon="5.67709">
        <ele>1008.36</ele>
        <time>2019-10-27T07:44:27Z</time>
      </trkpt>
      <trkpt lat="44.59165" lon="5.67674">
        <ele>1007.07</ele>
        <time>2019-10-27T07:44:43Z</time>
      </trkpt>
      <trkpt lat="44.59167" lon="5.67666">
        <ele>1005.86</ele>
        <time>2019-10-27T07:44:47Z</time>
      </trkpt>
      <trkpt lat="44.59178" lon="5.67634">
        <ele>1000.78</ele>
        <time>2019-10-27T07:45:12Z</time>
      </trkpt>
      <trkpt lat="44.59184" lon="5.67621">
        <ele>996.9</ele>
        <time>2019-10-27T07:45:23Z</time>
      </trkpt>
      <trkpt lat="44.59193" lon="5.67611">
        <ele>995.78</ele>
        <time>2019-10-27T07:45:33Z</time>
      </trkpt>
      <trkpt lat="44.59198" lon="5.67588">
        <ele>991.93</ele>
        <time>2019-10-27T07:45:53Z</time>
      </trkpt>
      <trkpt lat="44.59198" lon="5.67587">
        <ele>992.12</ele>
        <time>2019-10-27T07:45:54Z</time>
      </trkpt>
      <trkpt lat="44.59206" lon="5.67578">
        <ele>989.71</ele>
        <time>2019-10-27T07:46:09Z</time>
      </trkpt>
      <trkpt lat="44.59216" lon="5.67568">
        <ele>989.93</ele>
        <time>2019-10-27T07:46:20Z</time>
      </trkpt>
      <trkpt lat="44.59218" lon="5.67552">
        <ele>990.48</ele>
        <time>2019-10-27T07:46:32Z</time>
      </trkpt>
      <trkpt lat="44.59213" lon="5.67536">
        <ele>993.58</ele>
        <time>2019-10-27T07:46:49Z</time>
      </trkpt>
      <trkpt lat="44.59204" lon="5.67516">
        <ele>995.04</ele>
        <time>2019-10-27T07:47:10Z</time>
      </trkpt>
      <trkpt lat="44.592" lon="5.67499">
        <ele>995.68</ele>
        <time>2019-10-27T07:47:32Z</time>
      </trkpt>
      <trkpt lat="44.59199" lon="5.67482">
        <ele>995.99</ele>
        <time>2019-10-27T07:47:50Z</time>
      </trkpt>
      <trkpt lat="44.59203" lon="5.67458">
        <ele>995.35</ele>
        <time>2019-10-27T07:48:12Z</time>
      </trkpt>
      <trkpt lat="44.59202" lon="5.67428">
        <ele>995.41</ele>
        <time>2019-10-27T07:48:32Z</time>
      </trkpt>
      <trkpt lat="44.592" lon="5.674">
        <ele>996.89</ele>
        <time>2019-10-27T07:48:47Z</time>
      </trkpt>
      <trkpt lat="44.59193" lon="5.67369">
        <ele>1001.35</ele>
        <time>2019-10-27T07:49:07Z</time>
      </trkpt>
      <trkpt lat="44.59189" lon="5.67346">
        <ele>1001.1</ele>
        <time>2019-10-27T07:49:26Z</time>
      </trkpt>
      <trkpt lat="44.59192" lon="5.67327">
        <ele>999.59</ele>
        <time>2019-10-27T07:49:39Z</time>
      </trkpt>
      <trkpt lat="44.59189" lon="5.67294">
        <ele>997.57</ele>
        <time>2019-10-27T07:49:56Z</time>
      </trkpt>
      <trkpt lat="44.59184" lon="5.67259">
        <ele>995.6</ele>
        <time>2019-10-27T07:50:14Z</time>
      </trkpt>
      <trkpt lat="44.59178" lon="5.67242">
        <ele>996.31</ele>
        <time>2019-10-27T07:50:27Z</time>
      </trkpt>
      <trkpt lat="44.59173" lon="5.67218">
        <ele>996.73</ele>
        <time>2019-10-27T07:50:42Z</time>
      </trkpt>
      <trkpt lat="44.59174" lon="5.67205">
        <ele>997.17</ele>
        <time>2019-10-27T07:50:49Z</time>
      </trkpt>
      <trkpt lat="44.59173" lon="5.67172">
        <ele>997.8</ele>
        <time>2019-10-27T07:51:05Z</time>
      </trkpt>
      <trkpt lat="44.5917" lon="5.67146">
        <ele>1000.56</ele>
        <time>2019-10-27T07:51:20Z</time>
      </trkpt>
      <trkpt lat="44.59162" lon="5.67132">
        <ele>1006.09</ele>
        <time>2019-10-27T07:51:32Z</time>
      </trkpt>
      <trkpt lat="44.59155" lon="5.67109">
        <ele>1014.34</ele>
        <time>2019-10-27T07:51:50Z</time>
      </trkpt>
      <trkpt lat="44.59143" lon="5.67087">
        <ele>1020.55</ele>
        <time>2019-10-27T07:52:10Z</time>
      </trkpt>
      <trkpt lat="44.59131" lon="5.6706">
        <ele>1023.88</ele>
        <time>2019-10-27T07:52:29Z</time>
      </trkpt>
      <trkpt lat="44.59118" lon="5.67029">
        <ele>1028.61</ele>
        <time>2019-10-27T07:52:51Z</time>
      </trkpt>
      <trkpt lat="44.59115" lon="5.67025">
        <ele>1029.3</ele>
        <time>2019-10-27T07:52:55Z</time>
      </trkpt>
      <trkpt lat="44.59105" lon="5.67005">
        <ele>1032.6</ele>
        <time>2019-10-27T07:53:14Z</time>
      </trkpt>
      <trkpt lat="44.59094" lon="5.66985">
        <ele>1035.61</ele>
        <time>2019-10-27T07:53:34Z</time>
      </trkpt>
      <trkpt lat="44.59085" lon="5.66955">
        <ele>1039.13</ele>
        <time>2019-10-27T07:53:56Z</time>
      </trkpt>
      <trkpt lat="44.59077" lon="5.66918">
        <ele>1038.26</ele>
        <time>2019-10-27T07:54:19Z</time>
      </trkpt>
      <trkpt lat="44.59067" lon="5.66886">
        <ele>1037.13</ele>
        <time>2019-10-27T07:54:39Z</time>
      </trkpt>
      <trkpt lat="44.59058" lon="5.66859">
        <ele>1037.3</ele>
        <time>2019-10-27T07:54:59Z</time>
      </trkpt>
      <trkpt lat="44.59051" lon="5.66833">
        <ele>1037.93</ele>
        <time>2019-10-27T07:55:18Z</time>
      </trkpt>
      <trkpt lat="44.5905" lon="5.66812">
        <ele>1038</ele>
        <time>2019-10-27T07:55:30Z</time>
      </trkpt>
      <trkpt lat="44.59045" lon="5.66777">
        <ele>1038.11</ele>
        <time>2019-10-27T07:55:52Z</time>
      </trkpt>
      <trkpt lat="44.59043" lon="5.66766">
        <ele>1038.43</ele>
        <time>2019-10-27T07:56:03Z</time>
      </trkpt>
      <trkpt lat="44.59044" lon="5.66751">
        <ele>1034.9</ele>
        <time>2019-10-27T07:56:19Z</time>
      </trkpt>
      <trkpt lat="44.59042" lon="5.66733">
        <ele>1032.75</ele>
        <time>2019-10-27T07:56:31Z</time>
      </trkpt>
      <trkpt lat="44.59042" lon="5.66711">
        <ele>1032.71</ele>
        <time>2019-10-27T07:56:43Z</time>
      </trkpt>
      <trkpt lat="44.59042" lon="5.66699">
        <ele>1032.5</ele>
        <time>2019-10-27T07:56:50Z</time>
      </trkpt>
      <trkpt lat="44.59042" lon="5.66695">
        <ele>1032.3</ele>
        <time>2019-10-27T07:56:52Z</time>
      </trkpt>
      <trkpt lat="44.59035" lon="5.66678">
        <ele>1032.92</ele>
        <time>2019-10-27T07:57:07Z</time>
      </trkpt>
      <trkpt lat="44.5903" lon="5.66654">
        <ele>1032.81</ele>
        <time>2019-10-27T07:57:22Z</time>
      </trkpt>
      <trkpt lat="44.59024" lon="5.66628">
        <ele>1029.57</ele>
        <time>2019-10-27T07:57:36Z</time>
      </trkpt>
      <trkpt lat="44.59028" lon="5.66614">
        <ele>1029.06</ele>
        <time>2019-10-27T07:57:52Z</time>
      </trkpt>
      <trkpt lat="44.59034" lon="5.66587">
        <ele>1027.41</ele>
        <time>2019-10-27T07:58:09Z</time>
      </trkpt>
      <trkpt lat="44.59038" lon="5.66566">
        <ele>1026.82</ele>
        <time>2019-10-27T07:58:21Z</time>
      </trkpt>
      <trkpt lat="44.59042" lon="5.66555">
        <ele>1027.33</ele>
        <time>2019-10-27T07:58:27Z</time>
      </trkpt>
      <trkpt lat="44.59052" lon="5.66529">
        <ele>1028.17</ele>
        <time>2019-10-27T07:58:42Z</time>
      </trkpt>
      <trkpt lat="44.59062" lon="5.66512">
        <ele>1028.88</ele>
        <time>2019-10-27T07:58:57Z</time>
      </trkpt>
      <trkpt lat="44.59079" lon="5.66496">
        <ele>1028.94</ele>
        <time>2019-10-27T07:59:17Z</time>
      </trkpt>
      <trkpt lat="44.59083" lon="5.66492">
        <ele>1029.01</ele>
        <time>2019-10-27T07:59:22Z</time>
      </trkpt>
      <trkpt lat="44.59095" lon="5.66489">
        <ele>1028.31</ele>
        <time>2019-10-27T07:59:39Z</time>
      </trkpt>
      <trkpt lat="44.59112" lon="5.66476">
        <ele>1027.88</ele>
        <time>2019-10-27T07:59:54Z</time>
      </trkpt>
      <trkpt lat="44.59131" lon="5.66452">
        <ele>1026.1</ele>
        <time>2019-10-27T08:00:10Z</time>
      </trkpt>
      <trkpt lat="44.5914" lon="5.66421">
        <ele>1023.5</ele>
        <time>2019-10-27T08:00:24Z</time>
      </trkpt>
      <trkpt lat="44.59139" lon="5.66413">
        <ele>1020.9</ele>
        <time>2019-10-27T08:00:46Z</time>
      </trkpt>
      <trkpt lat="44.59139" lon="5.66412">
        <ele>1020.97</ele>
        <time>2019-10-27T08:00:47Z</time>
      </trkpt>
      <trkpt lat="44.59129" lon="5.66392">
        <ele>1019.6</ele>
        <time>2019-10-27T08:01:04Z</time>
      </trkpt>
      <trkpt lat="44.59112" lon="5.66361">
        <ele>1019.83</ele>
        <time>2019-10-27T08:01:21Z</time>
      </trkpt>
      <trkpt lat="44.59102" lon="5.66352">
        <ele>1019.53</ele>
        <time>2019-10-27T08:01:30Z</time>
      </trkpt>
      <trkpt lat="44.59082" lon="5.66334">
        <ele>1018.75</ele>
        <time>2019-10-27T08:01:47Z</time>
      </trkpt>
      <trkpt lat="44.59064" lon="5.66318">
        <ele>1020.07</ele>
        <time>2019-10-27T08:02:05Z</time>
      </trkpt>
      <trkpt lat="44.59054" lon="5.66303">
        <ele>1021.79</ele>
        <time>2019-10-27T08:02:18Z</time>
      </trkpt>
      <trkpt lat="44.59044" lon="5.66287">
        <ele>1025.93</ele>
        <time>2019-10-27T08:02:33Z</time>
      </trkpt>
      <trkpt lat="44.59039" lon="5.66281">
        <ele>1026.89</ele>
        <time>2019-10-27T08:02:39Z</time>
      </trkpt>
      <trkpt lat="44.59011" lon="5.66263">
        <ele>1030.89</ele>
        <time>2019-10-27T08:02:58Z</time>
      </trkpt>
      <trkpt lat="44.59006" lon="5.6626">
        <ele>1031.28</ele>
        <time>2019-10-27T08:03:03Z</time>
      </trkpt>
      <trkpt lat="44.58985" lon="5.66226">
        <ele>1030.71</ele>
        <time>2019-10-27T08:03:17Z</time>
      </trkpt>
      <trkpt lat="44.58961" lon="5.66159">
        <ele>1032.67</ele>
        <time>2019-10-27T08:03:34Z</time>
      </trkpt>
      <trkpt lat="44.5892" lon="5.66113">
        <ele>1036.62</ele>
        <time>2019-10-27T08:03:51Z</time>
      </trkpt>
      <trkpt lat="44.58898" lon="5.66084">
        <ele>1043.19</ele>
        <time>2019-10-27T08:04:02Z</time>
      </trkpt>
      <trkpt lat="44.58872" lon="5.66038">
        <ele>1045.47</ele>
        <time>2019-10-27T08:04:15Z</time>
      </trkpt>
      <trkpt lat="44.58863" lon="5.66006">
        <ele>1045.82</ele>
        <time>2019-10-27T08:04:28Z</time>
      </trkpt>
      <trkpt lat="44.58862" lon="5.66002">
        <ele>1046.05</ele>
        <time>2019-10-27T08:04:31Z</time>
      </trkpt>
      <trkpt lat="44.58862" lon="5.66">
        <ele>1046.04</ele>
        <time>2019-10-27T08:04:32Z</time>
      </trkpt>
      <trkpt lat="44.58862" lon="5.66">
        <ele>1045.94</ele>
        <time>2019-10-27T08:04:33Z</time>
      </trkpt>
      <trkpt lat="44.58863" lon="5.66">
        <ele>1045.76</ele>
        <time>2019-10-27T08:04:34Z</time>
      </trkpt>
      <trkpt lat="44.58863" lon="5.66">
        <ele>1045.65</ele>
        <time>2019-10-27T08:04:35Z</time>
      </trkpt>
      <trkpt lat="44.58864" lon="5.66001">
        <ele>1045.68</ele>
        <time>2019-10-27T08:04:36Z</time>
      </trkpt>
      <trkpt lat="44.58865" lon="5.66001">
        <ele>1045.84</ele>
        <time>2019-10-27T08:04:37Z</time>
      </trkpt>
      <trkpt lat="44.58866" lon="5.66002">
        <ele>1046.19</ele>
        <time>2019-10-27T08:04:38Z</time>
      </trkpt>
      <trkpt lat="44.58866" lon="5.66003">
        <ele>1046.41</ele>
        <time>2019-10-27T08:04:39Z</time>
      </trkpt>
      <trkpt lat="44.58866" lon="5.66004">
        <ele>1046.63</ele>
        <time>2019-10-27T08:04:40Z</time>
      </trkpt>
      <trkpt lat="44.58866" lon="5.66005">
        <ele>1046.77</ele>
        <time>2019-10-27T08:04:41Z</time>
      </trkpt>
      <trkpt lat="44.58871" lon="5.66026">
        <ele>1051.9</ele>
        <time>2019-10-27T08:04:57Z</time>
      </trkpt>
      <trkpt lat="44.58892" lon="5.6604">
        <ele>1055.86</ele>
        <time>2019-10-27T08:05:14Z</time>
      </trkpt>
      <trkpt lat="44.58908" lon="5.66037">
        <ele>1053.44</ele>
        <time>2019-10-27T08:05:28Z</time>
      </trkpt>
      <trkpt lat="44.58931" lon="5.66034">
        <ele>1049.71</ele>
        <time>2019-10-27T08:05:47Z</time>
      </trkpt>
      <trkpt lat="44.58933" lon="5.66034">
        <ele>1050.73</ele>
        <time>2019-10-27T08:05:50Z</time>
      </trkpt>
      <trkpt lat="44.58945" lon="5.66041">
        <ele>1056.48</ele>
        <time>2019-10-27T08:06:05Z</time>
      </trkpt>
      <trkpt lat="44.58949" lon="5.66045">
        <ele>1058.86</ele>
        <time>2019-10-27T08:06:10Z</time>
      </trkpt>
      <trkpt lat="44.58962" lon="5.66059">
        <ele>1063.5</ele>
        <time>2019-10-27T08:06:25Z</time>
      </trkpt>
      <trkpt lat="44.58981" lon="5.66061">
        <ele>1062.64</ele>
        <time>2019-10-27T08:06:37Z</time>
      </trkpt>
      <trkpt lat="44.58982" lon="5.66059">
        <ele>1062.45</ele>
        <time>2019-10-27T08:06:38Z</time>
      </trkpt>
      <trkpt lat="44.58983" lon="5.66057">
        <ele>1062.13</ele>
        <time>2019-10-27T08:06:39Z</time>
      </trkpt>
      <trkpt lat="44.58983" lon="5.66054">
        <ele>1062.1</ele>
        <time>2019-10-27T08:06:40Z</time>
      </trkpt>
      <trkpt lat="44.58983" lon="5.66052">
        <ele>1062.04</ele>
        <time>2019-10-27T08:06:41Z</time>
      </trkpt>
      <trkpt lat="44.58974" lon="5.66029">
        <ele>1063.18</ele>
        <time>2019-10-27T08:06:57Z</time>
      </trkpt>
      <trkpt lat="44.58965" lon="5.66013">
        <ele>1065.04</ele>
        <time>2019-10-27T08:07:09Z</time>
      </trkpt>
      <trkpt lat="44.58964" lon="5.66012">
        <ele>1065.15</ele>
        <time>2019-10-27T08:07:10Z</time>
      </trkpt>
      <trkpt lat="44.58964" lon="5.6601">
        <ele>1065.3</ele>
        <time>2019-10-27T08:07:11Z</time>
      </trkpt>
      <trkpt lat="44.58963" lon="5.66008">
        <ele>1065.34</ele>
        <time>2019-10-27T08:07:12Z</time>
      </trkpt>
      <trkpt lat="44.58963" lon="5.66007">
        <ele>1065.34</ele>
        <time>2019-10-27T08:07:13Z</time>
      </trkpt>
      <trkpt lat="44.58962" lon="5.66006">
        <ele>1065.51</ele>
        <time>2019-10-27T08:07:14Z</time>
      </trkpt>
      <trkpt lat="44.58961" lon="5.66004">
        <ele>1065.54</ele>
        <time>2019-10-27T08:07:15Z</time>
      </trkpt>
      <trkpt lat="44.5896" lon="5.66002">
        <ele>1065.62</ele>
        <time>2019-10-27T08:07:16Z</time>
      </trkpt>
      <trkpt lat="44.58959" lon="5.65999">
        <ele>1066.05</ele>
        <time>2019-10-27T08:07:17Z</time>
      </trkpt>
      <trkpt lat="44.58958" lon="5.65997">
        <ele>1066.24</ele>
        <time>2019-10-27T08:07:18Z</time>
      </trkpt>
      <trkpt lat="44.58956" lon="5.65994">
        <ele>1066.65</ele>
        <time>2019-10-27T08:07:19Z</time>
      </trkpt>
      <trkpt lat="44.58932" lon="5.65965">
        <ele>1076.27</ele>
        <time>2019-10-27T08:07:31Z</time>
      </trkpt>
      <trkpt lat="44.58904" lon="5.65922">
        <ele>1084.7</ele>
        <time>2019-10-27T08:07:44Z</time>
      </trkpt>
      <trkpt lat="44.58877" lon="5.65875">
        <ele>1089.78</ele>
        <time>2019-10-27T08:07:57Z</time>
      </trkpt>
      <trkpt lat="44.5885" lon="5.65809">
        <ele>1091.87</ele>
        <time>2019-10-27T08:08:13Z</time>
      </trkpt>
      <trkpt lat="44.58838" lon="5.65769">
        <ele>1092.45</ele>
        <time>2019-10-27T08:08:25Z</time>
      </trkpt>
      <trkpt lat="44.58827" lon="5.65743">
        <ele>1094.91</ele>
        <time>2019-10-27T08:08:40Z</time>
      </trkpt>
      <trkpt lat="44.58827" lon="5.65742">
        <ele>1095.24</ele>
        <time>2019-10-27T08:08:41Z</time>
      </trkpt>
      <trkpt lat="44.5881" lon="5.65714">
        <ele>1095</ele>
        <time>2019-10-27T08:08:56Z</time>
      </trkpt>
      <trkpt lat="44.58808" lon="5.65708">
        <ele>1095.19</ele>
        <time>2019-10-27T08:09:00Z</time>
      </trkpt>
      <trkpt lat="44.58807" lon="5.65706">
        <ele>1095.42</ele>
        <time>2019-10-27T08:09:01Z</time>
      </trkpt>
      <trkpt lat="44.58804" lon="5.65695">
        <ele>1095.71</ele>
        <time>2019-10-27T08:09:08Z</time>
      </trkpt>
      <trkpt lat="44.58803" lon="5.65694">
        <ele>1095.73</ele>
        <time>2019-10-27T08:09:09Z</time>
      </trkpt>
      <trkpt lat="44.58786" lon="5.65669">
        <ele>1097.63</ele>
        <time>2019-10-27T08:09:29Z</time>
      </trkpt>
      <trkpt lat="44.58769" lon="5.65645">
        <ele>1098.19</ele>
        <time>2019-10-27T08:09:48Z</time>
      </trkpt>
      <trkpt lat="44.58752" lon="5.65627">
        <ele>1101.45</ele>
        <time>2019-10-27T08:10:07Z</time>
      </trkpt>
      <trkpt lat="44.58727" lon="5.65613">
        <ele>1098.17</ele>
        <time>2019-10-27T08:10:25Z</time>
      </trkpt>
      <trkpt lat="44.58704" lon="5.65601">
        <ele>1097.23</ele>
        <time>2019-10-27T08:10:43Z</time>
      </trkpt>
      <trkpt lat="44.58691" lon="5.65586">
        <ele>1098.21</ele>
        <time>2019-10-27T08:11:00Z</time>
      </trkpt>
      <trkpt lat="44.58675" lon="5.65567">
        <ele>1096.47</ele>
        <time>2019-10-27T08:11:18Z</time>
      </trkpt>
      <trkpt lat="44.58674" lon="5.65567">
        <ele>1096.13</ele>
        <time>2019-10-27T08:11:19Z</time>
      </trkpt>
      <trkpt lat="44.58664" lon="5.65578">
        <ele>1093.08</ele>
        <time>2019-10-27T08:11:33Z</time>
      </trkpt>
      <trkpt lat="44.5866" lon="5.65579">
        <ele>1093.03</ele>
        <time>2019-10-27T08:11:44Z</time>
      </trkpt>
      <trkpt lat="44.58658" lon="5.65584">
        <ele>1092.47</ele>
        <time>2019-10-27T08:12:06Z</time>
      </trkpt>
      <trkpt lat="44.58659" lon="5.65587">
        <ele>1092.83</ele>
        <time>2019-10-27T08:12:32Z</time>
      </trkpt>
      <trkpt lat="44.58659" lon="5.65589">
        <ele>1092.9</ele>
        <time>2019-10-27T08:12:35Z</time>
      </trkpt>
      <trkpt lat="44.58659" lon="5.6559">
        <ele>1092.85</ele>
        <time>2019-10-27T08:12:36Z</time>
      </trkpt>
      <trkpt lat="44.58666" lon="5.65618">
        <ele>1091.38</ele>
        <time>2019-10-27T08:12:53Z</time>
      </trkpt>
      <trkpt lat="44.58685" lon="5.6562">
        <ele>1092.34</ele>
        <time>2019-10-27T08:13:09Z</time>
      </trkpt>
      <trkpt lat="44.58703" lon="5.6562">
        <ele>1094.67</ele>
        <time>2019-10-27T08:13:23Z</time>
      </trkpt>
      <trkpt lat="44.58703" lon="5.65619">
        <ele>1094.68</ele>
        <time>2019-10-27T08:13:24Z</time>
      </trkpt>
      <trkpt lat="44.58703" lon="5.65618">
        <ele>1094.67</ele>
        <time>2019-10-27T08:13:25Z</time>
      </trkpt>
      <trkpt lat="44.58703" lon="5.65616">
        <ele>1094.79</ele>
        <time>2019-10-27T08:13:26Z</time>
      </trkpt>
      <trkpt lat="44.58703" lon="5.65615">
        <ele>1094.93</ele>
        <time>2019-10-27T08:13:27Z</time>
      </trkpt>
      <trkpt lat="44.58702" lon="5.65608">
        <ele>1095.69</ele>
        <time>2019-10-27T08:13:33Z</time>
      </trkpt>
      <trkpt lat="44.5871" lon="5.65592">
        <ele>1097.18</ele>
        <time>2019-10-27T08:13:47Z</time>
      </trkpt>
      <trkpt lat="44.58715" lon="5.65568">
        <ele>1100.8</ele>
        <time>2019-10-27T08:14:03Z</time>
      </trkpt>
      <trkpt lat="44.58719" lon="5.65546">
        <ele>1106.07</ele>
        <time>2019-10-27T08:14:18Z</time>
      </trkpt>
      <trkpt lat="44.58725" lon="5.65531">
        <ele>1109.4</ele>
        <time>2019-10-27T08:14:30Z</time>
      </trkpt>
      <trkpt lat="44.58728" lon="5.65525">
        <ele>1109.22</ele>
        <time>2019-10-27T08:14:35Z</time>
      </trkpt>
      <trkpt lat="44.58736" lon="5.6551">
        <ele>1111.89</ele>
        <time>2019-10-27T08:14:47Z</time>
      </trkpt>
      <trkpt lat="44.5875" lon="5.65495">
        <ele>1114.37</ele>
        <time>2019-10-27T08:15:05Z</time>
      </trkpt>
      <trkpt lat="44.58755" lon="5.65487">
        <ele>1113.24</ele>
        <time>2019-10-27T08:15:12Z</time>
      </trkpt>
      <trkpt lat="44.58775" lon="5.65475">
        <ele>1114.71</ele>
        <time>2019-10-27T08:15:30Z</time>
      </trkpt>
      <trkpt lat="44.58796" lon="5.65482">
        <ele>1118.44</ele>
        <time>2019-10-27T08:15:49Z</time>
      </trkpt>
      <trkpt lat="44.58815" lon="5.65497">
        <ele>1122.63</ele>
        <time>2019-10-27T08:16:08Z</time>
      </trkpt>
      <trkpt lat="44.58828" lon="5.6552">
        <ele>1126.37</ele>
        <time>2019-10-27T08:16:27Z</time>
      </trkpt>
      <trkpt lat="44.58842" lon="5.65541">
        <ele>1130.16</ele>
        <time>2019-10-27T08:16:47Z</time>
      </trkpt>
      <trkpt lat="44.58857" lon="5.65546">
        <ele>1132.26</ele>
        <time>2019-10-27T08:17:04Z</time>
      </trkpt>
      <trkpt lat="44.58878" lon="5.65552">
        <ele>1136.49</ele>
        <time>2019-10-27T08:17:23Z</time>
      </trkpt>
      <trkpt lat="44.58897" lon="5.65555">
        <ele>1139.7</ele>
        <time>2019-10-27T08:17:39Z</time>
      </trkpt>
      <trkpt lat="44.58903" lon="5.65556">
        <ele>1140.74</ele>
        <time>2019-10-27T08:17:44Z</time>
      </trkpt>
      <trkpt lat="44.58922" lon="5.65545">
        <ele>1143.77</ele>
        <time>2019-10-27T08:18:02Z</time>
      </trkpt>
      <trkpt lat="44.5893" lon="5.65534">
        <ele>1146.72</ele>
        <time>2019-10-27T08:18:13Z</time>
      </trkpt>
      <trkpt lat="44.58939" lon="5.65499">
        <ele>1149.12</ele>
        <time>2019-10-27T08:18:31Z</time>
      </trkpt>
      <trkpt lat="44.5894" lon="5.65495">
        <ele>1149.24</ele>
        <time>2019-10-27T08:18:33Z</time>
      </trkpt>
      <trkpt lat="44.58944" lon="5.65467">
        <ele>1148.65</ele>
        <time>2019-10-27T08:18:50Z</time>
      </trkpt>
      <trkpt lat="44.58944" lon="5.65465">
        <ele>1148.69</ele>
        <time>2019-10-27T08:18:51Z</time>
      </trkpt>
      <trkpt lat="44.5896" lon="5.65443">
        <ele>1151.27</ele>
        <time>2019-10-27T08:19:11Z</time>
      </trkpt>
      <trkpt lat="44.5897" lon="5.65431">
        <ele>1154.54</ele>
        <time>2019-10-27T08:19:24Z</time>
      </trkpt>
      <trkpt lat="44.5897" lon="5.65422">
        <ele>1156.82</ele>
        <time>2019-10-27T08:19:30Z</time>
      </trkpt>
      <trkpt lat="44.58969" lon="5.65391">
        <ele>1163.3</ele>
        <time>2019-10-27T08:19:51Z</time>
      </trkpt>
      <trkpt lat="44.58969" lon="5.65378">
        <ele>1163.11</ele>
        <time>2019-10-27T08:20:05Z</time>
      </trkpt>
      <trkpt lat="44.58968" lon="5.65355">
        <ele>1165.76</ele>
        <time>2019-10-27T08:20:21Z</time>
      </trkpt>
      <trkpt lat="44.58968" lon="5.65348">
        <ele>1167.01</ele>
        <time>2019-10-27T08:20:26Z</time>
      </trkpt>
      <trkpt lat="44.58967" lon="5.65343">
        <ele>1167.59</ele>
        <time>2019-10-27T08:20:29Z</time>
      </trkpt>
      <trkpt lat="44.58962" lon="5.65332">
        <ele>1169.22</ele>
        <time>2019-10-27T08:20:37Z</time>
      </trkpt>
      <trkpt lat="44.58953" lon="5.65295">
        <ele>1175.48</ele>
        <time>2019-10-27T08:20:59Z</time>
      </trkpt>
      <trkpt lat="44.58941" lon="5.65264">
        <ele>1177.09</ele>
        <time>2019-10-27T08:21:18Z</time>
      </trkpt>
      <trkpt lat="44.58923" lon="5.65256">
        <ele>1175.33</ele>
        <time>2019-10-27T08:21:31Z</time>
      </trkpt>
      <trkpt lat="44.58922" lon="5.6525">
        <ele>1175.84</ele>
        <time>2019-10-27T08:21:36Z</time>
      </trkpt>
      <trkpt lat="44.58941" lon="5.65244">
        <ele>1176.65</ele>
        <time>2019-10-27T08:21:56Z</time>
      </trkpt>
      <trkpt lat="44.58963" lon="5.65235">
        <ele>1178.79</ele>
        <time>2019-10-27T08:22:16Z</time>
      </trkpt>
      <trkpt lat="44.5897" lon="5.65234">
        <ele>1179.92</ele>
        <time>2019-10-27T08:22:22Z</time>
      </trkpt>
      <trkpt lat="44.58991" lon="5.65236">
        <ele>1183.69</ele>
        <time>2019-10-27T08:22:40Z</time>
      </trkpt>
      <trkpt lat="44.5901" lon="5.6524">
        <ele>1186.1</ele>
        <time>2019-10-27T08:22:58Z</time>
      </trkpt>
      <trkpt lat="44.59012" lon="5.65241">
        <ele>1185.92</ele>
        <time>2019-10-27T08:23:00Z</time>
      </trkpt>
      <trkpt lat="44.59032" lon="5.65237">
        <ele>1187.43</ele>
        <time>2019-10-27T08:23:19Z</time>
      </trkpt>
      <trkpt lat="44.59042" lon="5.6523">
        <ele>1189.29</ele>
        <time>2019-10-27T08:23:38Z</time>
      </trkpt>
      <trkpt lat="44.59059" lon="5.6521">
        <ele>1193.72</ele>
        <time>2019-10-27T08:23:58Z</time>
      </trkpt>
      <trkpt lat="44.59071" lon="5.65189">
        <ele>1197.17</ele>
        <time>2019-10-27T08:24:15Z</time>
      </trkpt>
      <trkpt lat="44.59093" lon="5.65165">
        <ele>1201.46</ele>
        <time>2019-10-27T08:24:39Z</time>
      </trkpt>
      <trkpt lat="44.59109" lon="5.65163">
        <ele>1206.24</ele>
        <time>2019-10-27T08:24:55Z</time>
      </trkpt>
      <trkpt lat="44.59113" lon="5.65169">
        <ele>1207.53</ele>
        <time>2019-10-27T08:25:02Z</time>
      </trkpt>
      <trkpt lat="44.59133" lon="5.65174">
        <ele>1211.36</ele>
        <time>2019-10-27T08:25:22Z</time>
      </trkpt>
      <trkpt lat="44.5915" lon="5.65172">
        <ele>1214.48</ele>
        <time>2019-10-27T08:25:39Z</time>
      </trkpt>
      <trkpt lat="44.59163" lon="5.65174">
        <ele>1216.06</ele>
        <time>2019-10-27T08:25:52Z</time>
      </trkpt>
      <trkpt lat="44.59187" lon="5.65167">
        <ele>1220.84</ele>
        <time>2019-10-27T08:26:12Z</time>
      </trkpt>
      <trkpt lat="44.59194" lon="5.65149">
        <ele>1225.5</ele>
        <time>2019-10-27T08:26:23Z</time>
      </trkpt>
      <trkpt lat="44.592" lon="5.65147">
        <ele>1226.88</ele>
        <time>2019-10-27T08:26:28Z</time>
      </trkpt>
      <trkpt lat="44.59211" lon="5.65131">
        <ele>1230.44</ele>
        <time>2019-10-27T08:26:42Z</time>
      </trkpt>
      <trkpt lat="44.59227" lon="5.65114">
        <ele>1235.62</ele>
        <time>2019-10-27T08:27:00Z</time>
      </trkpt>
      <trkpt lat="44.59228" lon="5.65109">
        <ele>1234.32</ele>
        <time>2019-10-27T08:27:21Z</time>
      </trkpt>
      <trkpt lat="44.59228" lon="5.65109">
        <ele>1234.26</ele>
        <time>2019-10-27T08:27:50Z</time>
      </trkpt>
      <trkpt lat="44.59228" lon="5.65109">
        <ele>1233.78</ele>
        <time>2019-10-27T08:28:20Z</time>
      </trkpt>
      <trkpt lat="44.59236" lon="5.65094">
        <ele>1235.58</ele>
        <time>2019-10-27T08:28:41Z</time>
      </trkpt>
      <trkpt lat="44.5925" lon="5.65069">
        <ele>1239.84</ele>
        <time>2019-10-27T08:29:01Z</time>
      </trkpt>
      <trkpt lat="44.59253" lon="5.65064">
        <ele>1240.97</ele>
        <time>2019-10-27T08:29:05Z</time>
      </trkpt>
      <trkpt lat="44.59267" lon="5.65041">
        <ele>1246.2</ele>
        <time>2019-10-27T08:29:24Z</time>
      </trkpt>
      <trkpt lat="44.59268" lon="5.65039">
        <ele>1246.78</ele>
        <time>2019-10-27T08:29:26Z</time>
      </trkpt>
      <trkpt lat="44.59274" lon="5.65034">
        <ele>1248.25</ele>
        <time>2019-10-27T08:29:32Z</time>
      </trkpt>
      <trkpt lat="44.59282" lon="5.65023">
        <ele>1250.54</ele>
        <time>2019-10-27T08:29:44Z</time>
      </trkpt>
      <trkpt lat="44.59295" lon="5.65004">
        <ele>1254.97</ele>
        <time>2019-10-27T08:30:02Z</time>
      </trkpt>
      <trkpt lat="44.593" lon="5.64982">
        <ele>1259.55</ele>
        <time>2019-10-27T08:30:17Z</time>
      </trkpt>
      <trkpt lat="44.59301" lon="5.6498">
        <ele>1260.04</ele>
        <time>2019-10-27T08:30:19Z</time>
      </trkpt>
      <trkpt lat="44.59304" lon="5.64974">
        <ele>1261.37</ele>
        <time>2019-10-27T08:30:37Z</time>
      </trkpt>
      <trkpt lat="44.59305" lon="5.64973">
        <ele>1261.96</ele>
        <time>2019-10-27T08:30:55Z</time>
      </trkpt>
      <trkpt lat="44.59322" lon="5.64962">
        <ele>1264.14</ele>
        <time>2019-10-27T08:31:13Z</time>
      </trkpt>
      <trkpt lat="44.59342" lon="5.64949">
        <ele>1267.84</ele>
        <time>2019-10-27T08:31:32Z</time>
      </trkpt>
      <trkpt lat="44.59361" lon="5.64941">
        <ele>1270.94</ele>
        <time>2019-10-27T08:31:51Z</time>
      </trkpt>
      <trkpt lat="44.59372" lon="5.64933">
        <ele>1273.5</ele>
        <time>2019-10-27T08:32:02Z</time>
      </trkpt>
      <trkpt lat="44.59384" lon="5.64923">
        <ele>1276.61</ele>
        <time>2019-10-27T08:32:14Z</time>
      </trkpt>
      <trkpt lat="44.59405" lon="5.64914">
        <ele>1282.51</ele>
        <time>2019-10-27T08:32:33Z</time>
      </trkpt>
      <trkpt lat="44.59409" lon="5.6491">
        <ele>1283.87</ele>
        <time>2019-10-27T08:32:38Z</time>
      </trkpt>
      <trkpt lat="44.59416" lon="5.64883">
        <ele>1286.64</ele>
        <time>2019-10-27T08:32:57Z</time>
      </trkpt>
      <trkpt lat="44.59415" lon="5.64864">
        <ele>1287.18</ele>
        <time>2019-10-27T08:33:17Z</time>
      </trkpt>
      <trkpt lat="44.59432" lon="5.64851">
        <ele>1291.73</ele>
        <time>2019-10-27T08:33:35Z</time>
      </trkpt>
      <trkpt lat="44.59443" lon="5.64845">
        <ele>1293.59</ele>
        <time>2019-10-27T08:33:46Z</time>
      </trkpt>
      <trkpt lat="44.59459" lon="5.64843">
        <ele>1297.65</ele>
        <time>2019-10-27T08:34:03Z</time>
      </trkpt>
      <trkpt lat="44.59473" lon="5.64843">
        <ele>1300.83</ele>
        <time>2019-10-27T08:34:15Z</time>
      </trkpt>
      <trkpt lat="44.59488" lon="5.64821">
        <ele>1307.49</ele>
        <time>2019-10-27T08:34:33Z</time>
      </trkpt>
      <trkpt lat="44.59491" lon="5.64815">
        <ele>1308.61</ele>
        <time>2019-10-27T08:34:39Z</time>
      </trkpt>
      <trkpt lat="44.59494" lon="5.64812">
        <ele>1309.25</ele>
        <time>2019-10-27T08:34:42Z</time>
      </trkpt>
      <trkpt lat="44.59498" lon="5.6481">
        <ele>1310.09</ele>
        <time>2019-10-27T08:34:45Z</time>
      </trkpt>
      <trkpt lat="44.59503" lon="5.64803">
        <ele>1311.56</ele>
        <time>2019-10-27T08:34:50Z</time>
      </trkpt>
      <trkpt lat="44.59504" lon="5.64799">
        <ele>1312.58</ele>
        <time>2019-10-27T08:34:53Z</time>
      </trkpt>
      <trkpt lat="44.59501" lon="5.64768">
        <ele>1315.2</ele>
        <time>2019-10-27T08:35:10Z</time>
      </trkpt>
      <trkpt lat="44.595" lon="5.64761">
        <ele>1315.27</ele>
        <time>2019-10-27T08:35:26Z</time>
      </trkpt>
      <trkpt lat="44.59499" lon="5.64761">
        <ele>1314.8</ele>
        <time>2019-10-27T08:35:52Z</time>
      </trkpt>
      <trkpt lat="44.59501" lon="5.64759">
        <ele>1314.1</ele>
        <time>2019-10-27T08:36:31Z</time>
      </trkpt>
      <trkpt lat="44.59501" lon="5.6476">
        <ele>1313.17</ele>
        <time>2019-10-27T08:37:12Z</time>
      </trkpt>
      <trkpt lat="44.59501" lon="5.64758">
        <ele>1312.33</ele>
        <time>2019-10-27T08:37:41Z</time>
      </trkpt>
      <trkpt lat="44.595" lon="5.64758">
        <ele>1312.13</ele>
        <time>2019-10-27T08:38:14Z</time>
      </trkpt>
      <trkpt lat="44.595" lon="5.64759">
        <ele>1312.92</ele>
        <time>2019-10-27T08:38:49Z</time>
      </trkpt>
      <trkpt lat="44.59502" lon="5.64758">
        <ele>1312.24</ele>
        <time>2019-10-27T08:39:06Z</time>
      </trkpt>
      <trkpt lat="44.59504" lon="5.64751">
        <ele>1313.35</ele>
        <time>2019-10-27T08:39:12Z</time>
      </trkpt>
      <trkpt lat="44.59512" lon="5.64731">
        <ele>1319.52</ele>
        <time>2019-10-27T08:39:30Z</time>
      </trkpt>
      <trkpt lat="44.59512" lon="5.6473">
        <ele>1319.96</ele>
        <time>2019-10-27T08:39:31Z</time>
      </trkpt>
      <trkpt lat="44.59516" lon="5.64722">
        <ele>1322.7</ele>
        <time>2019-10-27T08:39:37Z</time>
      </trkpt>
      <trkpt lat="44.59516" lon="5.64717">
        <ele>1323.68</ele>
        <time>2019-10-27T08:39:40Z</time>
      </trkpt>
      <trkpt lat="44.59526" lon="5.64697">
        <ele>1328.14</ele>
        <time>2019-10-27T08:39:56Z</time>
      </trkpt>
      <trkpt lat="44.59529" lon="5.64686">
        <ele>1330.64</ele>
        <time>2019-10-27T08:40:14Z</time>
      </trkpt>
      <trkpt lat="44.59529" lon="5.64684">
        <ele>1330.68</ele>
        <time>2019-10-27T08:40:15Z</time>
      </trkpt>
      <trkpt lat="44.59527" lon="5.64675">
        <ele>1331.55</ele>
        <time>2019-10-27T08:40:21Z</time>
      </trkpt>
      <trkpt lat="44.59517" lon="5.64657">
        <ele>1336.32</ele>
        <time>2019-10-27T08:40:38Z</time>
      </trkpt>
      <trkpt lat="44.59502" lon="5.64638">
        <ele>1339.47</ele>
        <time>2019-10-27T08:40:55Z</time>
      </trkpt>
      <trkpt lat="44.59493" lon="5.64622">
        <ele>1342.31</ele>
        <time>2019-10-27T08:41:08Z</time>
      </trkpt>
      <trkpt lat="44.59488" lon="5.64617">
        <ele>1343.24</ele>
        <time>2019-10-27T08:41:13Z</time>
      </trkpt>
      <trkpt lat="44.59486" lon="5.64616">
        <ele>1343.67</ele>
        <time>2019-10-27T08:41:15Z</time>
      </trkpt>
      <trkpt lat="44.59482" lon="5.64608">
        <ele>1344.32</ele>
        <time>2019-10-27T08:41:31Z</time>
      </trkpt>
      <trkpt lat="44.59471" lon="5.64591">
        <ele>1346.76</ele>
        <time>2019-10-27T08:41:46Z</time>
      </trkpt>
      <trkpt lat="44.59462" lon="5.64585">
        <ele>1350</ele>
        <time>2019-10-27T08:42:02Z</time>
      </trkpt>
      <trkpt lat="44.59458" lon="5.6458">
        <ele>1349.96</ele>
        <time>2019-10-27T08:42:34Z</time>
      </trkpt>
      <trkpt lat="44.59455" lon="5.64574">
        <ele>1350.94</ele>
        <time>2019-10-27T08:42:40Z</time>
      </trkpt>
      <trkpt lat="44.59444" lon="5.64557">
        <ele>1356.5</ele>
        <time>2019-10-27T08:42:55Z</time>
      </trkpt>
      <trkpt lat="44.59433" lon="5.64542">
        <ele>1363.5</ele>
        <time>2019-10-27T08:43:12Z</time>
      </trkpt>
      <trkpt lat="44.5943" lon="5.64541">
        <ele>1360.78</ele>
        <time>2019-10-27T08:43:32Z</time>
      </trkpt>
      <trkpt lat="44.59428" lon="5.64532">
        <ele>1361.69</ele>
        <time>2019-10-27T08:43:41Z</time>
      </trkpt>
      <trkpt lat="44.5942" lon="5.64519">
        <ele>1364.82</ele>
        <time>2019-10-27T08:43:51Z</time>
      </trkpt>
      <trkpt lat="44.59413" lon="5.64504">
        <ele>1370.34</ele>
        <time>2019-10-27T08:44:07Z</time>
      </trkpt>
      <trkpt lat="44.59421" lon="5.64501">
        <ele>1374.03</ele>
        <time>2019-10-27T08:44:22Z</time>
      </trkpt>
      <trkpt lat="44.59434" lon="5.64486">
        <ele>1376.15</ele>
        <time>2019-10-27T08:44:36Z</time>
      </trkpt>
      <trkpt lat="44.59446" lon="5.64477">
        <ele>1377.05</ele>
        <time>2019-10-27T08:44:49Z</time>
      </trkpt>
      <trkpt lat="44.5946" lon="5.64455">
        <ele>1379.87</ele>
        <time>2019-10-27T08:45:08Z</time>
      </trkpt>
      <trkpt lat="44.59462" lon="5.64447">
        <ele>1376.1</ele>
        <time>2019-10-27T08:45:24Z</time>
      </trkpt>
      <trkpt lat="44.59461" lon="5.64447">
        <ele>1375.51</ele>
        <time>2019-10-27T08:45:50Z</time>
      </trkpt>
      <trkpt lat="44.59462" lon="5.6442">
        <ele>1377.43</ele>
        <time>2019-10-27T08:46:06Z</time>
      </trkpt>
      <trkpt lat="44.59464" lon="5.64402">
        <ele>1383.36</ele>
        <time>2019-10-27T08:46:17Z</time>
      </trkpt>
      <trkpt lat="44.59466" lon="5.64394">
        <ele>1385.39</ele>
        <time>2019-10-27T08:46:33Z</time>
      </trkpt>
      <trkpt lat="44.59468" lon="5.6438">
        <ele>1386.42</ele>
        <time>2019-10-27T08:46:42Z</time>
      </trkpt>
      <trkpt lat="44.59467" lon="5.64375">
        <ele>1387.11</ele>
        <time>2019-10-27T08:46:45Z</time>
      </trkpt>
      <trkpt lat="44.59466" lon="5.64372">
        <ele>1387.53</ele>
        <time>2019-10-27T08:46:47Z</time>
      </trkpt>
      <trkpt lat="44.5946" lon="5.64355">
        <ele>1390.36</ele>
        <time>2019-10-27T08:47:00Z</time>
      </trkpt>
      <trkpt lat="44.59447" lon="5.64327">
        <ele>1394.93</ele>
        <time>2019-10-27T08:47:20Z</time>
      </trkpt>
      <trkpt lat="44.59428" lon="5.64306">
        <ele>1397.92</ele>
        <time>2019-10-27T08:47:41Z</time>
      </trkpt>
      <trkpt lat="44.59412" lon="5.64294">
        <ele>1402.52</ele>
        <time>2019-10-27T08:47:56Z</time>
      </trkpt>
      <trkpt lat="44.59391" lon="5.64285">
        <ele>1407.61</ele>
        <time>2019-10-27T08:48:12Z</time>
      </trkpt>
      <trkpt lat="44.59381" lon="5.64276">
        <ele>1409.91</ele>
        <time>2019-10-27T08:48:22Z</time>
      </trkpt>
      <trkpt lat="44.59382" lon="5.64272">
        <ele>1410.85</ele>
        <time>2019-10-27T08:48:25Z</time>
      </trkpt>
      <trkpt lat="44.59384" lon="5.6427">
        <ele>1411.93</ele>
        <time>2019-10-27T08:48:45Z</time>
      </trkpt>
      <trkpt lat="44.59385" lon="5.64269">
        <ele>1412.72</ele>
        <time>2019-10-27T08:49:16Z</time>
      </trkpt>
      <trkpt lat="44.59386" lon="5.64271">
        <ele>1413.36</ele>
        <time>2019-10-27T08:49:47Z</time>
      </trkpt>
      <trkpt lat="44.59386" lon="5.64271">
        <ele>1414.51</ele>
        <time>2019-10-27T08:50:14Z</time>
      </trkpt>
      <trkpt lat="44.59387" lon="5.6427">
        <ele>1415.53</ele>
        <time>2019-10-27T08:50:41Z</time>
      </trkpt>
      <trkpt lat="44.59387" lon="5.64266">
        <ele>1415.93</ele>
        <time>2019-10-27T08:51:05Z</time>
      </trkpt>
      <trkpt lat="44.5939" lon="5.64268">
        <ele>1415.8</ele>
        <time>2019-10-27T08:51:23Z</time>
      </trkpt>
      <trkpt lat="44.5939" lon="5.64267">
        <ele>1415.18</ele>
        <time>2019-10-27T08:51:54Z</time>
      </trkpt>
      <trkpt lat="44.59388" lon="5.64269">
        <ele>1415.57</ele>
        <time>2019-10-27T08:52:23Z</time>
      </trkpt>
      <trkpt lat="44.59388" lon="5.64271">
        <ele>1416.38</ele>
        <time>2019-10-27T08:52:52Z</time>
      </trkpt>
      <trkpt lat="44.59387" lon="5.64268">
        <ele>1415.23</ele>
        <time>2019-10-27T08:53:14Z</time>
      </trkpt>
      <trkpt lat="44.59388" lon="5.64268">
        <ele>1414.78</ele>
        <time>2019-10-27T08:53:49Z</time>
      </trkpt>
      <trkpt lat="44.59388" lon="5.64266">
        <ele>1415.4</ele>
        <time>2019-10-27T08:54:19Z</time>
      </trkpt>
      <trkpt lat="44.59391" lon="5.64256">
        <ele>1416.2</ele>
        <time>2019-10-27T08:54:29Z</time>
      </trkpt>
      <trkpt lat="44.59406" lon="5.64239">
        <ele>1419.94</ele>
        <time>2019-10-27T08:54:48Z</time>
      </trkpt>
      <trkpt lat="44.59407" lon="5.64238">
        <ele>1420.26</ele>
        <time>2019-10-27T08:54:49Z</time>
      </trkpt>
      <trkpt lat="44.59412" lon="5.64237">
        <ele>1421.19</ele>
        <time>2019-10-27T08:54:54Z</time>
      </trkpt>
      <trkpt lat="44.59427" lon="5.64221">
        <ele>1424.26</ele>
        <time>2019-10-27T08:55:09Z</time>
      </trkpt>
      <trkpt lat="44.5943" lon="5.64217">
        <ele>1424.8</ele>
        <time>2019-10-27T08:55:13Z</time>
      </trkpt>
      <trkpt lat="44.59439" lon="5.64199">
        <ele>1427.82</ele>
        <time>2019-10-27T08:55:27Z</time>
      </trkpt>
      <trkpt lat="44.59448" lon="5.64176">
        <ele>1430.6</ele>
        <time>2019-10-27T08:55:44Z</time>
      </trkpt>
      <trkpt lat="44.59459" lon="5.64146">
        <ele>1434.56</ele>
        <time>2019-10-27T08:56:05Z</time>
      </trkpt>
      <trkpt lat="44.59463" lon="5.64119">
        <ele>1436.13</ele>
        <time>2019-10-27T08:56:23Z</time>
      </trkpt>
      <trkpt lat="44.5946" lon="5.64117">
        <ele>1434.68</ele>
        <time>2019-10-27T08:56:39Z</time>
      </trkpt>
      <trkpt lat="44.59463" lon="5.64115">
        <ele>1434.67</ele>
        <time>2019-10-27T08:56:57Z</time>
      </trkpt>
      <trkpt lat="44.59467" lon="5.64095">
        <ele>1435.04</ele>
        <time>2019-10-27T08:57:18Z</time>
      </trkpt>
      <trkpt lat="44.59465" lon="5.64095">
        <ele>1434.63</ele>
        <time>2019-10-27T08:57:38Z</time>
      </trkpt>
      <trkpt lat="44.59465" lon="5.64079">
        <ele>1434.66</ele>
        <time>2019-10-27T08:57:57Z</time>
      </trkpt>
      <trkpt lat="44.59471" lon="5.64064">
        <ele>1437.19</ele>
        <time>2019-10-27T08:58:10Z</time>
      </trkpt>
      <trkpt lat="44.59478" lon="5.6405">
        <ele>1439.98</ele>
        <time>2019-10-27T08:58:27Z</time>
      </trkpt>
      <trkpt lat="44.59487" lon="5.64035">
        <ele>1444.74</ele>
        <time>2019-10-27T08:58:43Z</time>
      </trkpt>
      <trkpt lat="44.5949" lon="5.64014">
        <ele>1448.71</ele>
        <time>2019-10-27T08:58:57Z</time>
      </trkpt>
      <trkpt lat="44.59486" lon="5.63984">
        <ele>1453.08</ele>
        <time>2019-10-27T08:59:18Z</time>
      </trkpt>
      <trkpt lat="44.59486" lon="5.63973">
        <ele>1453.28</ele>
        <time>2019-10-27T08:59:36Z</time>
      </trkpt>
      <trkpt lat="44.59487" lon="5.63955">
        <ele>1454.18</ele>
        <time>2019-10-27T08:59:54Z</time>
      </trkpt>
      <trkpt lat="44.59489" lon="5.63935">
        <ele>1456.56</ele>
        <time>2019-10-27T09:00:11Z</time>
      </trkpt>
      <trkpt lat="44.59495" lon="5.63921">
        <ele>1462.42</ele>
        <time>2019-10-27T09:00:23Z</time>
      </trkpt>
      <trkpt lat="44.59501" lon="5.63901">
        <ele>1466.89</ele>
        <time>2019-10-27T09:00:38Z</time>
      </trkpt>
      <trkpt lat="44.59505" lon="5.63888">
        <ele>1469.42</ele>
        <time>2019-10-27T09:00:52Z</time>
      </trkpt>
      <trkpt lat="44.59512" lon="5.63864">
        <ele>1471.59</ele>
        <time>2019-10-27T09:01:09Z</time>
      </trkpt>
      <trkpt lat="44.59518" lon="5.63846">
        <ele>1472.32</ele>
        <time>2019-10-27T09:01:22Z</time>
      </trkpt>
      <trkpt lat="44.59526" lon="5.6383">
        <ele>1473.02</ele>
        <time>2019-10-27T09:01:34Z</time>
      </trkpt>
      <trkpt lat="44.59533" lon="5.63812">
        <ele>1474.98</ele>
        <time>2019-10-27T09:01:47Z</time>
      </trkpt>
      <trkpt lat="44.59536" lon="5.63805">
        <ele>1475.81</ele>
        <time>2019-10-27T09:01:52Z</time>
      </trkpt>
      <trkpt lat="44.59536" lon="5.63799">
        <ele>1475.97</ele>
        <time>2019-10-27T09:01:56Z</time>
      </trkpt>
      <trkpt lat="44.59545" lon="5.6379">
        <ele>1478.26</ele>
        <time>2019-10-27T09:02:07Z</time>
      </trkpt>
      <trkpt lat="44.59554" lon="5.63776">
        <ele>1481.91</ele>
        <time>2019-10-27T09:02:21Z</time>
      </trkpt>
      <trkpt lat="44.59566" lon="5.63756">
        <ele>1484.95</ele>
        <time>2019-10-27T09:02:39Z</time>
      </trkpt>
      <trkpt lat="44.59575" lon="5.63728">
        <ele>1488.69</ele>
        <time>2019-10-27T09:03:01Z</time>
      </trkpt>
      <trkpt lat="44.5958" lon="5.63713">
        <ele>1490.22</ele>
        <time>2019-10-27T09:03:16Z</time>
      </trkpt>
      <trkpt lat="44.59582" lon="5.63709">
        <ele>1491.07</ele>
        <time>2019-10-27T09:03:21Z</time>
      </trkpt>
      <trkpt lat="44.59589" lon="5.63698">
        <ele>1492.56</ele>
        <time>2019-10-27T09:03:34Z</time>
      </trkpt>
      <trkpt lat="44.59594" lon="5.63691">
        <ele>1493.32</ele>
        <time>2019-10-27T09:03:48Z</time>
      </trkpt>
      <trkpt lat="44.59605" lon="5.63681">
        <ele>1495.72</ele>
        <time>2019-10-27T09:04:02Z</time>
      </trkpt>
      <trkpt lat="44.59616" lon="5.63665">
        <ele>1501.75</ele>
        <time>2019-10-27T09:04:17Z</time>
      </trkpt>
      <trkpt lat="44.59617" lon="5.63663">
        <ele>1501.08</ele>
        <time>2019-10-27T09:04:36Z</time>
      </trkpt>
      <trkpt lat="44.59619" lon="5.63661">
        <ele>1501.39</ele>
        <time>2019-10-27T09:04:45Z</time>
      </trkpt>
      <trkpt lat="44.59632" lon="5.63639">
        <ele>1507.26</ele>
        <time>2019-10-27T09:05:05Z</time>
      </trkpt>
      <trkpt lat="44.59632" lon="5.63638">
        <ele>1507.65</ele>
        <time>2019-10-27T09:05:06Z</time>
      </trkpt>
      <trkpt lat="44.59633" lon="5.63635">
        <ele>1508.11</ele>
        <time>2019-10-27T09:05:08Z</time>
      </trkpt>
      <trkpt lat="44.59645" lon="5.6362">
        <ele>1512.92</ele>
        <time>2019-10-27T09:05:23Z</time>
      </trkpt>
      <trkpt lat="44.59658" lon="5.63597">
        <ele>1519.83</ele>
        <time>2019-10-27T09:05:40Z</time>
      </trkpt>
      <trkpt lat="44.59667" lon="5.63573">
        <ele>1525.23</ele>
        <time>2019-10-27T09:05:57Z</time>
      </trkpt>
      <trkpt lat="44.59669" lon="5.63567">
        <ele>1526.65</ele>
        <time>2019-10-27T09:06:01Z</time>
      </trkpt>
      <trkpt lat="44.59671" lon="5.63555">
        <ele>1528.52</ele>
        <time>2019-10-27T09:06:07Z</time>
      </trkpt>
      <trkpt lat="44.59675" lon="5.63539">
        <ele>1532.24</ele>
        <time>2019-10-27T09:06:18Z</time>
      </trkpt>
      <trkpt lat="44.59671" lon="5.63515">
        <ele>1536.67</ele>
        <time>2019-10-27T09:06:32Z</time>
      </trkpt>
      <trkpt lat="44.59667" lon="5.63486">
        <ele>1540.54</ele>
        <time>2019-10-27T09:06:50Z</time>
      </trkpt>
      <trkpt lat="44.59669" lon="5.63478">
        <ele>1542.34</ele>
        <time>2019-10-27T09:07:09Z</time>
      </trkpt>
      <trkpt lat="44.59669" lon="5.63481">
        <ele>1541.76</ele>
        <time>2019-10-27T09:07:30Z</time>
      </trkpt>
      <trkpt lat="44.59677" lon="5.63465">
        <ele>1543.74</ele>
        <time>2019-10-27T09:07:46Z</time>
      </trkpt>
      <trkpt lat="44.59686" lon="5.63446">
        <ele>1548.49</ele>
        <time>2019-10-27T09:08:05Z</time>
      </trkpt>
      <trkpt lat="44.59694" lon="5.63426">
        <ele>1549.71</ele>
        <time>2019-10-27T09:08:24Z</time>
      </trkpt>
      <trkpt lat="44.59706" lon="5.63394">
        <ele>1554.58</ele>
        <time>2019-10-27T09:08:46Z</time>
      </trkpt>
      <trkpt lat="44.59716" lon="5.6337">
        <ele>1559.67</ele>
        <time>2019-10-27T09:09:02Z</time>
      </trkpt>
      <trkpt lat="44.59725" lon="5.63351">
        <ele>1564.21</ele>
        <time>2019-10-27T09:09:19Z</time>
      </trkpt>
      <trkpt lat="44.59733" lon="5.63335">
        <ele>1568.03</ele>
        <time>2019-10-27T09:09:40Z</time>
      </trkpt>
      <trkpt lat="44.59747" lon="5.63317">
        <ele>1572.87</ele>
        <time>2019-10-27T09:09:57Z</time>
      </trkpt>
      <trkpt lat="44.59754" lon="5.63314">
        <ele>1574.25</ele>
        <time>2019-10-27T09:10:12Z</time>
      </trkpt>
      <trkpt lat="44.59753" lon="5.63316">
        <ele>1573.93</ele>
        <time>2019-10-27T09:10:40Z</time>
      </trkpt>
      <trkpt lat="44.59765" lon="5.63307">
        <ele>1575.96</ele>
        <time>2019-10-27T09:10:55Z</time>
      </trkpt>
      <trkpt lat="44.59782" lon="5.63296">
        <ele>1582</ele>
        <time>2019-10-27T09:11:11Z</time>
      </trkpt>
      <trkpt lat="44.59802" lon="5.63282">
        <ele>1588.2</ele>
        <time>2019-10-27T09:11:31Z</time>
      </trkpt>
      <trkpt lat="44.59819" lon="5.63274">
        <ele>1590.49</ele>
        <time>2019-10-27T09:11:47Z</time>
      </trkpt>
      <trkpt lat="44.59841" lon="5.63269">
        <ele>1592.72</ele>
        <time>2019-10-27T09:12:05Z</time>
      </trkpt>
      <trkpt lat="44.59847" lon="5.6327">
        <ele>1592.34</ele>
        <time>2019-10-27T09:12:22Z</time>
      </trkpt>
      <trkpt lat="44.59848" lon="5.63271">
        <ele>1591.65</ele>
        <time>2019-10-27T09:12:48Z</time>
      </trkpt>
      <trkpt lat="44.59848" lon="5.63271">
        <ele>1592.29</ele>
        <time>2019-10-27T09:13:18Z</time>
      </trkpt>
      <trkpt lat="44.59849" lon="5.63271">
        <ele>1593.02</ele>
        <time>2019-10-27T09:13:43Z</time>
      </trkpt>
      <trkpt lat="44.59849" lon="5.63272">
        <ele>1592.31</ele>
        <time>2019-10-27T09:14:19Z</time>
      </trkpt>
      <trkpt lat="44.59851" lon="5.63272">
        <ele>1591.73</ele>
        <time>2019-10-27T09:14:44Z</time>
      </trkpt>
      <trkpt lat="44.59851" lon="5.63272">
        <ele>1590.88</ele>
        <time>2019-10-27T09:15:06Z</time>
      </trkpt>
      <trkpt lat="44.59851" lon="5.63277">
        <ele>1591.19</ele>
        <time>2019-10-27T09:15:23Z</time>
      </trkpt>
      <trkpt lat="44.59853" lon="5.63275">
        <ele>1590.77</ele>
        <time>2019-10-27T09:15:54Z</time>
      </trkpt>
      <trkpt lat="44.59849" lon="5.63275">
        <ele>1590.46</ele>
        <time>2019-10-27T09:16:13Z</time>
      </trkpt>
      <trkpt lat="44.59849" lon="5.63273">
        <ele>1590.76</ele>
        <time>2019-10-27T09:16:32Z</time>
      </trkpt>
      <trkpt lat="44.5985" lon="5.63272">
        <ele>1590.71</ele>
        <time>2019-10-27T09:16:59Z</time>
      </trkpt>
      <trkpt lat="44.59853" lon="5.63274">
        <ele>1589.9</ele>
        <time>2019-10-27T09:17:25Z</time>
      </trkpt>
      <trkpt lat="44.59854" lon="5.63274">
        <ele>1589.92</ele>
        <time>2019-10-27T09:17:50Z</time>
      </trkpt>
      <trkpt lat="44.59855" lon="5.63274">
        <ele>1589.64</ele>
        <time>2019-10-27T09:18:05Z</time>
      </trkpt>
      <trkpt lat="44.59854" lon="5.63271">
        <ele>1589.65</ele>
        <time>2019-10-27T09:18:20Z</time>
      </trkpt>
      <trkpt lat="44.59838" lon="5.63241">
        <ele>1590.83</ele>
        <time>2019-10-27T09:18:42Z</time>
      </trkpt>
      <trkpt lat="44.59818" lon="5.63234">
        <ele>1592.97</ele>
        <time>2019-10-27T09:19:00Z</time>
      </trkpt>
      <trkpt lat="44.59796" lon="5.63226">
        <ele>1594.8</ele>
        <time>2019-10-27T09:19:20Z</time>
      </trkpt>
      <trkpt lat="44.59775" lon="5.63213">
        <ele>1597.37</ele>
        <time>2019-10-27T09:19:40Z</time>
      </trkpt>
      <trkpt lat="44.59753" lon="5.63204">
        <ele>1599.09</ele>
        <time>2019-10-27T09:19:59Z</time>
      </trkpt>
      <trkpt lat="44.59744" lon="5.63202">
        <ele>1600.01</ele>
        <time>2019-10-27T09:20:08Z</time>
      </trkpt>
      <trkpt lat="44.59738" lon="5.63196">
        <ele>1601.23</ele>
        <time>2019-10-27T09:20:17Z</time>
      </trkpt>
      <trkpt lat="44.59715" lon="5.6319">
        <ele>1602.99</ele>
        <time>2019-10-27T09:20:40Z</time>
      </trkpt>
      <trkpt lat="44.59697" lon="5.63178">
        <ele>1604.34</ele>
        <time>2019-10-27T09:21:00Z</time>
      </trkpt>
      <trkpt lat="44.59696" lon="5.63172">
        <ele>1605.09</ele>
        <time>2019-10-27T09:21:03Z</time>
      </trkpt>
      <trkpt lat="44.59681" lon="5.63147">
        <ele>1610.37</ele>
        <time>2019-10-27T09:21:21Z</time>
      </trkpt>
      <trkpt lat="44.59679" lon="5.63145">
        <ele>1610.88</ele>
        <time>2019-10-27T09:21:23Z</time>
      </trkpt>
      <trkpt lat="44.59679" lon="5.63141">
        <ele>1611.5</ele>
        <time>2019-10-27T09:21:25Z</time>
      </trkpt>
      <trkpt lat="44.59684" lon="5.63133">
        <ele>1613.63</ele>
        <time>2019-10-27T09:21:31Z</time>
      </trkpt>
      <trkpt lat="44.59687" lon="5.63113">
        <ele>1617.29</ele>
        <time>2019-10-27T09:21:44Z</time>
      </trkpt>
      <trkpt lat="44.59688" lon="5.6311">
        <ele>1618.64</ele>
        <time>2019-10-27T09:22:02Z</time>
      </trkpt>
      <trkpt lat="44.59689" lon="5.63112">
        <ele>1618.28</ele>
        <time>2019-10-27T09:22:33Z</time>
      </trkpt>
      <trkpt lat="44.59689" lon="5.63113">
        <ele>1617.22</ele>
        <time>2019-10-27T09:23:07Z</time>
      </trkpt>
      <trkpt lat="44.59686" lon="5.63108">
        <ele>1617.49</ele>
        <time>2019-10-27T09:23:15Z</time>
      </trkpt>
      <trkpt lat="44.59664" lon="5.6309">
        <ele>1620.36</ele>
        <time>2019-10-27T09:23:35Z</time>
      </trkpt>
      <trkpt lat="44.5964" lon="5.63065">
        <ele>1621.18</ele>
        <time>2019-10-27T09:23:54Z</time>
      </trkpt>
      <trkpt lat="44.59631" lon="5.63041">
        <ele>1619.17</ele>
        <time>2019-10-27T09:24:13Z</time>
      </trkpt>
      <trkpt lat="44.59618" lon="5.6302">
        <ele>1621.19</ele>
        <time>2019-10-27T09:24:29Z</time>
      </trkpt>
      <trkpt lat="44.59603" lon="5.63002">
        <ele>1621.68</ele>
        <time>2019-10-27T09:24:47Z</time>
      </trkpt>
      <trkpt lat="44.59596" lon="5.62998">
        <ele>1621.6</ele>
        <time>2019-10-27T09:24:53Z</time>
      </trkpt>
      <trkpt lat="44.59593" lon="5.62991">
        <ele>1620.72</ele>
        <time>2019-10-27T09:24:58Z</time>
      </trkpt>
      <trkpt lat="44.59578" lon="5.62969">
        <ele>1620.67</ele>
        <time>2019-10-27T09:25:16Z</time>
      </trkpt>
      <trkpt lat="44.59561" lon="5.6295">
        <ele>1621.67</ele>
        <time>2019-10-27T09:25:34Z</time>
      </trkpt>
      <trkpt lat="44.59542" lon="5.62934">
        <ele>1623.41</ele>
        <time>2019-10-27T09:25:52Z</time>
      </trkpt>
      <trkpt lat="44.59524" lon="5.62915">
        <ele>1624.16</ele>
        <time>2019-10-27T09:26:10Z</time>
      </trkpt>
      <trkpt lat="44.59506" lon="5.62905">
        <ele>1625.59</ele>
        <time>2019-10-27T09:26:27Z</time>
      </trkpt>
      <trkpt lat="44.59487" lon="5.62883">
        <ele>1627.84</ele>
        <time>2019-10-27T09:26:47Z</time>
      </trkpt>
      <trkpt lat="44.59472" lon="5.62866">
        <ele>1629.59</ele>
        <time>2019-10-27T09:27:04Z</time>
      </trkpt>
      <trkpt lat="44.59453" lon="5.62852">
        <ele>1632.19</ele>
        <time>2019-10-27T09:27:24Z</time>
      </trkpt>
      <trkpt lat="44.59437" lon="5.62845">
        <ele>1634.28</ele>
        <time>2019-10-27T09:27:41Z</time>
      </trkpt>
      <trkpt lat="44.59421" lon="5.6284">
        <ele>1634.47</ele>
        <time>2019-10-27T09:27:57Z</time>
      </trkpt>
      <trkpt lat="44.59394" lon="5.62827">
        <ele>1635.87</ele>
        <time>2019-10-27T09:28:19Z</time>
      </trkpt>
      <trkpt lat="44.5937" lon="5.62822">
        <ele>1635.04</ele>
        <time>2019-10-27T09:28:39Z</time>
      </trkpt>
      <trkpt lat="44.59349" lon="5.62819">
        <ele>1634.17</ele>
        <time>2019-10-27T09:28:58Z</time>
      </trkpt>
      <trkpt lat="44.59328" lon="5.62814">
        <ele>1634.92</ele>
        <time>2019-10-27T09:29:17Z</time>
      </trkpt>
      <trkpt lat="44.59305" lon="5.62814">
        <ele>1634.87</ele>
        <time>2019-10-27T09:29:38Z</time>
      </trkpt>
      <trkpt lat="44.59284" lon="5.62818">
        <ele>1635.08</ele>
        <time>2019-10-27T09:29:57Z</time>
      </trkpt>
      <trkpt lat="44.59271" lon="5.62819">
        <ele>1634.77</ele>
        <time>2019-10-27T09:30:09Z</time>
      </trkpt>
      <trkpt lat="44.59251" lon="5.62814">
        <ele>1635.93</ele>
        <time>2019-10-27T09:30:28Z</time>
      </trkpt>
      <trkpt lat="44.59236" lon="5.62808">
        <ele>1638.02</ele>
        <time>2019-10-27T09:30:43Z</time>
      </trkpt>
      <trkpt lat="44.59218" lon="5.62804">
        <ele>1640.08</ele>
        <time>2019-10-27T09:30:59Z</time>
      </trkpt>
      <trkpt lat="44.5921" lon="5.62793">
        <ele>1641.3</ele>
        <time>2019-10-27T09:31:13Z</time>
      </trkpt>
      <trkpt lat="44.59211" lon="5.62792">
        <ele>1640.09</ele>
        <time>2019-10-27T09:31:46Z</time>
      </trkpt>
      <trkpt lat="44.59209" lon="5.62792">
        <ele>1639.89</ele>
        <time>2019-10-27T09:32:12Z</time>
      </trkpt>
      <trkpt lat="44.59194" lon="5.62784">
        <ele>1641.33</ele>
        <time>2019-10-27T09:32:27Z</time>
      </trkpt>
      <trkpt lat="44.59182" lon="5.62783">
        <ele>1641.75</ele>
        <time>2019-10-27T09:32:37Z</time>
      </trkpt>
      <trkpt lat="44.59163" lon="5.62786">
        <ele>1642.96</ele>
        <time>2019-10-27T09:32:53Z</time>
      </trkpt>
      <trkpt lat="44.59138" lon="5.62777">
        <ele>1644.77</ele>
        <time>2019-10-27T09:33:13Z</time>
      </trkpt>
      <trkpt lat="44.59119" lon="5.62766">
        <ele>1644.9</ele>
        <time>2019-10-27T09:33:29Z</time>
      </trkpt>
      <trkpt lat="44.59098" lon="5.62749">
        <ele>1645.56</ele>
        <time>2019-10-27T09:33:48Z</time>
      </trkpt>
      <trkpt lat="44.59077" lon="5.6273">
        <ele>1647.17</ele>
        <time>2019-10-27T09:34:08Z</time>
      </trkpt>
      <trkpt lat="44.59055" lon="5.62711">
        <ele>1646.93</ele>
        <time>2019-10-27T09:34:28Z</time>
      </trkpt>
      <trkpt lat="44.59035" lon="5.6269">
        <ele>1649.34</ele>
        <time>2019-10-27T09:34:49Z</time>
      </trkpt>
      <trkpt lat="44.5902" lon="5.62662">
        <ele>1653.52</ele>
        <time>2019-10-27T09:35:09Z</time>
      </trkpt>
      <trkpt lat="44.59007" lon="5.62648">
        <ele>1654.79</ele>
        <time>2019-10-27T09:35:28Z</time>
      </trkpt>
      <trkpt lat="44.59007" lon="5.62646">
        <ele>1654.82</ele>
        <time>2019-10-27T09:35:38Z</time>
      </trkpt>
      <trkpt lat="44.59006" lon="5.62647">
        <ele>1654.82</ele>
        <time>2019-10-27T09:35:59Z</time>
      </trkpt>
      <trkpt lat="44.59007" lon="5.62648">
        <ele>1654.08</ele>
        <time>2019-10-27T09:36:19Z</time>
      </trkpt>
      <trkpt lat="44.59005" lon="5.62647">
        <ele>1653.58</ele>
        <time>2019-10-27T09:36:29Z</time>
      </trkpt>
      <trkpt lat="44.59" lon="5.62646">
        <ele>1653.7</ele>
        <time>2019-10-27T09:36:33Z</time>
      </trkpt>
      <trkpt lat="44.5899" lon="5.62643">
        <ele>1653.35</ele>
        <time>2019-10-27T09:36:42Z</time>
      </trkpt>
      <trkpt lat="44.58981" lon="5.62635">
        <ele>1652.27</ele>
        <time>2019-10-27T09:36:51Z</time>
      </trkpt>
      <trkpt lat="44.58976" lon="5.62632">
        <ele>1651.11</ele>
        <time>2019-10-27T09:36:56Z</time>
      </trkpt>
      <trkpt lat="44.58956" lon="5.62622">
        <ele>1648.52</ele>
        <time>2019-10-27T09:37:12Z</time>
      </trkpt>
      <trkpt lat="44.5895" lon="5.62623">
        <ele>1647.38</ele>
        <time>2019-10-27T09:37:19Z</time>
      </trkpt>
      <trkpt lat="44.58948" lon="5.62622">
        <ele>1647.09</ele>
        <time>2019-10-27T09:37:36Z</time>
      </trkpt>
      <trkpt lat="44.58948" lon="5.62623">
        <ele>1646.52</ele>
        <time>2019-10-27T09:38:03Z</time>
      </trkpt>
      <trkpt lat="44.58935" lon="5.62623">
        <ele>1644.2</ele>
        <time>2019-10-27T09:38:18Z</time>
      </trkpt>
      <trkpt lat="44.58919" lon="5.62627">
        <ele>1638.15</ele>
        <time>2019-10-27T09:38:33Z</time>
      </trkpt>
      <trkpt lat="44.58903" lon="5.62636">
        <ele>1631.16</ele>
        <time>2019-10-27T09:38:51Z</time>
      </trkpt>
      <trkpt lat="44.58898" lon="5.6264">
        <ele>1629.08</ele>
        <time>2019-10-27T09:39:08Z</time>
      </trkpt>
      <trkpt lat="44.58894" lon="5.62642">
        <ele>1629.13</ele>
        <time>2019-10-27T09:39:13Z</time>
      </trkpt>
      <trkpt lat="44.58876" lon="5.62651">
        <ele>1628.56</ele>
        <time>2019-10-27T09:39:29Z</time>
      </trkpt>
      <trkpt lat="44.5886" lon="5.62663">
        <ele>1632.37</ele>
        <time>2019-10-27T09:39:46Z</time>
      </trkpt>
      <trkpt lat="44.5885" lon="5.62675">
        <ele>1636.19</ele>
        <time>2019-10-27T09:40:02Z</time>
      </trkpt>
      <trkpt lat="44.58839" lon="5.62684">
        <ele>1640.1</ele>
        <time>2019-10-27T09:40:19Z</time>
      </trkpt>
      <trkpt lat="44.58833" lon="5.62668">
        <ele>1643.15</ele>
        <time>2019-10-27T09:40:36Z</time>
      </trkpt>
      <trkpt lat="44.58828" lon="5.62661">
        <ele>1644.99</ele>
        <time>2019-10-27T09:40:44Z</time>
      </trkpt>
      <trkpt lat="44.58825" lon="5.62663">
        <ele>1645.87</ele>
        <time>2019-10-27T09:40:58Z</time>
      </trkpt>
      <trkpt lat="44.58819" lon="5.62679">
        <ele>1648.14</ele>
        <time>2019-10-27T09:41:16Z</time>
      </trkpt>
      <trkpt lat="44.58819" lon="5.6268">
        <ele>1648.35</ele>
        <time>2019-10-27T09:41:17Z</time>
      </trkpt>
      <trkpt lat="44.58806" lon="5.62682">
        <ele>1653.54</ele>
        <time>2019-10-27T09:41:35Z</time>
      </trkpt>
      <trkpt lat="44.58807" lon="5.62676">
        <ele>1653.99</ele>
        <time>2019-10-27T09:41:40Z</time>
      </trkpt>
      <trkpt lat="44.58806" lon="5.6267">
        <ele>1654.37</ele>
        <time>2019-10-27T09:41:45Z</time>
      </trkpt>
      <trkpt lat="44.58799" lon="5.62677">
        <ele>1657.38</ele>
        <time>2019-10-27T09:41:59Z</time>
      </trkpt>
      <trkpt lat="44.58795" lon="5.62684">
        <ele>1658.89</ele>
        <time>2019-10-27T09:42:18Z</time>
      </trkpt>
      <trkpt lat="44.58793" lon="5.62686">
        <ele>1658.71</ele>
        <time>2019-10-27T09:42:23Z</time>
      </trkpt>
      <trkpt lat="44.5879" lon="5.62687">
        <ele>1659.06</ele>
        <time>2019-10-27T09:42:27Z</time>
      </trkpt>
      <trkpt lat="44.5878" lon="5.62685">
        <ele>1661.55</ele>
        <time>2019-10-27T09:42:38Z</time>
      </trkpt>
      <trkpt lat="44.58771" lon="5.62672">
        <ele>1665.59</ele>
        <time>2019-10-27T09:42:56Z</time>
      </trkpt>
      <trkpt lat="44.58761" lon="5.62671">
        <ele>1668.41</ele>
        <time>2019-10-27T09:43:12Z</time>
      </trkpt>
      <trkpt lat="44.58758" lon="5.6267">
        <ele>1669.48</ele>
        <time>2019-10-27T09:43:24Z</time>
      </trkpt>
      <trkpt lat="44.58745" lon="5.62667">
        <ele>1673.28</ele>
        <time>2019-10-27T09:43:41Z</time>
      </trkpt>
      <trkpt lat="44.5874" lon="5.6267">
        <ele>1675.19</ele>
        <time>2019-10-27T09:43:54Z</time>
      </trkpt>
      <trkpt lat="44.5874" lon="5.62671">
        <ele>1675.14</ele>
        <time>2019-10-27T09:44:15Z</time>
      </trkpt>
      <trkpt lat="44.5874" lon="5.6267">
        <ele>1675.37</ele>
        <time>2019-10-27T09:44:35Z</time>
      </trkpt>
      <trkpt lat="44.58741" lon="5.62671">
        <ele>1675.42</ele>
        <time>2019-10-27T09:44:55Z</time>
      </trkpt>
      <trkpt lat="44.58741" lon="5.62672">
        <ele>1674.81</ele>
        <time>2019-10-27T09:45:19Z</time>
      </trkpt>
      <trkpt lat="44.58741" lon="5.62671">
        <ele>1674.68</ele>
        <time>2019-10-27T09:45:42Z</time>
      </trkpt>
      <trkpt lat="44.58742" lon="5.62672">
        <ele>1674.74</ele>
        <time>2019-10-27T09:46:02Z</time>
      </trkpt>
      <trkpt lat="44.58744" lon="5.62671">
        <ele>1674.12</ele>
        <time>2019-10-27T09:46:22Z</time>
      </trkpt>
      <trkpt lat="44.58744" lon="5.6267">
        <ele>1674.01</ele>
        <time>2019-10-27T09:46:36Z</time>
      </trkpt>
      <trkpt lat="44.58742" lon="5.62669">
        <ele>1674.37</ele>
        <time>2019-10-27T09:46:55Z</time>
      </trkpt>
      <trkpt lat="44.58743" lon="5.6267">
        <ele>1674.47</ele>
        <time>2019-10-27T09:47:13Z</time>
      </trkpt>
      <trkpt lat="44.58739" lon="5.62669">
        <ele>1674.84</ele>
        <time>2019-10-27T09:47:30Z</time>
      </trkpt>
      <trkpt lat="44.58736" lon="5.6267">
        <ele>1676.65</ele>
        <time>2019-10-27T09:47:49Z</time>
      </trkpt>
      <trkpt lat="44.58718" lon="5.6266">
        <ele>1681.4</ele>
        <time>2019-10-27T09:48:06Z</time>
      </trkpt>
      <trkpt lat="44.58698" lon="5.62653">
        <ele>1685.37</ele>
        <time>2019-10-27T09:48:24Z</time>
      </trkpt>
      <trkpt lat="44.58678" lon="5.62647">
        <ele>1688.65</ele>
        <time>2019-10-27T09:48:42Z</time>
      </trkpt>
      <trkpt lat="44.58655" lon="5.62634">
        <ele>1690.43</ele>
        <time>2019-10-27T09:49:03Z</time>
      </trkpt>
      <trkpt lat="44.5864" lon="5.62621">
        <ele>1692.16</ele>
        <time>2019-10-27T09:49:19Z</time>
      </trkpt>
      <trkpt lat="44.58637" lon="5.62616">
        <ele>1691.9</ele>
        <time>2019-10-27T09:49:24Z</time>
      </trkpt>
      <trkpt lat="44.58632" lon="5.62614">
        <ele>1690.86</ele>
        <time>2019-10-27T09:49:37Z</time>
      </trkpt>
      <trkpt lat="44.5863" lon="5.62615">
        <ele>1690.03</ele>
        <time>2019-10-27T09:49:41Z</time>
      </trkpt>
      <trkpt lat="44.58624" lon="5.62605">
        <ele>1691.68</ele>
        <time>2019-10-27T09:49:54Z</time>
      </trkpt>
      <trkpt lat="44.58624" lon="5.62605">
        <ele>1691.62</ele>
        <time>2019-10-27T09:50:19Z</time>
      </trkpt>
      <trkpt lat="44.58624" lon="5.62604">
        <ele>1692.18</ele>
        <time>2019-10-27T09:50:44Z</time>
      </trkpt>
      <trkpt lat="44.5862" lon="5.62591">
        <ele>1691.34</ele>
        <time>2019-10-27T09:51:04Z</time>
      </trkpt>
      <trkpt lat="44.58609" lon="5.62562">
        <ele>1690.77</ele>
        <time>2019-10-27T09:51:23Z</time>
      </trkpt>
      <trkpt lat="44.58596" lon="5.62538">
        <ele>1690.61</ele>
        <time>2019-10-27T09:51:41Z</time>
      </trkpt>
      <trkpt lat="44.58586" lon="5.6251">
        <ele>1690.37</ele>
        <time>2019-10-27T09:51:59Z</time>
      </trkpt>
      <trkpt lat="44.58579" lon="5.62482">
        <ele>1690.56</ele>
        <time>2019-10-27T09:52:17Z</time>
      </trkpt>
      <trkpt lat="44.58575" lon="5.62447">
        <ele>1688.8</ele>
        <time>2019-10-27T09:52:38Z</time>
      </trkpt>
      <trkpt lat="44.5857" lon="5.62418">
        <ele>1687.73</ele>
        <time>2019-10-27T09:52:56Z</time>
      </trkpt>
      <trkpt lat="44.58569" lon="5.62408">
        <ele>1686.81</ele>
        <time>2019-10-27T09:53:12Z</time>
      </trkpt>
      <trkpt lat="44.58568" lon="5.62408">
        <ele>1686.65</ele>
        <time>2019-10-27T09:53:31Z</time>
      </trkpt>
      <trkpt lat="44.58567" lon="5.6241">
        <ele>1686.73</ele>
        <time>2019-10-27T09:53:54Z</time>
      </trkpt>
      <trkpt lat="44.58568" lon="5.62411">
        <ele>1686.83</ele>
        <time>2019-10-27T09:54:11Z</time>
      </trkpt>
      <trkpt lat="44.58568" lon="5.62411">
        <ele>1686.76</ele>
        <time>2019-10-27T09:54:17Z</time>
      </trkpt>
      <trkpt lat="44.5857" lon="5.62414">
        <ele>1687.26</ele>
        <time>2019-10-27T09:54:33Z</time>
      </trkpt>
      <trkpt lat="44.58569" lon="5.62408">
        <ele>1686.81</ele>
        <time>2019-10-27T09:54:53Z</time>
      </trkpt>
      <trkpt lat="44.58569" lon="5.62405">
        <ele>1686.59</ele>
        <time>2019-10-27T09:54:56Z</time>
      </trkpt>
      <trkpt lat="44.58565" lon="5.62385">
        <ele>1684.94</ele>
        <time>2019-10-27T09:55:09Z</time>
      </trkpt>
      <trkpt lat="44.58563" lon="5.62379">
        <ele>1683.32</ele>
        <time>2019-10-27T09:55:24Z</time>
      </trkpt>
      <trkpt lat="44.58564" lon="5.62375">
        <ele>1682.99</ele>
        <time>2019-10-27T09:55:27Z</time>
      </trkpt>
      <trkpt lat="44.58572" lon="5.62346">
        <ele>1679.88</ele>
        <time>2019-10-27T09:55:44Z</time>
      </trkpt>
      <trkpt lat="44.58571" lon="5.62344">
        <ele>1679.12</ele>
        <time>2019-10-27T09:55:59Z</time>
      </trkpt>
      <trkpt lat="44.58571" lon="5.62343">
        <ele>1678.93</ele>
        <time>2019-10-27T09:56:25Z</time>
      </trkpt>
      <trkpt lat="44.58571" lon="5.62344">
        <ele>1678.28</ele>
        <time>2019-10-27T09:56:59Z</time>
      </trkpt>
      <trkpt lat="44.58572" lon="5.62345">
        <ele>1678.62</ele>
        <time>2019-10-27T09:57:33Z</time>
      </trkpt>
      <trkpt lat="44.58571" lon="5.62342">
        <ele>1678.68</ele>
        <time>2019-10-27T09:57:56Z</time>
      </trkpt>
      <trkpt lat="44.58572" lon="5.6234">
        <ele>1678.24</ele>
        <time>2019-10-27T09:58:24Z</time>
      </trkpt>
      <trkpt lat="44.58572" lon="5.6233">
        <ele>1675.47</ele>
        <time>2019-10-27T09:58:47Z</time>
      </trkpt>
      <trkpt lat="44.58574" lon="5.62317">
        <ele>1672.07</ele>
        <time>2019-10-27T09:58:59Z</time>
      </trkpt>
      <trkpt lat="44.58579" lon="5.62295">
        <ele>1667.33</ele>
        <time>2019-10-27T09:59:15Z</time>
      </trkpt>
      <trkpt lat="44.5858" lon="5.62277">
        <ele>1662.78</ele>
        <time>2019-10-27T09:59:31Z</time>
      </trkpt>
      <trkpt lat="44.58581" lon="5.62259">
        <ele>1658.53</ele>
        <time>2019-10-27T09:59:45Z</time>
      </trkpt>
      <trkpt lat="44.58581" lon="5.62247">
        <ele>1656.01</ele>
        <time>2019-10-27T09:59:54Z</time>
      </trkpt>
      <trkpt lat="44.58578" lon="5.6223">
        <ele>1651.94</ele>
        <time>2019-10-27T10:00:11Z</time>
      </trkpt>
      <trkpt lat="44.58578" lon="5.62228">
        <ele>1651.58</ele>
        <time>2019-10-27T10:00:13Z</time>
      </trkpt>
      <trkpt lat="44.58574" lon="5.62216">
        <ele>1648.9</ele>
        <time>2019-10-27T10:00:30Z</time>
      </trkpt>
      <trkpt lat="44.58574" lon="5.62216">
        <ele>1648.23</ele>
        <time>2019-10-27T10:00:52Z</time>
      </trkpt>
      <trkpt lat="44.58571" lon="5.62202">
        <ele>1647.18</ele>
        <time>2019-10-27T10:01:08Z</time>
      </trkpt>
      <trkpt lat="44.5856" lon="5.62185">
        <ele>1645.28</ele>
        <time>2019-10-27T10:01:23Z</time>
      </trkpt>
      <trkpt lat="44.58545" lon="5.62171">
        <ele>1644.29</ele>
        <time>2019-10-27T10:01:40Z</time>
      </trkpt>
      <trkpt lat="44.58534" lon="5.62164">
        <ele>1643.13</ele>
        <time>2019-10-27T10:01:56Z</time>
      </trkpt>
      <trkpt lat="44.58522" lon="5.6216">
        <ele>1640.8</ele>
        <time>2019-10-27T10:02:13Z</time>
      </trkpt>
      <trkpt lat="44.58501" lon="5.62153">
        <ele>1638.8</ele>
        <time>2019-10-27T10:02:30Z</time>
      </trkpt>
      <trkpt lat="44.58484" lon="5.62147">
        <ele>1638.43</ele>
        <time>2019-10-27T10:02:46Z</time>
      </trkpt>
      <trkpt lat="44.5848" lon="5.62147">
        <ele>1638.11</ele>
        <time>2019-10-27T10:02:50Z</time>
      </trkpt>
      <trkpt lat="44.58463" lon="5.62138">
        <ele>1637.72</ele>
        <time>2019-10-27T10:03:06Z</time>
      </trkpt>
      <trkpt lat="44.58449" lon="5.62126">
        <ele>1636.8</ele>
        <time>2019-10-27T10:03:22Z</time>
      </trkpt>
      <trkpt lat="44.58447" lon="5.6212">
        <ele>1638.67</ele>
        <time>2019-10-27T10:03:33Z</time>
      </trkpt>
      <trkpt lat="44.58447" lon="5.62123">
        <ele>1639.34</ele>
        <time>2019-10-27T10:03:59Z</time>
      </trkpt>
      <trkpt lat="44.58444" lon="5.62122">
        <ele>1639.91</ele>
        <time>2019-10-27T10:04:22Z</time>
      </trkpt>
      <trkpt lat="44.58442" lon="5.62116">
        <ele>1640.34</ele>
        <time>2019-10-27T10:04:45Z</time>
      </trkpt>
      <trkpt lat="44.58441" lon="5.62114">
        <ele>1640.28</ele>
        <time>2019-10-27T10:04:46Z</time>
      </trkpt>
      <trkpt lat="44.58435" lon="5.62103">
        <ele>1640.93</ele>
        <time>2019-10-27T10:04:55Z</time>
      </trkpt>
      <trkpt lat="44.58431" lon="5.62095">
        <ele>1640.94</ele>
        <time>2019-10-27T10:05:01Z</time>
      </trkpt>
      <trkpt lat="44.58428" lon="5.62094">
        <ele>1640.9</ele>
        <time>2019-10-27T10:05:03Z</time>
      </trkpt>
      <trkpt lat="44.58425" lon="5.6209">
        <ele>1640.09</ele>
        <time>2019-10-27T10:05:07Z</time>
      </trkpt>
      <trkpt lat="44.58415" lon="5.62077">
        <ele>1638.17</ele>
        <time>2019-10-27T10:05:20Z</time>
      </trkpt>
      <trkpt lat="44.58411" lon="5.62069">
        <ele>1637.23</ele>
        <time>2019-10-27T10:05:27Z</time>
      </trkpt>
      <trkpt lat="44.58408" lon="5.62064">
        <ele>1636.82</ele>
        <time>2019-10-27T10:05:31Z</time>
      </trkpt>
      <trkpt lat="44.58406" lon="5.62054">
        <ele>1637.57</ele>
        <time>2019-10-27T10:05:47Z</time>
      </trkpt>
      <trkpt lat="44.58403" lon="5.6205">
        <ele>1637.13</ele>
        <time>2019-10-27T10:05:51Z</time>
      </trkpt>
      <trkpt lat="44.584" lon="5.62047">
        <ele>1635.99</ele>
        <time>2019-10-27T10:05:55Z</time>
      </trkpt>
      <trkpt lat="44.58393" lon="5.62042">
        <ele>1632.81</ele>
        <time>2019-10-27T10:06:09Z</time>
      </trkpt>
      <trkpt lat="44.58393" lon="5.62043">
        <ele>1631.43</ele>
        <time>2019-10-27T10:06:34Z</time>
      </trkpt>
      <trkpt lat="44.58393" lon="5.62044">
        <ele>1631.14</ele>
        <time>2019-10-27T10:07:00Z</time>
      </trkpt>
      <trkpt lat="44.58391" lon="5.62041">
        <ele>1631.24</ele>
        <time>2019-10-27T10:07:16Z</time>
      </trkpt>
      <trkpt lat="44.58385" lon="5.62025">
        <ele>1630.2</ele>
        <time>2019-10-27T10:07:28Z</time>
      </trkpt>
      <trkpt lat="44.58378" lon="5.62005">
        <ele>1627.54</ele>
        <time>2019-10-27T10:07:42Z</time>
      </trkpt>
      <trkpt lat="44.58376" lon="5.61978">
        <ele>1624.13</ele>
        <time>2019-10-27T10:07:58Z</time>
      </trkpt>
      <trkpt lat="44.58374" lon="5.61972">
        <ele>1623.04</ele>
        <time>2019-10-27T10:08:02Z</time>
      </trkpt>
      <trkpt lat="44.5837" lon="5.61973">
        <ele>1622.2</ele>
        <time>2019-10-27T10:08:06Z</time>
      </trkpt>
      <trkpt lat="44.58366" lon="5.61974">
        <ele>1621.03</ele>
        <time>2019-10-27T10:08:10Z</time>
      </trkpt>
      <trkpt lat="44.58365" lon="5.6197">
        <ele>1620.15</ele>
        <time>2019-10-27T10:08:13Z</time>
      </trkpt>
      <trkpt lat="44.58365" lon="5.61963">
        <ele>1618.34</ele>
        <time>2019-10-27T10:08:18Z</time>
      </trkpt>
      <trkpt lat="44.58372" lon="5.61939">
        <ele>1613.8</ele>
        <time>2019-10-27T10:08:34Z</time>
      </trkpt>
      <trkpt lat="44.58379" lon="5.61913">
        <ele>1611.94</ele>
        <time>2019-10-27T10:08:49Z</time>
      </trkpt>
      <trkpt lat="44.58382" lon="5.61885">
        <ele>1608.3</ele>
        <time>2019-10-27T10:09:04Z</time>
      </trkpt>
      <trkpt lat="44.58381" lon="5.6187">
        <ele>1606.54</ele>
        <time>2019-10-27T10:09:18Z</time>
      </trkpt>
      <trkpt lat="44.58378" lon="5.61865">
        <ele>1607.73</ele>
        <time>2019-10-27T10:09:48Z</time>
      </trkpt>
      <trkpt lat="44.58379" lon="5.61846">
        <ele>1605.8</ele>
        <time>2019-10-27T10:10:03Z</time>
      </trkpt>
      <trkpt lat="44.58375" lon="5.61828">
        <ele>1604.35</ele>
        <time>2019-10-27T10:10:15Z</time>
      </trkpt>
      <trkpt lat="44.58369" lon="5.61814">
        <ele>1602.22</ele>
        <time>2019-10-27T10:10:25Z</time>
      </trkpt>
      <trkpt lat="44.58366" lon="5.61807">
        <ele>1601.42</ele>
        <time>2019-10-27T10:10:30Z</time>
      </trkpt>
      <trkpt lat="44.58349" lon="5.61788">
        <ele>1600.92</ele>
        <time>2019-10-27T10:10:48Z</time>
      </trkpt>
      <trkpt lat="44.58344" lon="5.61783">
        <ele>1599.24</ele>
        <time>2019-10-27T10:11:03Z</time>
      </trkpt>
      <trkpt lat="44.58344" lon="5.61783">
        <ele>1598.88</ele>
        <time>2019-10-27T10:11:31Z</time>
      </trkpt>
      <trkpt lat="44.58344" lon="5.61783">
        <ele>1598.78</ele>
        <time>2019-10-27T10:12:06Z</time>
      </trkpt>
      <trkpt lat="44.58344" lon="5.61783">
        <ele>1598.68</ele>
        <time>2019-10-27T10:12:33Z</time>
      </trkpt>
      <trkpt lat="44.58343" lon="5.61782">
        <ele>1598.46</ele>
        <time>2019-10-27T10:12:54Z</time>
      </trkpt>
      <trkpt lat="44.58342" lon="5.61783">
        <ele>1599.04</ele>
        <time>2019-10-27T10:13:21Z</time>
      </trkpt>
      <trkpt lat="44.58343" lon="5.61782">
        <ele>1599.49</ele>
        <time>2019-10-27T10:13:39Z</time>
      </trkpt>
      <trkpt lat="44.58343" lon="5.61781">
        <ele>1599.36</ele>
        <time>2019-10-27T10:13:55Z</time>
      </trkpt>
      <trkpt lat="44.58341" lon="5.61782">
        <ele>1599.67</ele>
        <time>2019-10-27T10:14:10Z</time>
      </trkpt>
      <trkpt lat="44.58338" lon="5.61783">
        <ele>1599.02</ele>
        <time>2019-10-27T10:14:25Z</time>
      </trkpt>
      <trkpt lat="44.58332" lon="5.61781">
        <ele>1597.65</ele>
        <time>2019-10-27T10:14:31Z</time>
      </trkpt>
      <trkpt lat="44.58313" lon="5.61776">
        <ele>1592.17</ele>
        <time>2019-10-27T10:14:49Z</time>
      </trkpt>
      <trkpt lat="44.58309" lon="5.61776">
        <ele>1590.63</ele>
        <time>2019-10-27T10:14:53Z</time>
      </trkpt>
      <trkpt lat="44.58291" lon="5.6177">
        <ele>1584.86</ele>
        <time>2019-10-27T10:15:09Z</time>
      </trkpt>
      <trkpt lat="44.58271" lon="5.61765">
        <ele>1578.56</ele>
        <time>2019-10-27T10:15:29Z</time>
      </trkpt>
      <trkpt lat="44.58257" lon="5.61762">
        <ele>1574.06</ele>
        <time>2019-10-27T10:15:43Z</time>
      </trkpt>
      <trkpt lat="44.58234" lon="5.61755">
        <ele>1568.9</ele>
        <time>2019-10-27T10:16:02Z</time>
      </trkpt>
      <trkpt lat="44.58207" lon="5.61755">
        <ele>1564.77</ele>
        <time>2019-10-27T10:16:21Z</time>
      </trkpt>
      <trkpt lat="44.58186" lon="5.61756">
        <ele>1561.62</ele>
        <time>2019-10-27T10:16:37Z</time>
      </trkpt>
      <trkpt lat="44.58176" lon="5.61767">
        <ele>1557.43</ele>
        <time>2019-10-27T10:16:53Z</time>
      </trkpt>
      <trkpt lat="44.58176" lon="5.61769">
        <ele>1555.74</ele>
        <time>2019-10-27T10:17:12Z</time>
      </trkpt>
      <trkpt lat="44.58176" lon="5.6177">
        <ele>1555.99</ele>
        <time>2019-10-27T10:17:40Z</time>
      </trkpt>
      <trkpt lat="44.58172" lon="5.61769">
        <ele>1556.73</ele>
        <time>2019-10-27T10:17:58Z</time>
      </trkpt>
      <trkpt lat="44.58171" lon="5.61769">
        <ele>1557.05</ele>
        <time>2019-10-27T10:18:17Z</time>
      </trkpt>
      <trkpt lat="44.58172" lon="5.61771">
        <ele>1556.24</ele>
        <time>2019-10-27T10:18:46Z</time>
      </trkpt>
      <trkpt lat="44.58172" lon="5.61769">
        <ele>1554.83</ele>
        <time>2019-10-27T10:19:13Z</time>
      </trkpt>
      <trkpt lat="44.5817" lon="5.61768">
        <ele>1553.56</ele>
        <time>2019-10-27T10:19:44Z</time>
      </trkpt>
      <trkpt lat="44.58171" lon="5.6177">
        <ele>1554.63</ele>
        <time>2019-10-27T10:20:09Z</time>
      </trkpt>
      <trkpt lat="44.58173" lon="5.61771">
        <ele>1554.94</ele>
        <time>2019-10-27T10:20:26Z</time>
      </trkpt>
      <trkpt lat="44.58173" lon="5.61767">
        <ele>1556.25</ele>
        <time>2019-10-27T10:20:47Z</time>
      </trkpt>
      <trkpt lat="44.58169" lon="5.61764">
        <ele>1555.95</ele>
        <time>2019-10-27T10:21:03Z</time>
      </trkpt>
      <trkpt lat="44.58169" lon="5.61767">
        <ele>1556.49</ele>
        <time>2019-10-27T10:21:19Z</time>
      </trkpt>
      <trkpt lat="44.5817" lon="5.61767">
        <ele>1555.59</ele>
        <time>2019-10-27T10:21:35Z</time>
      </trkpt>
      <trkpt lat="44.58169" lon="5.6177">
        <ele>1554.54</ele>
        <time>2019-10-27T10:21:51Z</time>
      </trkpt>
      <trkpt lat="44.58168" lon="5.61768">
        <ele>1553.57</ele>
        <time>2019-10-27T10:22:17Z</time>
      </trkpt>
      <trkpt lat="44.58163" lon="5.61768">
        <ele>1553.33</ele>
        <time>2019-10-27T10:22:29Z</time>
      </trkpt>
      <trkpt lat="44.5814" lon="5.61767">
        <ele>1553.25</ele>
        <time>2019-10-27T10:22:49Z</time>
      </trkpt>
      <trkpt lat="44.58134" lon="5.61768">
        <ele>1553</ele>
        <time>2019-10-27T10:22:54Z</time>
      </trkpt>
      <trkpt lat="44.58115" lon="5.61774">
        <ele>1550.92</ele>
        <time>2019-10-27T10:23:10Z</time>
      </trkpt>
      <trkpt lat="44.58105" lon="5.61787">
        <ele>1548.72</ele>
        <time>2019-10-27T10:23:27Z</time>
      </trkpt>
      <trkpt lat="44.58103" lon="5.61796">
        <ele>1548.11</ele>
        <time>2019-10-27T10:23:49Z</time>
      </trkpt>
      <trkpt lat="44.58097" lon="5.61811">
        <ele>1546.55</ele>
        <time>2019-10-27T10:24:06Z</time>
      </trkpt>
      <trkpt lat="44.58094" lon="5.61815">
        <ele>1545.72</ele>
        <time>2019-10-27T10:24:10Z</time>
      </trkpt>
      <trkpt lat="44.58086" lon="5.61826">
        <ele>1543.53</ele>
        <time>2019-10-27T10:24:22Z</time>
      </trkpt>
      <trkpt lat="44.58074" lon="5.61839">
        <ele>1542.37</ele>
        <time>2019-10-27T10:24:37Z</time>
      </trkpt>
      <trkpt lat="44.58065" lon="5.61857">
        <ele>1540.86</ele>
        <time>2019-10-27T10:24:55Z</time>
      </trkpt>
      <trkpt lat="44.5806" lon="5.61873">
        <ele>1539.06</ele>
        <time>2019-10-27T10:25:08Z</time>
      </trkpt>
      <trkpt lat="44.58059" lon="5.61878">
        <ele>1538.64</ele>
        <time>2019-10-27T10:25:11Z</time>
      </trkpt>
      <trkpt lat="44.58048" lon="5.61899">
        <ele>1534.75</ele>
        <time>2019-10-27T10:25:26Z</time>
      </trkpt>
      <trkpt lat="44.5804" lon="5.61906">
        <ele>1533.01</ele>
        <time>2019-10-27T10:25:34Z</time>
      </trkpt>
      <trkpt lat="44.58038" lon="5.61905">
        <ele>1532.59</ele>
        <time>2019-10-27T10:25:37Z</time>
      </trkpt>
      <trkpt lat="44.58022" lon="5.61899">
        <ele>1533.1</ele>
        <time>2019-10-27T10:25:54Z</time>
      </trkpt>
      <trkpt lat="44.58008" lon="5.61891">
        <ele>1533.26</ele>
        <time>2019-10-27T10:26:09Z</time>
      </trkpt>
      <trkpt lat="44.5799" lon="5.61883">
        <ele>1534.66</ele>
        <time>2019-10-27T10:26:27Z</time>
      </trkpt>
      <trkpt lat="44.5797" lon="5.61877">
        <ele>1535.87</ele>
        <time>2019-10-27T10:26:46Z</time>
      </trkpt>
      <trkpt lat="44.57948" lon="5.61872">
        <ele>1538.74</ele>
        <time>2019-10-27T10:27:07Z</time>
      </trkpt>
      <trkpt lat="44.57928" lon="5.61864">
        <ele>1539.3</ele>
        <time>2019-10-27T10:27:25Z</time>
      </trkpt>
      <trkpt lat="44.57919" lon="5.61856">
        <ele>1540.52</ele>
        <time>2019-10-27T10:27:40Z</time>
      </trkpt>
      <trkpt lat="44.57903" lon="5.6185">
        <ele>1539.87</ele>
        <time>2019-10-27T10:27:59Z</time>
      </trkpt>
      <trkpt lat="44.57901" lon="5.61849">
        <ele>1539.66</ele>
        <time>2019-10-27T10:28:01Z</time>
      </trkpt>
      <trkpt lat="44.57884" lon="5.61846">
        <ele>1537.94</ele>
        <time>2019-10-27T10:28:16Z</time>
      </trkpt>
      <trkpt lat="44.57881" lon="5.61844">
        <ele>1537.26</ele>
        <time>2019-10-27T10:28:21Z</time>
      </trkpt>
      <trkpt lat="44.57864" lon="5.61833">
        <ele>1535.28</ele>
        <time>2019-10-27T10:28:38Z</time>
      </trkpt>
      <trkpt lat="44.57856" lon="5.61824">
        <ele>1533.76</ele>
        <time>2019-10-27T10:28:51Z</time>
      </trkpt>
      <trkpt lat="44.5784" lon="5.61812">
        <ele>1532.48</ele>
        <time>2019-10-27T10:29:07Z</time>
      </trkpt>
      <trkpt lat="44.57821" lon="5.61799">
        <ele>1531.6</ele>
        <time>2019-10-27T10:29:24Z</time>
      </trkpt>
      <trkpt lat="44.57806" lon="5.61787">
        <ele>1531.85</ele>
        <time>2019-10-27T10:29:39Z</time>
      </trkpt>
      <trkpt lat="44.57788" lon="5.61776">
        <ele>1533.84</ele>
        <time>2019-10-27T10:29:57Z</time>
      </trkpt>
      <trkpt lat="44.57769" lon="5.61769">
        <ele>1534.26</ele>
        <time>2019-10-27T10:30:14Z</time>
      </trkpt>
      <trkpt lat="44.57748" lon="5.61761">
        <ele>1533.01</ele>
        <time>2019-10-27T10:30:32Z</time>
      </trkpt>
      <trkpt lat="44.57732" lon="5.61755">
        <ele>1530.17</ele>
        <time>2019-10-27T10:30:48Z</time>
      </trkpt>
      <trkpt lat="44.57721" lon="5.61749">
        <ele>1528.58</ele>
        <time>2019-10-27T10:30:57Z</time>
      </trkpt>
      <trkpt lat="44.57701" lon="5.61741">
        <ele>1524.4</ele>
        <time>2019-10-27T10:31:14Z</time>
      </trkpt>
      <trkpt lat="44.5768" lon="5.61738">
        <ele>1519.55</ele>
        <time>2019-10-27T10:31:33Z</time>
      </trkpt>
      <trkpt lat="44.57657" lon="5.61734">
        <ele>1516.07</ele>
        <time>2019-10-27T10:31:51Z</time>
      </trkpt>
      <trkpt lat="44.57637" lon="5.61731">
        <ele>1512.84</ele>
        <time>2019-10-27T10:32:09Z</time>
      </trkpt>
      <trkpt lat="44.57617" lon="5.61724">
        <ele>1511.57</ele>
        <time>2019-10-27T10:32:27Z</time>
      </trkpt>
      <trkpt lat="44.576" lon="5.61721">
        <ele>1510.58</ele>
        <time>2019-10-27T10:32:47Z</time>
      </trkpt>
      <trkpt lat="44.5758" lon="5.61715">
        <ele>1508.2</ele>
        <time>2019-10-27T10:33:04Z</time>
      </trkpt>
      <trkpt lat="44.57567" lon="5.61704">
        <ele>1507.53</ele>
        <time>2019-10-27T10:33:19Z</time>
      </trkpt>
      <trkpt lat="44.57554" lon="5.61694">
        <ele>1506.37</ele>
        <time>2019-10-27T10:33:35Z</time>
      </trkpt>
      <trkpt lat="44.57548" lon="5.61688">
        <ele>1506.27</ele>
        <time>2019-10-27T10:33:42Z</time>
      </trkpt>
      <trkpt lat="44.57537" lon="5.61681">
        <ele>1504</ele>
        <time>2019-10-27T10:33:59Z</time>
      </trkpt>
      <trkpt lat="44.57527" lon="5.61672">
        <ele>1503.46</ele>
        <time>2019-10-27T10:34:11Z</time>
      </trkpt>
      <trkpt lat="44.57519" lon="5.61662">
        <ele>1503.88</ele>
        <time>2019-10-27T10:34:20Z</time>
      </trkpt>
      <trkpt lat="44.57509" lon="5.61648">
        <ele>1504.41</ele>
        <time>2019-10-27T10:34:35Z</time>
      </trkpt>
      <trkpt lat="44.57507" lon="5.61649">
        <ele>1504.42</ele>
        <time>2019-10-27T10:34:37Z</time>
      </trkpt>
      <trkpt lat="44.57488" lon="5.61664">
        <ele>1505.73</ele>
        <time>2019-10-27T10:34:53Z</time>
      </trkpt>
      <trkpt lat="44.57489" lon="5.61675">
        <ele>1504.93</ele>
        <time>2019-10-27T10:35:01Z</time>
      </trkpt>
      <trkpt lat="44.57485" lon="5.61688">
        <ele>1501.24</ele>
        <time>2019-10-27T10:35:16Z</time>
      </trkpt>
      <trkpt lat="44.57476" lon="5.6168">
        <ele>1495.37</ele>
        <time>2019-10-27T10:35:37Z</time>
      </trkpt>
      <trkpt lat="44.57472" lon="5.61676">
        <ele>1494.46</ele>
        <time>2019-10-27T10:35:44Z</time>
      </trkpt>
      <trkpt lat="44.5746" lon="5.61663">
        <ele>1493.09</ele>
        <time>2019-10-27T10:36:00Z</time>
      </trkpt>
      <trkpt lat="44.5745" lon="5.6165">
        <ele>1494.16</ele>
        <time>2019-10-27T10:36:16Z</time>
      </trkpt>
      <trkpt lat="44.57443" lon="5.6164">
        <ele>1494.37</ele>
        <time>2019-10-27T10:36:37Z</time>
      </trkpt>
      <trkpt lat="44.57422" lon="5.61617">
        <ele>1490.87</ele>
        <time>2019-10-27T10:36:59Z</time>
      </trkpt>
      <trkpt lat="44.57414" lon="5.61609">
        <ele>1489.21</ele>
        <time>2019-10-27T10:37:07Z</time>
      </trkpt>
      <trkpt lat="44.57402" lon="5.61595">
        <ele>1489.76</ele>
        <time>2019-10-27T10:37:23Z</time>
      </trkpt>
      <trkpt lat="44.57395" lon="5.61591">
        <ele>1485.56</ele>
        <time>2019-10-27T10:37:43Z</time>
      </trkpt>
      <trkpt lat="44.57388" lon="5.61592">
        <ele>1484.34</ele>
        <time>2019-10-27T10:37:56Z</time>
      </trkpt>
      <trkpt lat="44.57368" lon="5.61599">
        <ele>1479.31</ele>
        <time>2019-10-27T10:38:11Z</time>
      </trkpt>
      <trkpt lat="44.57348" lon="5.61604">
        <ele>1473.76</ele>
        <time>2019-10-27T10:38:27Z</time>
      </trkpt>
      <trkpt lat="44.57325" lon="5.6161">
        <ele>1472.53</ele>
        <time>2019-10-27T10:38:42Z</time>
      </trkpt>
      <trkpt lat="44.57306" lon="5.61613">
        <ele>1472.06</ele>
        <time>2019-10-27T10:38:58Z</time>
      </trkpt>
      <trkpt lat="44.57288" lon="5.61626">
        <ele>1471.11</ele>
        <time>2019-10-27T10:39:18Z</time>
      </trkpt>
      <trkpt lat="44.57287" lon="5.61627">
        <ele>1471.01</ele>
        <time>2019-10-27T10:39:19Z</time>
      </trkpt>
      <trkpt lat="44.57283" lon="5.61632">
        <ele>1470.22</ele>
        <time>2019-10-27T10:39:23Z</time>
      </trkpt>
      <trkpt lat="44.57274" lon="5.61641">
        <ele>1466.75</ele>
        <time>2019-10-27T10:39:39Z</time>
      </trkpt>
      <trkpt lat="44.57274" lon="5.61645">
        <ele>1465.56</ele>
        <time>2019-10-27T10:40:06Z</time>
      </trkpt>
      <trkpt lat="44.57269" lon="5.61645">
        <ele>1463.37</ele>
        <time>2019-10-27T10:40:33Z</time>
      </trkpt>
      <trkpt lat="44.57264" lon="5.61646">
        <ele>1462.56</ele>
        <time>2019-10-27T10:40:54Z</time>
      </trkpt>
      <trkpt lat="44.57264" lon="5.61645">
        <ele>1461.67</ele>
        <time>2019-10-27T10:41:18Z</time>
      </trkpt>
      <trkpt lat="44.57265" lon="5.61644">
        <ele>1460.3</ele>
        <time>2019-10-27T10:41:52Z</time>
      </trkpt>
      <trkpt lat="44.57263" lon="5.61646">
        <ele>1459.66</ele>
        <time>2019-10-27T10:42:04Z</time>
      </trkpt>
      <trkpt lat="44.5725" lon="5.61655">
        <ele>1458.78</ele>
        <time>2019-10-27T10:42:19Z</time>
      </trkpt>
      <trkpt lat="44.57244" lon="5.61666">
        <ele>1459.53</ele>
        <time>2019-10-27T10:42:30Z</time>
      </trkpt>
      <trkpt lat="44.57234" lon="5.61684">
        <ele>1459.66</ele>
        <time>2019-10-27T10:42:45Z</time>
      </trkpt>
      <trkpt lat="44.57218" lon="5.61706">
        <ele>1457.49</ele>
        <time>2019-10-27T10:43:02Z</time>
      </trkpt>
      <trkpt lat="44.57208" lon="5.61724">
        <ele>1456.01</ele>
        <time>2019-10-27T10:43:17Z</time>
      </trkpt>
      <trkpt lat="44.57216" lon="5.61734">
        <ele>1454.56</ele>
        <time>2019-10-27T10:43:31Z</time>
      </trkpt>
      <trkpt lat="44.57219" lon="5.61736">
        <ele>1454.21</ele>
        <time>2019-10-27T10:43:34Z</time>
      </trkpt>
      <trkpt lat="44.57238" lon="5.61739">
        <ele>1453.04</ele>
        <time>2019-10-27T10:43:51Z</time>
      </trkpt>
      <trkpt lat="44.57255" lon="5.61735">
        <ele>1451.17</ele>
        <time>2019-10-27T10:44:10Z</time>
      </trkpt>
      <trkpt lat="44.5726" lon="5.61728">
        <ele>1449.89</ele>
        <time>2019-10-27T10:44:21Z</time>
      </trkpt>
      <trkpt lat="44.57255" lon="5.61733">
        <ele>1448.29</ele>
        <time>2019-10-27T10:44:28Z</time>
      </trkpt>
      <trkpt lat="44.57251" lon="5.61738">
        <ele>1446.49</ele>
        <time>2019-10-27T10:44:34Z</time>
      </trkpt>
      <trkpt lat="44.57246" lon="5.61741">
        <ele>1445.36</ele>
        <time>2019-10-27T10:44:38Z</time>
      </trkpt>
      <trkpt lat="44.57235" lon="5.61757">
        <ele>1442.19</ele>
        <time>2019-10-27T10:44:53Z</time>
      </trkpt>
      <trkpt lat="44.57231" lon="5.61763">
        <ele>1441.6</ele>
        <time>2019-10-27T10:44:57Z</time>
      </trkpt>
      <trkpt lat="44.57222" lon="5.61776">
        <ele>1438.46</ele>
        <time>2019-10-27T10:45:08Z</time>
      </trkpt>
      <trkpt lat="44.57211" lon="5.61792">
        <ele>1434.93</ele>
        <time>2019-10-27T10:45:23Z</time>
      </trkpt>
      <trkpt lat="44.57196" lon="5.61807">
        <ele>1434.44</ele>
        <time>2019-10-27T10:45:40Z</time>
      </trkpt>
      <trkpt lat="44.57194" lon="5.61809">
        <ele>1434.58</ele>
        <time>2019-10-27T10:45:42Z</time>
      </trkpt>
      <trkpt lat="44.57186" lon="5.61831">
        <ele>1433.02</ele>
        <time>2019-10-27T10:45:57Z</time>
      </trkpt>
      <trkpt lat="44.57183" lon="5.61836">
        <ele>1433.1</ele>
        <time>2019-10-27T10:46:01Z</time>
      </trkpt>
      <trkpt lat="44.5717" lon="5.61843">
        <ele>1429.16</ele>
        <time>2019-10-27T10:46:17Z</time>
      </trkpt>
      <trkpt lat="44.57152" lon="5.61837">
        <ele>1426.01</ele>
        <time>2019-10-27T10:46:34Z</time>
      </trkpt>
      <trkpt lat="44.57138" lon="5.61828">
        <ele>1425.21</ele>
        <time>2019-10-27T10:46:47Z</time>
      </trkpt>
      <trkpt lat="44.57123" lon="5.61823">
        <ele>1425.81</ele>
        <time>2019-10-27T10:47:01Z</time>
      </trkpt>
      <trkpt lat="44.57109" lon="5.61815">
        <ele>1428.3</ele>
        <time>2019-10-27T10:47:15Z</time>
      </trkpt>
      <trkpt lat="44.57091" lon="5.61802">
        <ele>1429.74</ele>
        <time>2019-10-27T10:47:34Z</time>
      </trkpt>
      <trkpt lat="44.57079" lon="5.61802">
        <ele>1426.78</ele>
        <time>2019-10-27T10:47:55Z</time>
      </trkpt>
      <trkpt lat="44.57076" lon="5.61798">
        <ele>1426.18</ele>
        <time>2019-10-27T10:48:17Z</time>
      </trkpt>
      <trkpt lat="44.57074" lon="5.61799">
        <ele>1425.5</ele>
        <time>2019-10-27T10:48:41Z</time>
      </trkpt>
      <trkpt lat="44.57071" lon="5.61804">
        <ele>1425.99</ele>
        <time>2019-10-27T10:49:12Z</time>
      </trkpt>
      <trkpt lat="44.57067" lon="5.61802">
        <ele>1425.72</ele>
        <time>2019-10-27T10:49:34Z</time>
      </trkpt>
      <trkpt lat="44.57055" lon="5.61775">
        <ele>1428.59</ele>
        <time>2019-10-27T10:49:53Z</time>
      </trkpt>
      <trkpt lat="44.57035" lon="5.6176">
        <ele>1431.38</ele>
        <time>2019-10-27T10:50:12Z</time>
      </trkpt>
      <trkpt lat="44.5703" lon="5.6175">
        <ele>1432.48</ele>
        <time>2019-10-27T10:50:26Z</time>
      </trkpt>
      <trkpt lat="44.57028" lon="5.61748">
        <ele>1432.13</ele>
        <time>2019-10-27T10:50:30Z</time>
      </trkpt>
      <trkpt lat="44.57014" lon="5.61727">
        <ele>1433.97</ele>
        <time>2019-10-27T10:50:47Z</time>
      </trkpt>
      <trkpt lat="44.57015" lon="5.61721">
        <ele>1434.84</ele>
        <time>2019-10-27T10:50:54Z</time>
      </trkpt>
      <trkpt lat="44.57015" lon="5.61712">
        <ele>1435.97</ele>
        <time>2019-10-27T10:51:01Z</time>
      </trkpt>
      <trkpt lat="44.57014" lon="5.61711">
        <ele>1436.31</ele>
        <time>2019-10-27T10:51:03Z</time>
      </trkpt>
      <trkpt lat="44.57007" lon="5.61709">
        <ele>1437.7</ele>
        <time>2019-10-27T10:51:10Z</time>
      </trkpt>
      <trkpt lat="44.56995" lon="5.61716">
        <ele>1437.46</ele>
        <time>2019-10-27T10:51:24Z</time>
      </trkpt>
      <trkpt lat="44.56985" lon="5.61722">
        <ele>1437.28</ele>
        <time>2019-10-27T10:51:32Z</time>
      </trkpt>
      <trkpt lat="44.56966" lon="5.61736">
        <ele>1437.95</ele>
        <time>2019-10-27T10:51:46Z</time>
      </trkpt>
      <trkpt lat="44.56962" lon="5.6174">
        <ele>1438.96</ele>
        <time>2019-10-27T10:51:50Z</time>
      </trkpt>
      <trkpt lat="44.56957" lon="5.61746">
        <ele>1439.68</ele>
        <time>2019-10-27T10:51:55Z</time>
      </trkpt>
      <trkpt lat="44.56945" lon="5.61767">
        <ele>1442.01</ele>
        <time>2019-10-27T10:52:11Z</time>
      </trkpt>
      <trkpt lat="44.56942" lon="5.61776">
        <ele>1442.74</ele>
        <time>2019-10-27T10:52:17Z</time>
      </trkpt>
      <trkpt lat="44.56944" lon="5.61796">
        <ele>1444.37</ele>
        <time>2019-10-27T10:52:32Z</time>
      </trkpt>
      <trkpt lat="44.56941" lon="5.6182">
        <ele>1445.24</ele>
        <time>2019-10-27T10:52:48Z</time>
      </trkpt>
      <trkpt lat="44.5694" lon="5.61823">
        <ele>1445.52</ele>
        <time>2019-10-27T10:52:50Z</time>
      </trkpt>
      <trkpt lat="44.56941" lon="5.61861">
        <ele>1449.42</ele>
        <time>2019-10-27T10:53:10Z</time>
      </trkpt>
      <trkpt lat="44.56942" lon="5.61873">
        <ele>1450.96</ele>
        <time>2019-10-27T10:53:17Z</time>
      </trkpt>
      <trkpt lat="44.56946" lon="5.61897">
        <ele>1452.49</ele>
        <time>2019-10-27T10:53:29Z</time>
      </trkpt>
      <trkpt lat="44.56946" lon="5.61898">
        <ele>1452.84</ele>
        <time>2019-10-27T10:53:30Z</time>
      </trkpt>
      <trkpt lat="44.56944" lon="5.61901">
        <ele>1453.38</ele>
        <time>2019-10-27T10:53:32Z</time>
      </trkpt>
      <trkpt lat="44.56943" lon="5.61904">
        <ele>1453.53</ele>
        <time>2019-10-27T10:53:34Z</time>
      </trkpt>
      <trkpt lat="44.56936" lon="5.61922">
        <ele>1457.31</ele>
        <time>2019-10-27T10:53:51Z</time>
      </trkpt>
      <trkpt lat="44.56928" lon="5.61952">
        <ele>1459.44</ele>
        <time>2019-10-27T10:54:07Z</time>
      </trkpt>
      <trkpt lat="44.56924" lon="5.61977">
        <ele>1457.57</ele>
        <time>2019-10-27T10:54:20Z</time>
      </trkpt>
      <trkpt lat="44.56911" lon="5.61991">
        <ele>1455.37</ele>
        <time>2019-10-27T10:54:36Z</time>
      </trkpt>
      <trkpt lat="44.56911" lon="5.62001">
        <ele>1449.17</ele>
        <time>2019-10-27T10:54:51Z</time>
      </trkpt>
      <trkpt lat="44.56914" lon="5.62007">
        <ele>1445.41</ele>
        <time>2019-10-27T10:55:11Z</time>
      </trkpt>
      <trkpt lat="44.56913" lon="5.62004">
        <ele>1442.84</ele>
        <time>2019-10-27T10:55:32Z</time>
      </trkpt>
      <trkpt lat="44.56913" lon="5.61996">
        <ele>1440.09</ele>
        <time>2019-10-27T10:55:52Z</time>
      </trkpt>
      <trkpt lat="44.56917" lon="5.61991">
        <ele>1439.42</ele>
        <time>2019-10-27T10:56:11Z</time>
      </trkpt>
      <trkpt lat="44.56916" lon="5.61991">
        <ele>1439.32</ele>
        <time>2019-10-27T10:56:28Z</time>
      </trkpt>
      <trkpt lat="44.56916" lon="5.61992">
        <ele>1439.04</ele>
        <time>2019-10-27T10:56:47Z</time>
      </trkpt>
      <trkpt lat="44.56914" lon="5.61991">
        <ele>1438.27</ele>
        <time>2019-10-27T10:57:05Z</time>
      </trkpt>
      <trkpt lat="44.56914" lon="5.61988">
        <ele>1433.45</ele>
        <time>2019-10-27T10:57:30Z</time>
      </trkpt>
      <trkpt lat="44.56914" lon="5.61991">
        <ele>1433.75</ele>
        <time>2019-10-27T10:57:53Z</time>
      </trkpt>
      <trkpt lat="44.56915" lon="5.61987">
        <ele>1434.17</ele>
        <time>2019-10-27T10:58:14Z</time>
      </trkpt>
      <trkpt lat="44.56912" lon="5.61984">
        <ele>1434.53</ele>
        <time>2019-10-27T10:58:41Z</time>
      </trkpt>
      <trkpt lat="44.56914" lon="5.61983">
        <ele>1435.17</ele>
        <time>2019-10-27T10:59:00Z</time>
      </trkpt>
      <trkpt lat="44.56913" lon="5.61982">
        <ele>1436.13</ele>
        <time>2019-10-27T10:59:24Z</time>
      </trkpt>
      <trkpt lat="44.5691" lon="5.61979">
        <ele>1436.83</ele>
        <time>2019-10-27T10:59:40Z</time>
      </trkpt>
      <trkpt lat="44.56906" lon="5.61975">
        <ele>1435.94</ele>
        <time>2019-10-27T10:59:59Z</time>
      </trkpt>
      <trkpt lat="44.56908" lon="5.61975">
        <ele>1434.14</ele>
        <time>2019-10-27T11:00:33Z</time>
      </trkpt>
      <trkpt lat="44.5691" lon="5.61973">
        <ele>1433.32</ele>
        <time>2019-10-27T11:00:59Z</time>
      </trkpt>
      <trkpt lat="44.5691" lon="5.61974">
        <ele>1434.26</ele>
        <time>2019-10-27T11:01:32Z</time>
      </trkpt>
      <trkpt lat="44.5691" lon="5.61976">
        <ele>1435.12</ele>
        <time>2019-10-27T11:01:56Z</time>
      </trkpt>
      <trkpt lat="44.56911" lon="5.61973">
        <ele>1437.38</ele>
        <time>2019-10-27T11:02:23Z</time>
      </trkpt>
      <trkpt lat="44.56906" lon="5.61969">
        <ele>1437.73</ele>
        <time>2019-10-27T11:02:46Z</time>
      </trkpt>
      <trkpt lat="44.56901" lon="5.61964">
        <ele>1437.5</ele>
        <time>2019-10-27T11:03:06Z</time>
      </trkpt>
      <trkpt lat="44.56902" lon="5.61957">
        <ele>1438.53</ele>
        <time>2019-10-27T11:03:24Z</time>
      </trkpt>
      <trkpt lat="44.569" lon="5.6195">
        <ele>1439.13</ele>
        <time>2019-10-27T11:03:47Z</time>
      </trkpt>
      <trkpt lat="44.56898" lon="5.61944">
        <ele>1441.22</ele>
        <time>2019-10-27T11:04:14Z</time>
      </trkpt>
      <trkpt lat="44.569" lon="5.61941">
        <ele>1442.72</ele>
        <time>2019-10-27T11:04:39Z</time>
      </trkpt>
      <trkpt lat="44.56898" lon="5.61941">
        <ele>1444.33</ele>
        <time>2019-10-27T11:05:06Z</time>
      </trkpt>
      <trkpt lat="44.56895" lon="5.61941">
        <ele>1444.2</ele>
        <time>2019-10-27T11:05:31Z</time>
      </trkpt>
      <trkpt lat="44.56898" lon="5.61937">
        <ele>1444.33</ele>
        <time>2019-10-27T11:05:59Z</time>
      </trkpt>
      <trkpt lat="44.56903" lon="5.61939">
        <ele>1445.28</ele>
        <time>2019-10-27T11:06:31Z</time>
      </trkpt>
      <trkpt lat="44.56901" lon="5.61942">
        <ele>1442.95</ele>
        <time>2019-10-27T11:07:00Z</time>
      </trkpt>
      <trkpt lat="44.569" lon="5.61941">
        <ele>1443.61</ele>
        <time>2019-10-27T11:07:30Z</time>
      </trkpt>
      <trkpt lat="44.56898" lon="5.6194">
        <ele>1443.35</ele>
        <time>2019-10-27T11:08:02Z</time>
      </trkpt>
      <trkpt lat="44.569" lon="5.61941">
        <ele>1443.3</ele>
        <time>2019-10-27T11:08:27Z</time>
      </trkpt>
      <trkpt lat="44.56899" lon="5.61939">
        <ele>1443.8</ele>
        <time>2019-10-27T11:08:56Z</time>
      </trkpt>
      <trkpt lat="44.56896" lon="5.6194">
        <ele>1443.09</ele>
        <time>2019-10-27T11:09:19Z</time>
      </trkpt>
      <trkpt lat="44.56897" lon="5.61942">
        <ele>1442.54</ele>
        <time>2019-10-27T11:09:46Z</time>
      </trkpt>
      <trkpt lat="44.56894" lon="5.61935">
        <ele>1441.25</ele>
        <time>2019-10-27T11:10:11Z</time>
      </trkpt>
      <trkpt lat="44.56888" lon="5.61933">
        <ele>1444.23</ele>
        <time>2019-10-27T11:10:43Z</time>
      </trkpt>
      <trkpt lat="44.56887" lon="5.61937">
        <ele>1445.32</ele>
        <time>2019-10-27T11:11:03Z</time>
      </trkpt>
      <trkpt lat="44.56888" lon="5.61937">
        <ele>1442.89</ele>
        <time>2019-10-27T11:11:31Z</time>
      </trkpt>
      <trkpt lat="44.56886" lon="5.61938">
        <ele>1442.56</ele>
        <time>2019-10-27T11:12:03Z</time>
      </trkpt>
      <trkpt lat="44.56888" lon="5.61939">
        <ele>1442.19</ele>
        <time>2019-10-27T11:12:34Z</time>
      </trkpt>
      <trkpt lat="44.56889" lon="5.61944">
        <ele>1441.46</ele>
        <time>2019-10-27T11:13:03Z</time>
      </trkpt>
      <trkpt lat="44.56889" lon="5.61945">
        <ele>1442.37</ele>
        <time>2019-10-27T11:13:31Z</time>
      </trkpt>
      <trkpt lat="44.56893" lon="5.61942">
        <ele>1442.84</ele>
        <time>2019-10-27T11:14:05Z</time>
      </trkpt>
      <trkpt lat="44.56889" lon="5.61944">
        <ele>1442.5</ele>
        <time>2019-10-27T11:14:30Z</time>
      </trkpt>
      <trkpt lat="44.56889" lon="5.61947">
        <ele>1442.38</ele>
        <time>2019-10-27T11:14:46Z</time>
      </trkpt>
      <trkpt lat="44.56898" lon="5.61951">
        <ele>1442.23</ele>
        <time>2019-10-27T11:15:04Z</time>
      </trkpt>
      <trkpt lat="44.569" lon="5.61966">
        <ele>1441.3</ele>
        <time>2019-10-27T11:15:21Z</time>
      </trkpt>
      <trkpt lat="44.56902" lon="5.61972">
        <ele>1441.02</ele>
        <time>2019-10-27T11:15:25Z</time>
      </trkpt>
      <trkpt lat="44.56903" lon="5.61981">
        <ele>1440.93</ele>
        <time>2019-10-27T11:15:32Z</time>
      </trkpt>
      <trkpt lat="44.5691" lon="5.61992">
        <ele>1441.76</ele>
        <time>2019-10-27T11:15:48Z</time>
      </trkpt>
      <trkpt lat="44.56912" lon="5.61995">
        <ele>1440.99</ele>
        <time>2019-10-27T11:16:09Z</time>
      </trkpt>
      <trkpt lat="44.56911" lon="5.61994">
        <ele>1440.62</ele>
        <time>2019-10-27T11:16:31Z</time>
      </trkpt>
      <trkpt lat="44.56913" lon="5.61989">
        <ele>1438.2</ele>
        <time>2019-10-27T11:16:50Z</time>
      </trkpt>
      <trkpt lat="44.56911" lon="5.61991">
        <ele>1436.08</ele>
        <time>2019-10-27T11:17:42Z</time>
      </trkpt>
      <trkpt lat="44.5691" lon="5.61991">
        <ele>1436.76</ele>
        <time>2019-10-27T11:18:36Z</time>
      </trkpt>
      <trkpt lat="44.5691" lon="5.61992">
        <ele>1436.87</ele>
        <time>2019-10-27T11:19:25Z</time>
      </trkpt>
      <trkpt lat="44.5691" lon="5.6199">
        <ele>1436.22</ele>
        <time>2019-10-27T11:19:56Z</time>
      </trkpt>
      <trkpt lat="44.56913" lon="5.61989">
        <ele>1436.33</ele>
        <time>2019-10-27T11:20:32Z</time>
      </trkpt>
      <trkpt lat="44.56914" lon="5.61989">
        <ele>1436.33</ele>
        <time>2019-10-27T11:21:10Z</time>
      </trkpt>
      <trkpt lat="44.56915" lon="5.61989">
        <ele>1435.34</ele>
        <time>2019-10-27T11:21:51Z</time>
      </trkpt>
      <trkpt lat="44.56914" lon="5.61989">
        <ele>1434.51</ele>
        <time>2019-10-27T11:22:39Z</time>
      </trkpt>
      <trkpt lat="44.56912" lon="5.6199">
        <ele>1433.39</ele>
        <time>2019-10-27T11:23:23Z</time>
      </trkpt>
      <trkpt lat="44.56911" lon="5.6199">
        <ele>1432.8</ele>
        <time>2019-10-27T11:23:56Z</time>
      </trkpt>
      <trkpt lat="44.5691" lon="5.61989">
        <ele>1432.02</ele>
        <time>2019-10-27T11:24:56Z</time>
      </trkpt>
      <trkpt lat="44.56912" lon="5.61988">
        <ele>1433.27</ele>
        <time>2019-10-27T11:25:52Z</time>
      </trkpt>
      <trkpt lat="44.56912" lon="5.61988">
        <ele>1433.45</ele>
        <time>2019-10-27T11:26:41Z</time>
      </trkpt>
      <trkpt lat="44.56914" lon="5.61987">
        <ele>1434.35</ele>
        <time>2019-10-27T11:27:30Z</time>
      </trkpt>
      <trkpt lat="44.56912" lon="5.61989">
        <ele>1435.68</ele>
        <time>2019-10-27T11:28:34Z</time>
      </trkpt>
      <trkpt lat="44.56914" lon="5.61987">
        <ele>1436.56</ele>
        <time>2019-10-27T11:29:21Z</time>
      </trkpt>
      <trkpt lat="44.56915" lon="5.61988">
        <ele>1437.84</ele>
        <time>2019-10-27T11:30:20Z</time>
      </trkpt>
      <trkpt lat="44.56916" lon="5.61987">
        <ele>1437.88</ele>
        <time>2019-10-27T11:31:26Z</time>
      </trkpt>
      <trkpt lat="44.56916" lon="5.61988">
        <ele>1438.8</ele>
        <time>2019-10-27T11:32:21Z</time>
      </trkpt>
      <trkpt lat="44.56914" lon="5.61988">
        <ele>1439.57</ele>
        <time>2019-10-27T11:33:20Z</time>
      </trkpt>
      <trkpt lat="44.56912" lon="5.6199">
        <ele>1439.37</ele>
        <time>2019-10-27T11:34:19Z</time>
      </trkpt>
      <trkpt lat="44.56913" lon="5.61989">
        <ele>1436.82</ele>
        <time>2019-10-27T11:35:24Z</time>
      </trkpt>
      <trkpt lat="44.56913" lon="5.6199">
        <ele>1436.07</ele>
        <time>2019-10-27T11:36:25Z</time>
      </trkpt>
      <trkpt lat="44.56912" lon="5.61989">
        <ele>1434.99</ele>
        <time>2019-10-27T11:37:32Z</time>
      </trkpt>
      <trkpt lat="44.56913" lon="5.6199">
        <ele>1434.39</ele>
        <time>2019-10-27T11:38:40Z</time>
      </trkpt>
      <trkpt lat="44.56913" lon="5.61991">
        <ele>1436.36</ele>
        <time>2019-10-27T11:39:47Z</time>
      </trkpt>
      <trkpt lat="44.56912" lon="5.6199">
        <ele>1435.78</ele>
        <time>2019-10-27T11:40:44Z</time>
      </trkpt>
      <trkpt lat="44.56912" lon="5.6199">
        <ele>1435.64</ele>
        <time>2019-10-27T11:41:30Z</time>
      </trkpt>
      <trkpt lat="44.56913" lon="5.61989">
        <ele>1434.49</ele>
        <time>2019-10-27T11:42:32Z</time>
      </trkpt>
      <trkpt lat="44.56912" lon="5.61989">
        <ele>1435.06</ele>
        <time>2019-10-27T11:43:35Z</time>
      </trkpt>
      <trkpt lat="44.56913" lon="5.6199">
        <ele>1433.96</ele>
        <time>2019-10-27T11:44:41Z</time>
      </trkpt>
      <trkpt lat="44.56915" lon="5.61988">
        <ele>1433.29</ele>
        <time>2019-10-27T11:45:41Z</time>
      </trkpt>
      <trkpt lat="44.56915" lon="5.61988">
        <ele>1433.75</ele>
        <time>2019-10-27T11:46:48Z</time>
      </trkpt>
      <trkpt lat="44.56912" lon="5.61989">
        <ele>1434.03</ele>
        <time>2019-10-27T11:47:58Z</time>
      </trkpt>
      <trkpt lat="44.56912" lon="5.6199">
        <ele>1434.91</ele>
        <time>2019-10-27T11:48:56Z</time>
      </trkpt>
      <trkpt lat="44.5691" lon="5.61991">
        <ele>1434.44</ele>
        <time>2019-10-27T11:49:49Z</time>
      </trkpt>
      <trkpt lat="44.56909" lon="5.61991">
        <ele>1434.36</ele>
        <time>2019-10-27T11:50:36Z</time>
      </trkpt>
      <trkpt lat="44.56909" lon="5.61991">
        <ele>1434.38</ele>
        <time>2019-10-27T11:51:25Z</time>
      </trkpt>
      <trkpt lat="44.56909" lon="5.61991">
        <ele>1433.07</ele>
        <time>2019-10-27T11:52:11Z</time>
      </trkpt>
      <trkpt lat="44.56909" lon="5.61991">
        <ele>1433.12</ele>
        <time>2019-10-27T11:52:55Z</time>
      </trkpt>
      <trkpt lat="44.56911" lon="5.61991">
        <ele>1434.01</ele>
        <time>2019-10-27T11:53:34Z</time>
      </trkpt>
      <trkpt lat="44.56911" lon="5.61991">
        <ele>1435.36</ele>
        <time>2019-10-27T11:54:40Z</time>
      </trkpt>
      <trkpt lat="44.5691" lon="5.6199">
        <ele>1435.4</ele>
        <time>2019-10-27T11:55:48Z</time>
      </trkpt>
      <trkpt lat="44.56912" lon="5.61989">
        <ele>1435.24</ele>
        <time>2019-10-27T11:56:47Z</time>
      </trkpt>
      <trkpt lat="44.56911" lon="5.6199">
        <ele>1434.66</ele>
        <time>2019-10-27T11:57:55Z</time>
      </trkpt>
      <trkpt lat="44.56911" lon="5.6199">
        <ele>1434.08</ele>
        <time>2019-10-27T11:59:16Z</time>
      </trkpt>
      <trkpt lat="44.56912" lon="5.61987">
        <ele>1432.61</ele>
        <time>2019-10-27T12:00:00Z</time>
      </trkpt>
      <trkpt lat="44.56911" lon="5.61989">
        <ele>1432.32</ele>
        <time>2019-10-27T12:00:50Z</time>
      </trkpt>
      <trkpt lat="44.56908" lon="5.61991">
        <ele>1433.61</ele>
        <time>2019-10-27T12:01:51Z</time>
      </trkpt>
      <trkpt lat="44.56909" lon="5.61992">
        <ele>1434.31</ele>
        <time>2019-10-27T12:02:34Z</time>
      </trkpt>
      <trkpt lat="44.56909" lon="5.61992">
        <ele>1433.88</ele>
        <time>2019-10-27T12:03:32Z</time>
      </trkpt>
      <trkpt lat="44.5691" lon="5.61992">
        <ele>1436.17</ele>
        <time>2019-10-27T12:04:24Z</time>
      </trkpt>
      <trkpt lat="44.5691" lon="5.61989">
        <ele>1437.6</ele>
        <time>2019-10-27T12:05:23Z</time>
      </trkpt>
      <trkpt lat="44.5691" lon="5.61991">
        <ele>1437.76</ele>
        <time>2019-10-27T12:06:27Z</time>
      </trkpt>
      <trkpt lat="44.56913" lon="5.61989">
        <ele>1435.96</ele>
        <time>2019-10-27T12:07:33Z</time>
      </trkpt>
      <trkpt lat="44.56913" lon="5.61988">
        <ele>1434.52</ele>
        <time>2019-10-27T12:08:30Z</time>
      </trkpt>
      <trkpt lat="44.56913" lon="5.61988">
        <ele>1432.02</ele>
        <time>2019-10-27T12:09:14Z</time>
      </trkpt>
      <trkpt lat="44.56911" lon="5.61989">
        <ele>1432.62</ele>
        <time>2019-10-27T12:10:10Z</time>
      </trkpt>
      <trkpt lat="44.5691" lon="5.61989">
        <ele>1432.05</ele>
        <time>2019-10-27T12:11:02Z</time>
      </trkpt>
      <trkpt lat="44.5691" lon="5.6199">
        <ele>1433.12</ele>
        <time>2019-10-27T12:12:06Z</time>
      </trkpt>
      <trkpt lat="44.56911" lon="5.6199">
        <ele>1432.99</ele>
        <time>2019-10-27T12:12:47Z</time>
      </trkpt>
      <trkpt lat="44.5691" lon="5.61989">
        <ele>1432.9</ele>
        <time>2019-10-27T12:13:39Z</time>
      </trkpt>
      <trkpt lat="44.5691" lon="5.6199">
        <ele>1430.86</ele>
        <time>2019-10-27T12:14:48Z</time>
      </trkpt>
      <trkpt lat="44.56911" lon="5.61988">
        <ele>1429.72</ele>
        <time>2019-10-27T12:15:37Z</time>
      </trkpt>
      <trkpt lat="44.56909" lon="5.6199">
        <ele>1428.96</ele>
        <time>2019-10-27T12:16:31Z</time>
      </trkpt>
      <trkpt lat="44.56909" lon="5.6199">
        <ele>1427.6</ele>
        <time>2019-10-27T12:17:30Z</time>
      </trkpt>
      <trkpt lat="44.5691" lon="5.61987">
        <ele>1428.44</ele>
        <time>2019-10-27T12:18:35Z</time>
      </trkpt>
      <trkpt lat="44.56911" lon="5.61987">
        <ele>1428.59</ele>
        <time>2019-10-27T12:19:45Z</time>
      </trkpt>
      <trkpt lat="44.5691" lon="5.61988">
        <ele>1428.7</ele>
        <time>2019-10-27T12:20:41Z</time>
      </trkpt>
      <trkpt lat="44.56911" lon="5.61989">
        <ele>1429.04</ele>
        <time>2019-10-27T12:21:48Z</time>
      </trkpt>
      <trkpt lat="44.56911" lon="5.6199">
        <ele>1429.11</ele>
        <time>2019-10-27T12:22:49Z</time>
      </trkpt>
      <trkpt lat="44.56912" lon="5.61987">
        <ele>1430.15</ele>
        <time>2019-10-27T12:23:36Z</time>
      </trkpt>
      <trkpt lat="44.56913" lon="5.61989">
        <ele>1430.42</ele>
        <time>2019-10-27T12:24:25Z</time>
      </trkpt>
      <trkpt lat="44.56913" lon="5.61988">
        <ele>1430.63</ele>
        <time>2019-10-27T12:25:04Z</time>
      </trkpt>
      <trkpt lat="44.56915" lon="5.61988">
        <ele>1430.37</ele>
        <time>2019-10-27T12:25:31Z</time>
      </trkpt>
      <trkpt lat="44.56913" lon="5.61989">
        <ele>1431.94</ele>
        <time>2019-10-27T12:25:59Z</time>
      </trkpt>
      <trkpt lat="44.56914" lon="5.61989">
        <ele>1431.03</ele>
        <time>2019-10-27T12:26:33Z</time>
      </trkpt>
      <trkpt lat="44.56912" lon="5.61988">
        <ele>1431.83</ele>
        <time>2019-10-27T12:27:26Z</time>
      </trkpt>
      <trkpt lat="44.56912" lon="5.6199">
        <ele>1431.38</ele>
        <time>2019-10-27T12:28:33Z</time>
      </trkpt>
      <trkpt lat="44.56911" lon="5.6199">
        <ele>1431.23</ele>
        <time>2019-10-27T12:29:06Z</time>
      </trkpt>
      <trkpt lat="44.5691" lon="5.61996">
        <ele>1431.72</ele>
        <time>2019-10-27T12:29:22Z</time>
      </trkpt>
      <trkpt lat="44.5691" lon="5.61995">
        <ele>1432.6</ele>
        <time>2019-10-27T12:29:44Z</time>
      </trkpt>
      <trkpt lat="44.56914" lon="5.62001">
        <ele>1433.28</ele>
        <time>2019-10-27T12:30:01Z</time>
      </trkpt>
      <trkpt lat="44.56919" lon="5.62003">
        <ele>1433.83</ele>
        <time>2019-10-27T12:30:19Z</time>
      </trkpt>
      <trkpt lat="44.56919" lon="5.62005">
        <ele>1433.7</ele>
        <time>2019-10-27T12:30:39Z</time>
      </trkpt>
      <trkpt lat="44.56915" lon="5.62003">
        <ele>1433.01</ele>
        <time>2019-10-27T12:31:01Z</time>
      </trkpt>
      <trkpt lat="44.56912" lon="5.62004">
        <ele>1432.25</ele>
        <time>2019-10-27T12:31:24Z</time>
      </trkpt>
      <trkpt lat="44.56913" lon="5.62005">
        <ele>1430</ele>
        <time>2019-10-27T12:31:52Z</time>
      </trkpt>
      <trkpt lat="44.5692" lon="5.62008">
        <ele>1430.99</ele>
        <time>2019-10-27T12:32:13Z</time>
      </trkpt>
      <trkpt lat="44.56917" lon="5.62008">
        <ele>1434.12</ele>
        <time>2019-10-27T12:32:43Z</time>
      </trkpt>
      <trkpt lat="44.56915" lon="5.62001">
        <ele>1435.86</ele>
        <time>2019-10-27T12:33:03Z</time>
      </trkpt>
      <trkpt lat="44.56912" lon="5.61995">
        <ele>1435.46</ele>
        <time>2019-10-27T12:33:27Z</time>
      </trkpt>
      <trkpt lat="44.56915" lon="5.62001">
        <ele>1434.75</ele>
        <time>2019-10-27T12:33:42Z</time>
      </trkpt>
      <trkpt lat="44.56913" lon="5.62004">
        <ele>1435.43</ele>
        <time>2019-10-27T12:34:07Z</time>
      </trkpt>
      <trkpt lat="44.56906" lon="5.62006">
        <ele>1434.52</ele>
        <time>2019-10-27T12:34:26Z</time>
      </trkpt>
      <trkpt lat="44.56901" lon="5.62007">
        <ele>1435.94</ele>
        <time>2019-10-27T12:34:51Z</time>
      </trkpt>
      <trkpt lat="44.56897" lon="5.62008">
        <ele>1437.16</ele>
        <time>2019-10-27T12:35:11Z</time>
      </trkpt>
      <trkpt lat="44.56899" lon="5.62016">
        <ele>1437.18</ele>
        <time>2019-10-27T12:35:37Z</time>
      </trkpt>
      <trkpt lat="44.56899" lon="5.62019">
        <ele>1437.21</ele>
        <time>2019-10-27T12:36:00Z</time>
      </trkpt>
      <trkpt lat="44.56904" lon="5.6202">
        <ele>1437.71</ele>
        <time>2019-10-27T12:36:29Z</time>
      </trkpt>
      <trkpt lat="44.56902" lon="5.62022">
        <ele>1437.75</ele>
        <time>2019-10-27T12:36:53Z</time>
      </trkpt>
      <trkpt lat="44.56895" lon="5.62031">
        <ele>1437.27</ele>
        <time>2019-10-27T12:37:18Z</time>
      </trkpt>
      <trkpt lat="44.56889" lon="5.62042">
        <ele>1436.38</ele>
        <time>2019-10-27T12:37:30Z</time>
      </trkpt>
      <trkpt lat="44.56882" lon="5.62048">
        <ele>1435.53</ele>
        <time>2019-10-27T12:37:38Z</time>
      </trkpt>
      <trkpt lat="44.56873" lon="5.6208">
        <ele>1433.71</ele>
        <time>2019-10-27T12:37:59Z</time>
      </trkpt>
      <trkpt lat="44.56866" lon="5.62108">
        <ele>1432.39</ele>
        <time>2019-10-27T12:38:15Z</time>
      </trkpt>
      <trkpt lat="44.56867" lon="5.62138">
        <ele>1430.56</ele>
        <time>2019-10-27T12:38:32Z</time>
      </trkpt>
      <trkpt lat="44.5687" lon="5.62169">
        <ele>1429.99</ele>
        <time>2019-10-27T12:38:52Z</time>
      </trkpt>
      <trkpt lat="44.56873" lon="5.62181">
        <ele>1429.88</ele>
        <time>2019-10-27T12:38:59Z</time>
      </trkpt>
      <trkpt lat="44.56885" lon="5.62197">
        <ele>1427.47</ele>
        <time>2019-10-27T12:39:13Z</time>
      </trkpt>
      <trkpt lat="44.56891" lon="5.62201">
        <ele>1423.98</ele>
        <time>2019-10-27T12:39:30Z</time>
      </trkpt>
      <trkpt lat="44.56894" lon="5.622">
        <ele>1421.64</ele>
        <time>2019-10-27T12:39:52Z</time>
      </trkpt>
      <trkpt lat="44.5689" lon="5.62195">
        <ele>1421.7</ele>
        <time>2019-10-27T12:40:14Z</time>
      </trkpt>
      <trkpt lat="44.56891" lon="5.62195">
        <ele>1420.87</ele>
        <time>2019-10-27T12:40:36Z</time>
      </trkpt>
      <trkpt lat="44.56889" lon="5.62195">
        <ele>1420.5</ele>
        <time>2019-10-27T12:40:43Z</time>
      </trkpt>
      <trkpt lat="44.56895" lon="5.62201">
        <ele>1419.84</ele>
        <time>2019-10-27T12:40:54Z</time>
      </trkpt>
      <trkpt lat="44.56895" lon="5.62202">
        <ele>1419.35</ele>
        <time>2019-10-27T12:41:15Z</time>
      </trkpt>
      <trkpt lat="44.56899" lon="5.62208">
        <ele>1418.97</ele>
        <time>2019-10-27T12:41:36Z</time>
      </trkpt>
      <trkpt lat="44.56905" lon="5.62217">
        <ele>1419.01</ele>
        <time>2019-10-27T12:41:46Z</time>
      </trkpt>
      <trkpt lat="44.56919" lon="5.62247">
        <ele>1419.43</ele>
        <time>2019-10-27T12:42:09Z</time>
      </trkpt>
      <trkpt lat="44.56921" lon="5.62266">
        <ele>1420.3</ele>
        <time>2019-10-27T12:42:22Z</time>
      </trkpt>
      <trkpt lat="44.56918" lon="5.62301">
        <ele>1423.11</ele>
        <time>2019-10-27T12:42:42Z</time>
      </trkpt>
      <trkpt lat="44.56915" lon="5.6233">
        <ele>1424.89</ele>
        <time>2019-10-27T12:43:02Z</time>
      </trkpt>
      <trkpt lat="44.5692" lon="5.62363">
        <ele>1428.27</ele>
        <time>2019-10-27T12:43:16Z</time>
      </trkpt>
      <trkpt lat="44.56929" lon="5.62369">
        <ele>1429.81</ele>
        <time>2019-10-27T12:43:31Z</time>
      </trkpt>
      <trkpt lat="44.5694" lon="5.62359">
        <ele>1429.25</ele>
        <time>2019-10-27T12:43:44Z</time>
      </trkpt>
      <trkpt lat="44.56961" lon="5.62336">
        <ele>1430.61</ele>
        <time>2019-10-27T12:44:05Z</time>
      </trkpt>
      <trkpt lat="44.56963" lon="5.62326">
        <ele>1430.68</ele>
        <time>2019-10-27T12:44:21Z</time>
      </trkpt>
      <trkpt lat="44.56974" lon="5.62297">
        <ele>1425.43</ele>
        <time>2019-10-27T12:44:41Z</time>
      </trkpt>
      <trkpt lat="44.56983" lon="5.62267">
        <ele>1426.46</ele>
        <time>2019-10-27T12:45:01Z</time>
      </trkpt>
      <trkpt lat="44.56984" lon="5.62262">
        <ele>1423.84</ele>
        <time>2019-10-27T12:45:13Z</time>
      </trkpt>
      <trkpt lat="44.56977" lon="5.62257">
        <ele>1422.48</ele>
        <time>2019-10-27T12:45:17Z</time>
      </trkpt>
      <trkpt lat="44.56999" lon="5.6224">
        <ele>1411.27</ele>
        <time>2019-10-27T12:45:42Z</time>
      </trkpt>
      <trkpt lat="44.56999" lon="5.62237">
        <ele>1411.03</ele>
        <time>2019-10-27T12:45:45Z</time>
      </trkpt>
      <trkpt lat="44.57006" lon="5.62213">
        <ele>1405.97</ele>
        <time>2019-10-27T12:46:04Z</time>
      </trkpt>
      <trkpt lat="44.57011" lon="5.62204">
        <ele>1404.37</ele>
        <time>2019-10-27T12:46:23Z</time>
      </trkpt>
      <trkpt lat="44.57028" lon="5.62189">
        <ele>1403.03</ele>
        <time>2019-10-27T12:46:37Z</time>
      </trkpt>
      <trkpt lat="44.57042" lon="5.62173">
        <ele>1399.71</ele>
        <time>2019-10-27T12:46:48Z</time>
      </trkpt>
      <trkpt lat="44.57049" lon="5.6216">
        <ele>1397.64</ele>
        <time>2019-10-27T12:46:56Z</time>
      </trkpt>
      <trkpt lat="44.57059" lon="5.62147">
        <ele>1395.02</ele>
        <time>2019-10-27T12:47:03Z</time>
      </trkpt>
      <trkpt lat="44.57062" lon="5.62146">
        <ele>1390.37</ele>
        <time>2019-10-27T12:47:15Z</time>
      </trkpt>
      <trkpt lat="44.57057" lon="5.62156">
        <ele>1385.56</ele>
        <time>2019-10-27T12:47:25Z</time>
      </trkpt>
      <trkpt lat="44.57055" lon="5.62171">
        <ele>1382.56</ele>
        <time>2019-10-27T12:47:34Z</time>
      </trkpt>
      <trkpt lat="44.57052" lon="5.62174">
        <ele>1380.78</ele>
        <time>2019-10-27T12:47:37Z</time>
      </trkpt>
      <trkpt lat="44.57051" lon="5.62184">
        <ele>1377.68</ele>
        <time>2019-10-27T12:47:43Z</time>
      </trkpt>
      <trkpt lat="44.57041" lon="5.62197">
        <ele>1374.01</ele>
        <time>2019-10-27T12:47:55Z</time>
      </trkpt>
      <trkpt lat="44.5704" lon="5.62198">
        <ele>1373.69</ele>
        <time>2019-10-27T12:47:57Z</time>
      </trkpt>
      <trkpt lat="44.57034" lon="5.622">
        <ele>1373.31</ele>
        <time>2019-10-27T12:48:01Z</time>
      </trkpt>
      <trkpt lat="44.57034" lon="5.62209">
        <ele>1372.32</ele>
        <time>2019-10-27T12:48:12Z</time>
      </trkpt>
      <trkpt lat="44.57029" lon="5.62225">
        <ele>1372.15</ele>
        <time>2019-10-27T12:48:29Z</time>
      </trkpt>
      <trkpt lat="44.57032" lon="5.62238">
        <ele>1371.89</ele>
        <time>2019-10-27T12:48:38Z</time>
      </trkpt>
      <trkpt lat="44.57031" lon="5.62269">
        <ele>1371.27</ele>
        <time>2019-10-27T12:48:56Z</time>
      </trkpt>
      <trkpt lat="44.57033" lon="5.62287">
        <ele>1370.87</ele>
        <time>2019-10-27T12:49:07Z</time>
      </trkpt>
      <trkpt lat="44.57032" lon="5.62304">
        <ele>1368.92</ele>
        <time>2019-10-27T12:49:19Z</time>
      </trkpt>
      <trkpt lat="44.57032" lon="5.62313">
        <ele>1368.16</ele>
        <time>2019-10-27T12:49:25Z</time>
      </trkpt>
      <trkpt lat="44.57032" lon="5.62322">
        <ele>1367.06</ele>
        <time>2019-10-27T12:49:30Z</time>
      </trkpt>
      <trkpt lat="44.57031" lon="5.62354">
        <ele>1359.49</ele>
        <time>2019-10-27T12:49:49Z</time>
      </trkpt>
      <trkpt lat="44.57025" lon="5.62376">
        <ele>1355</ele>
        <time>2019-10-27T12:50:08Z</time>
      </trkpt>
      <trkpt lat="44.57021" lon="5.62402">
        <ele>1349.38</ele>
        <time>2019-10-27T12:50:27Z</time>
      </trkpt>
      <trkpt lat="44.57022" lon="5.62434">
        <ele>1344.32</ele>
        <time>2019-10-27T12:50:47Z</time>
      </trkpt>
      <trkpt lat="44.5702" lon="5.62467">
        <ele>1339.56</ele>
        <time>2019-10-27T12:51:07Z</time>
      </trkpt>
      <trkpt lat="44.57023" lon="5.62498">
        <ele>1336.73</ele>
        <time>2019-10-27T12:51:26Z</time>
      </trkpt>
      <trkpt lat="44.57016" lon="5.62515">
        <ele>1335.27</ele>
        <time>2019-10-27T12:51:38Z</time>
      </trkpt>
      <trkpt lat="44.57015" lon="5.62518">
        <ele>1335.05</ele>
        <time>2019-10-27T12:51:40Z</time>
      </trkpt>
      <trkpt lat="44.57014" lon="5.62527">
        <ele>1334.95</ele>
        <time>2019-10-27T12:51:44Z</time>
      </trkpt>
      <trkpt lat="44.5701" lon="5.6253">
        <ele>1334.96</ele>
        <time>2019-10-27T12:51:47Z</time>
      </trkpt>
      <trkpt lat="44.57009" lon="5.62535">
        <ele>1335.18</ele>
        <time>2019-10-27T12:51:51Z</time>
      </trkpt>
      <trkpt lat="44.57007" lon="5.62538">
        <ele>1335.3</ele>
        <time>2019-10-27T12:51:53Z</time>
      </trkpt>
      <trkpt lat="44.57006" lon="5.62548">
        <ele>1335.15</ele>
        <time>2019-10-27T12:51:59Z</time>
      </trkpt>
      <trkpt lat="44.57004" lon="5.62562">
        <ele>1334.15</ele>
        <time>2019-10-27T12:52:08Z</time>
      </trkpt>
      <trkpt lat="44.57004" lon="5.62574">
        <ele>1332.77</ele>
        <time>2019-10-27T12:52:14Z</time>
      </trkpt>
      <trkpt lat="44.57" lon="5.62595">
        <ele>1329.46</ele>
        <time>2019-10-27T12:52:26Z</time>
      </trkpt>
      <trkpt lat="44.56999" lon="5.62623">
        <ele>1326.64</ele>
        <time>2019-10-27T12:52:42Z</time>
      </trkpt>
      <trkpt lat="44.56999" lon="5.62626">
        <ele>1326.28</ele>
        <time>2019-10-27T12:52:43Z</time>
      </trkpt>
      <trkpt lat="44.57001" lon="5.62641">
        <ele>1324.4</ele>
        <time>2019-10-27T12:52:52Z</time>
      </trkpt>
      <trkpt lat="44.57" lon="5.62656">
        <ele>1322.25</ele>
        <time>2019-10-27T12:53:06Z</time>
      </trkpt>
      <trkpt lat="44.57003" lon="5.62684">
        <ele>1321.37</ele>
        <time>2019-10-27T12:53:26Z</time>
      </trkpt>
      <trkpt lat="44.56999" lon="5.62694">
        <ele>1320.1</ele>
        <time>2019-10-27T12:53:42Z</time>
      </trkpt>
      <trkpt lat="44.57004" lon="5.62713">
        <ele>1319.92</ele>
        <time>2019-10-27T12:53:54Z</time>
      </trkpt>
      <trkpt lat="44.57005" lon="5.62721">
        <ele>1319.82</ele>
        <time>2019-10-27T12:53:58Z</time>
      </trkpt>
      <trkpt lat="44.57011" lon="5.62733">
        <ele>1319.41</ele>
        <time>2019-10-27T12:54:04Z</time>
      </trkpt>
      <trkpt lat="44.57009" lon="5.62736">
        <ele>1319.18</ele>
        <time>2019-10-27T12:54:06Z</time>
      </trkpt>
      <trkpt lat="44.57012" lon="5.6275">
        <ele>1318.13</ele>
        <time>2019-10-27T12:54:13Z</time>
      </trkpt>
      <trkpt lat="44.57015" lon="5.62762">
        <ele>1316.83</ele>
        <time>2019-10-27T12:54:21Z</time>
      </trkpt>
      <trkpt lat="44.57016" lon="5.62771">
        <ele>1316.57</ele>
        <time>2019-10-27T12:54:28Z</time>
      </trkpt>
      <trkpt lat="44.57018" lon="5.62805">
        <ele>1314.48</ele>
        <time>2019-10-27T12:54:46Z</time>
      </trkpt>
      <trkpt lat="44.57018" lon="5.62808">
        <ele>1314.28</ele>
        <time>2019-10-27T12:54:48Z</time>
      </trkpt>
      <trkpt lat="44.57018" lon="5.62828">
        <ele>1310.84</ele>
        <time>2019-10-27T12:54:58Z</time>
      </trkpt>
      <trkpt lat="44.57016" lon="5.62849">
        <ele>1304.32</ele>
        <time>2019-10-27T12:55:10Z</time>
      </trkpt>
      <trkpt lat="44.57014" lon="5.62869">
        <ele>1300.39</ele>
        <time>2019-10-27T12:55:22Z</time>
      </trkpt>
      <trkpt lat="44.57016" lon="5.62892">
        <ele>1296.94</ele>
        <time>2019-10-27T12:55:35Z</time>
      </trkpt>
      <trkpt lat="44.57015" lon="5.62901">
        <ele>1294.86</ele>
        <time>2019-10-27T12:55:41Z</time>
      </trkpt>
      <trkpt lat="44.57017" lon="5.62911">
        <ele>1292.41</ele>
        <time>2019-10-27T12:55:47Z</time>
      </trkpt>
      <trkpt lat="44.5702" lon="5.62916">
        <ele>1292.04</ele>
        <time>2019-10-27T12:55:55Z</time>
      </trkpt>
      <trkpt lat="44.57021" lon="5.62933">
        <ele>1290.91</ele>
        <time>2019-10-27T12:56:02Z</time>
      </trkpt>
      <trkpt lat="44.5702" lon="5.62935">
        <ele>1289.33</ele>
        <time>2019-10-27T12:56:15Z</time>
      </trkpt>
      <trkpt lat="44.57023" lon="5.62936">
        <ele>1289.15</ele>
        <time>2019-10-27T12:56:29Z</time>
      </trkpt>
      <trkpt lat="44.57026" lon="5.62931">
        <ele>1289</ele>
        <time>2019-10-27T12:56:33Z</time>
      </trkpt>
      <trkpt lat="44.57027" lon="5.62926">
        <ele>1289.1</ele>
        <time>2019-10-27T12:56:36Z</time>
      </trkpt>
      <trkpt lat="44.57024" lon="5.62926">
        <ele>1290.06</ele>
        <time>2019-10-27T12:56:47Z</time>
      </trkpt>
      <trkpt lat="44.57027" lon="5.62935">
        <ele>1289.97</ele>
        <time>2019-10-27T12:56:53Z</time>
      </trkpt>
      <trkpt lat="44.57036" lon="5.62957">
        <ele>1287.09</ele>
        <time>2019-10-27T12:57:08Z</time>
      </trkpt>
      <trkpt lat="44.57039" lon="5.62965">
        <ele>1285.87</ele>
        <time>2019-10-27T12:57:13Z</time>
      </trkpt>
      <trkpt lat="44.57041" lon="5.62971">
        <ele>1284.61</ele>
        <time>2019-10-27T12:57:17Z</time>
      </trkpt>
      <trkpt lat="44.57051" lon="5.62989">
        <ele>1282.69</ele>
        <time>2019-10-27T12:57:30Z</time>
      </trkpt>
      <trkpt lat="44.57054" lon="5.63003">
        <ele>1281.04</ele>
        <time>2019-10-27T12:57:41Z</time>
      </trkpt>
      <trkpt lat="44.57053" lon="5.6301">
        <ele>1280.35</ele>
        <time>2019-10-27T12:57:46Z</time>
      </trkpt>
      <trkpt lat="44.57046" lon="5.63025">
        <ele>1279.36</ele>
        <time>2019-10-27T12:57:56Z</time>
      </trkpt>
      <trkpt lat="44.57043" lon="5.63032">
        <ele>1280.94</ele>
        <time>2019-10-27T12:58:10Z</time>
      </trkpt>
      <trkpt lat="44.57044" lon="5.63037">
        <ele>1283.23</ele>
        <time>2019-10-27T12:58:33Z</time>
      </trkpt>
      <trkpt lat="44.57046" lon="5.63035">
        <ele>1281.89</ele>
        <time>2019-10-27T12:58:49Z</time>
      </trkpt>
      <trkpt lat="44.57039" lon="5.63034">
        <ele>1281.24</ele>
        <time>2019-10-27T12:59:05Z</time>
      </trkpt>
      <trkpt lat="44.5702" lon="5.63028">
        <ele>1281.7</ele>
        <time>2019-10-27T12:59:21Z</time>
      </trkpt>
      <trkpt lat="44.57016" lon="5.63035">
        <ele>1281.35</ele>
        <time>2019-10-27T12:59:27Z</time>
      </trkpt>
      <trkpt lat="44.57016" lon="5.63039">
        <ele>1280.84</ele>
        <time>2019-10-27T12:59:29Z</time>
      </trkpt>
      <trkpt lat="44.57023" lon="5.63067">
        <ele>1276.21</ele>
        <time>2019-10-27T12:59:46Z</time>
      </trkpt>
      <trkpt lat="44.57033" lon="5.63088">
        <ele>1273.4</ele>
        <time>2019-10-27T13:00:01Z</time>
      </trkpt>
      <trkpt lat="44.5705" lon="5.63101">
        <ele>1270.68</ele>
        <time>2019-10-27T13:00:18Z</time>
      </trkpt>
      <trkpt lat="44.57057" lon="5.63105">
        <ele>1270.49</ele>
        <time>2019-10-27T13:00:25Z</time>
      </trkpt>
      <trkpt lat="44.57072" lon="5.63107">
        <ele>1266.6</ele>
        <time>2019-10-27T13:00:43Z</time>
      </trkpt>
      <trkpt lat="44.57089" lon="5.63112">
        <ele>1263.98</ele>
        <time>2019-10-27T13:00:58Z</time>
      </trkpt>
      <trkpt lat="44.57091" lon="5.63112">
        <ele>1264.2</ele>
        <time>2019-10-27T13:00:59Z</time>
      </trkpt>
      <trkpt lat="44.57099" lon="5.63109">
        <ele>1264.79</ele>
        <time>2019-10-27T13:01:11Z</time>
      </trkpt>
      <trkpt lat="44.57111" lon="5.63108">
        <ele>1268.43</ele>
        <time>2019-10-27T13:01:24Z</time>
      </trkpt>
      <trkpt lat="44.57115" lon="5.63105">
        <ele>1270.33</ele>
        <time>2019-10-27T13:01:27Z</time>
      </trkpt>
      <trkpt lat="44.57116" lon="5.63103">
        <ele>1270.75</ele>
        <time>2019-10-27T13:01:28Z</time>
      </trkpt>
      <trkpt lat="44.57133" lon="5.63078">
        <ele>1262.42</ele>
        <time>2019-10-27T13:01:45Z</time>
      </trkpt>
      <trkpt lat="44.57141" lon="5.63046">
        <ele>1256.55</ele>
        <time>2019-10-27T13:02:03Z</time>
      </trkpt>
      <trkpt lat="44.57144" lon="5.63019">
        <ele>1250.59</ele>
        <time>2019-10-27T13:02:19Z</time>
      </trkpt>
      <trkpt lat="44.57144" lon="5.63017">
        <ele>1250.11</ele>
        <time>2019-10-27T13:02:20Z</time>
      </trkpt>
      <trkpt lat="44.57145" lon="5.63014">
        <ele>1249.27</ele>
        <time>2019-10-27T13:02:22Z</time>
      </trkpt>
      <trkpt lat="44.57146" lon="5.63013">
        <ele>1248.95</ele>
        <time>2019-10-27T13:02:23Z</time>
      </trkpt>
      <trkpt lat="44.57146" lon="5.63011">
        <ele>1248.82</ele>
        <time>2019-10-27T13:02:24Z</time>
      </trkpt>
      <trkpt lat="44.57146" lon="5.63009">
        <ele>1248.54</ele>
        <time>2019-10-27T13:02:25Z</time>
      </trkpt>
      <trkpt lat="44.57146" lon="5.63">
        <ele>1246.9</ele>
        <time>2019-10-27T13:02:30Z</time>
      </trkpt>
      <trkpt lat="44.57146" lon="5.62998">
        <ele>1246.86</ele>
        <time>2019-10-27T13:02:31Z</time>
      </trkpt>
      <trkpt lat="44.57146" lon="5.62996">
        <ele>1246.71</ele>
        <time>2019-10-27T13:02:32Z</time>
      </trkpt>
      <trkpt lat="44.57147" lon="5.62995">
        <ele>1246.54</ele>
        <time>2019-10-27T13:02:33Z</time>
      </trkpt>
      <trkpt lat="44.57147" lon="5.62993">
        <ele>1246.32</ele>
        <time>2019-10-27T13:02:34Z</time>
      </trkpt>
      <trkpt lat="44.57148" lon="5.62992">
        <ele>1246.23</ele>
        <time>2019-10-27T13:02:35Z</time>
      </trkpt>
      <trkpt lat="44.57148" lon="5.6299">
        <ele>1246.15</ele>
        <time>2019-10-27T13:02:36Z</time>
      </trkpt>
      <trkpt lat="44.57147" lon="5.62988">
        <ele>1246.2</ele>
        <time>2019-10-27T13:02:37Z</time>
      </trkpt>
      <trkpt lat="44.57147" lon="5.62987">
        <ele>1246.29</ele>
        <time>2019-10-27T13:02:38Z</time>
      </trkpt>
      <trkpt lat="44.57141" lon="5.62962">
        <ele>1249.34</ele>
        <time>2019-10-27T13:02:57Z</time>
      </trkpt>
      <trkpt lat="44.5714" lon="5.62952">
        <ele>1249.65</ele>
        <time>2019-10-27T13:03:03Z</time>
      </trkpt>
      <trkpt lat="44.5714" lon="5.62951">
        <ele>1249.8</ele>
        <time>2019-10-27T13:03:04Z</time>
      </trkpt>
      <trkpt lat="44.5714" lon="5.62949">
        <ele>1249.91</ele>
        <time>2019-10-27T13:03:05Z</time>
      </trkpt>
      <trkpt lat="44.57141" lon="5.62947">
        <ele>1249.81</ele>
        <time>2019-10-27T13:03:06Z</time>
      </trkpt>
      <trkpt lat="44.57141" lon="5.62946">
        <ele>1249.87</ele>
        <time>2019-10-27T13:03:07Z</time>
      </trkpt>
      <trkpt lat="44.57142" lon="5.62945">
        <ele>1249.84</ele>
        <time>2019-10-27T13:03:08Z</time>
      </trkpt>
      <trkpt lat="44.57142" lon="5.62943">
        <ele>1249.89</ele>
        <time>2019-10-27T13:03:09Z</time>
      </trkpt>
      <trkpt lat="44.57143" lon="5.62942">
        <ele>1249.97</ele>
        <time>2019-10-27T13:03:10Z</time>
      </trkpt>
      <trkpt lat="44.57143" lon="5.6294">
        <ele>1249.87</ele>
        <time>2019-10-27T13:03:11Z</time>
      </trkpt>
      <trkpt lat="44.57143" lon="5.62934">
        <ele>1250.18</ele>
        <time>2019-10-27T13:03:17Z</time>
      </trkpt>
      <trkpt lat="44.57143" lon="5.62933">
        <ele>1250.12</ele>
        <time>2019-10-27T13:03:18Z</time>
      </trkpt>
      <trkpt lat="44.57143" lon="5.62931">
        <ele>1250.5</ele>
        <time>2019-10-27T13:03:22Z</time>
      </trkpt>
      <trkpt lat="44.57146" lon="5.62943">
        <ele>1248.97</ele>
        <time>2019-10-27T13:03:37Z</time>
      </trkpt>
      <trkpt lat="44.57156" lon="5.62961">
        <ele>1246.78</ele>
        <time>2019-10-27T13:03:51Z</time>
      </trkpt>
      <trkpt lat="44.57168" lon="5.62974">
        <ele>1244.14</ele>
        <time>2019-10-27T13:04:06Z</time>
      </trkpt>
      <trkpt lat="44.57177" lon="5.62992">
        <ele>1242.1</ele>
        <time>2019-10-27T13:04:20Z</time>
      </trkpt>
      <trkpt lat="44.57184" lon="5.63">
        <ele>1243.18</ele>
        <time>2019-10-27T13:04:28Z</time>
      </trkpt>
      <trkpt lat="44.57198" lon="5.63013">
        <ele>1245.84</ele>
        <time>2019-10-27T13:04:40Z</time>
      </trkpt>
      <trkpt lat="44.57216" lon="5.63023">
        <ele>1249.2</ele>
        <time>2019-10-27T13:04:55Z</time>
      </trkpt>
      <trkpt lat="44.57231" lon="5.63033">
        <ele>1253.99</ele>
        <time>2019-10-27T13:05:09Z</time>
      </trkpt>
      <trkpt lat="44.57232" lon="5.63033">
        <ele>1254.65</ele>
        <time>2019-10-27T13:05:10Z</time>
      </trkpt>
      <trkpt lat="44.57247" lon="5.63046">
        <ele>1260.68</ele>
        <time>2019-10-27T13:05:25Z</time>
      </trkpt>
      <trkpt lat="44.57264" lon="5.63063">
        <ele>1262.97</ele>
        <time>2019-10-27T13:05:40Z</time>
      </trkpt>
      <trkpt lat="44.57289" lon="5.63077">
        <ele>1256.29</ele>
        <time>2019-10-27T13:05:58Z</time>
      </trkpt>
      <trkpt lat="44.57313" lon="5.63086">
        <ele>1255.26</ele>
        <time>2019-10-27T13:06:16Z</time>
      </trkpt>
      <trkpt lat="44.57318" lon="5.6309">
        <ele>1255.28</ele>
        <time>2019-10-27T13:06:20Z</time>
      </trkpt>
      <trkpt lat="44.57324" lon="5.63091">
        <ele>1243.9</ele>
        <time>2019-10-27T13:06:35Z</time>
      </trkpt>
      <trkpt lat="44.5733" lon="5.63108">
        <ele>1235.92</ele>
        <time>2019-10-27T13:06:52Z</time>
      </trkpt>
      <trkpt lat="44.57341" lon="5.6313">
        <ele>1231.15</ele>
        <time>2019-10-27T13:07:06Z</time>
      </trkpt>
      <trkpt lat="44.57357" lon="5.63154">
        <ele>1228.02</ele>
        <time>2019-10-27T13:07:21Z</time>
      </trkpt>
      <trkpt lat="44.57377" lon="5.63177">
        <ele>1223.78</ele>
        <time>2019-10-27T13:07:37Z</time>
      </trkpt>
      <trkpt lat="44.57398" lon="5.63186">
        <ele>1229.34</ele>
        <time>2019-10-27T13:07:53Z</time>
      </trkpt>
      <trkpt lat="44.5741" lon="5.63193">
        <ele>1228.88</ele>
        <time>2019-10-27T13:08:05Z</time>
      </trkpt>
      <trkpt lat="44.57411" lon="5.63194">
        <ele>1228.52</ele>
        <time>2019-10-27T13:08:06Z</time>
      </trkpt>
      <trkpt lat="44.57411" lon="5.63195">
        <ele>1228.31</ele>
        <time>2019-10-27T13:08:07Z</time>
      </trkpt>
      <trkpt lat="44.57413" lon="5.63203">
        <ele>1225.88</ele>
        <time>2019-10-27T13:08:19Z</time>
      </trkpt>
      <trkpt lat="44.57416" lon="5.63213">
        <ele>1222.67</ele>
        <time>2019-10-27T13:08:28Z</time>
      </trkpt>
      <trkpt lat="44.57421" lon="5.63234">
        <ele>1219.63</ele>
        <time>2019-10-27T13:08:42Z</time>
      </trkpt>
      <trkpt lat="44.57425" lon="5.6326">
        <ele>1215.46</ele>
        <time>2019-10-27T13:08:58Z</time>
      </trkpt>
      <trkpt lat="44.57426" lon="5.63296">
        <ele>1214.73</ele>
        <time>2019-10-27T13:09:15Z</time>
      </trkpt>
      <trkpt lat="44.57425" lon="5.63321">
        <ele>1216.74</ele>
        <time>2019-10-27T13:09:30Z</time>
      </trkpt>
      <trkpt lat="44.57422" lon="5.63348">
        <ele>1217.52</ele>
        <time>2019-10-27T13:09:47Z</time>
      </trkpt>
      <trkpt lat="44.57421" lon="5.6335">
        <ele>1217.37</ele>
        <time>2019-10-27T13:09:48Z</time>
      </trkpt>
      <trkpt lat="44.57421" lon="5.63351">
        <ele>1216.97</ele>
        <time>2019-10-27T13:09:49Z</time>
      </trkpt>
      <trkpt lat="44.57417" lon="5.63365">
        <ele>1214.57</ele>
        <time>2019-10-27T13:10:04Z</time>
      </trkpt>
      <trkpt lat="44.57415" lon="5.63381">
        <ele>1212.28</ele>
        <time>2019-10-27T13:10:13Z</time>
      </trkpt>
      <trkpt lat="44.57415" lon="5.63383">
        <ele>1212.07</ele>
        <time>2019-10-27T13:10:14Z</time>
      </trkpt>
      <trkpt lat="44.57416" lon="5.63408">
        <ele>1210.71</ele>
        <time>2019-10-27T13:10:28Z</time>
      </trkpt>
      <trkpt lat="44.57422" lon="5.63432">
        <ele>1212.71</ele>
        <time>2019-10-27T13:10:48Z</time>
      </trkpt>
      <trkpt lat="44.57423" lon="5.63445">
        <ele>1211.39</ele>
        <time>2019-10-27T13:10:55Z</time>
      </trkpt>
      <trkpt lat="44.5742" lon="5.63474">
        <ele>1210.15</ele>
        <time>2019-10-27T13:11:11Z</time>
      </trkpt>
      <trkpt lat="44.57422" lon="5.63506">
        <ele>1205.57</ele>
        <time>2019-10-27T13:11:28Z</time>
      </trkpt>
      <trkpt lat="44.57434" lon="5.6354">
        <ele>1201.48</ele>
        <time>2019-10-27T13:11:45Z</time>
      </trkpt>
      <trkpt lat="44.57437" lon="5.63545">
        <ele>1200.66</ele>
        <time>2019-10-27T13:11:49Z</time>
      </trkpt>
      <trkpt lat="44.57438" lon="5.63547">
        <ele>1200.64</ele>
        <time>2019-10-27T13:11:50Z</time>
      </trkpt>
      <trkpt lat="44.57471" lon="5.63575">
        <ele>1201.58</ele>
        <time>2019-10-27T13:12:06Z</time>
      </trkpt>
      <trkpt lat="44.57498" lon="5.63611">
        <ele>1196.15</ele>
        <time>2019-10-27T13:12:19Z</time>
      </trkpt>
      <trkpt lat="44.57498" lon="5.63674">
        <ele>1196.81</ele>
        <time>2019-10-27T13:12:33Z</time>
      </trkpt>
      <trkpt lat="44.57493" lon="5.6374">
        <ele>1197.7</ele>
        <time>2019-10-27T13:12:48Z</time>
      </trkpt>
      <trkpt lat="44.57488" lon="5.63753">
        <ele>1200.78</ele>
        <time>2019-10-27T13:12:57Z</time>
      </trkpt>
      <trkpt lat="44.57488" lon="5.63755">
        <ele>1201.02</ele>
        <time>2019-10-27T13:12:58Z</time>
      </trkpt>
      <trkpt lat="44.57488" lon="5.63757">
        <ele>1201.26</ele>
        <time>2019-10-27T13:12:59Z</time>
      </trkpt>
      <trkpt lat="44.57488" lon="5.63759">
        <ele>1201.21</ele>
        <time>2019-10-27T13:13:00Z</time>
      </trkpt>
      <trkpt lat="44.57488" lon="5.63761">
        <ele>1201.27</ele>
        <time>2019-10-27T13:13:01Z</time>
      </trkpt>
      <trkpt lat="44.57488" lon="5.63764">
        <ele>1201.18</ele>
        <time>2019-10-27T13:13:02Z</time>
      </trkpt>
      <trkpt lat="44.57497" lon="5.63796">
        <ele>1200.44</ele>
        <time>2019-10-27T13:13:17Z</time>
      </trkpt>
      <trkpt lat="44.57509" lon="5.63834">
        <ele>1193.4</ele>
        <time>2019-10-27T13:13:38Z</time>
      </trkpt>
      <trkpt lat="44.5752" lon="5.63869">
        <ele>1184.65</ele>
        <time>2019-10-27T13:13:57Z</time>
      </trkpt>
      <trkpt lat="44.57531" lon="5.63902">
        <ele>1183.73</ele>
        <time>2019-10-27T13:14:16Z</time>
      </trkpt>
      <trkpt lat="44.57533" lon="5.6391">
        <ele>1183.98</ele>
        <time>2019-10-27T13:14:21Z</time>
      </trkpt>
      <trkpt lat="44.57533" lon="5.63911">
        <ele>1183.98</ele>
        <time>2019-10-27T13:14:22Z</time>
      </trkpt>
      <trkpt lat="44.57536" lon="5.63937">
        <ele>1182.95</ele>
        <time>2019-10-27T13:14:37Z</time>
      </trkpt>
      <trkpt lat="44.57541" lon="5.6397">
        <ele>1180.78</ele>
        <time>2019-10-27T13:14:55Z</time>
      </trkpt>
      <trkpt lat="44.5755" lon="5.63999">
        <ele>1180.82</ele>
        <time>2019-10-27T13:15:12Z</time>
      </trkpt>
      <trkpt lat="44.57554" lon="5.6401">
        <ele>1181.2</ele>
        <time>2019-10-27T13:15:19Z</time>
      </trkpt>
      <trkpt lat="44.57554" lon="5.64012">
        <ele>1181.19</ele>
        <time>2019-10-27T13:15:20Z</time>
      </trkpt>
      <trkpt lat="44.57555" lon="5.64014">
        <ele>1181.24</ele>
        <time>2019-10-27T13:15:21Z</time>
      </trkpt>
      <trkpt lat="44.57555" lon="5.64016">
        <ele>1181.27</ele>
        <time>2019-10-27T13:15:22Z</time>
      </trkpt>
      <trkpt lat="44.57561" lon="5.64039">
        <ele>1182.33</ele>
        <time>2019-10-27T13:15:36Z</time>
      </trkpt>
      <trkpt lat="44.57561" lon="5.6404">
        <ele>1182.32</ele>
        <time>2019-10-27T13:15:37Z</time>
      </trkpt>
      <trkpt lat="44.57561" lon="5.64042">
        <ele>1182.32</ele>
        <time>2019-10-27T13:15:38Z</time>
      </trkpt>
      <trkpt lat="44.57561" lon="5.64044">
        <ele>1182.28</ele>
        <time>2019-10-27T13:15:39Z</time>
      </trkpt>
      <trkpt lat="44.57564" lon="5.64058">
        <ele>1181.91</ele>
        <time>2019-10-27T13:15:53Z</time>
      </trkpt>
      <trkpt lat="44.57578" lon="5.64094">
        <ele>1179.41</ele>
        <time>2019-10-27T13:16:13Z</time>
      </trkpt>
      <trkpt lat="44.57595" lon="5.64121">
        <ele>1178.8</ele>
        <time>2019-10-27T13:16:34Z</time>
      </trkpt>
      <trkpt lat="44.57607" lon="5.64147">
        <ele>1175.62</ele>
        <time>2019-10-27T13:16:52Z</time>
      </trkpt>
      <trkpt lat="44.57615" lon="5.64175">
        <ele>1172.92</ele>
        <time>2019-10-27T13:17:10Z</time>
      </trkpt>
      <trkpt lat="44.57618" lon="5.64188">
        <ele>1172.11</ele>
        <time>2019-10-27T13:17:19Z</time>
      </trkpt>
      <trkpt lat="44.57619" lon="5.64189">
        <ele>1172.12</ele>
        <time>2019-10-27T13:17:20Z</time>
      </trkpt>
      <trkpt lat="44.5762" lon="5.6419">
        <ele>1172.27</ele>
        <time>2019-10-27T13:17:21Z</time>
      </trkpt>
      <trkpt lat="44.57621" lon="5.64192">
        <ele>1172.27</ele>
        <time>2019-10-27T13:17:22Z</time>
      </trkpt>
      <trkpt lat="44.57621" lon="5.64194">
        <ele>1172.33</ele>
        <time>2019-10-27T13:17:23Z</time>
      </trkpt>
      <trkpt lat="44.57622" lon="5.64195">
        <ele>1172.33</ele>
        <time>2019-10-27T13:17:24Z</time>
      </trkpt>
      <trkpt lat="44.57623" lon="5.64197">
        <ele>1172.35</ele>
        <time>2019-10-27T13:17:25Z</time>
      </trkpt>
      <trkpt lat="44.57623" lon="5.64199">
        <ele>1172.46</ele>
        <time>2019-10-27T13:17:26Z</time>
      </trkpt>
      <trkpt lat="44.57624" lon="5.64201">
        <ele>1172.41</ele>
        <time>2019-10-27T13:17:27Z</time>
      </trkpt>
      <trkpt lat="44.57625" lon="5.64202">
        <ele>1172.42</ele>
        <time>2019-10-27T13:17:28Z</time>
      </trkpt>
      <trkpt lat="44.57626" lon="5.64204">
        <ele>1172.43</ele>
        <time>2019-10-27T13:17:29Z</time>
      </trkpt>
      <trkpt lat="44.57626" lon="5.64206">
        <ele>1172.57</ele>
        <time>2019-10-27T13:17:30Z</time>
      </trkpt>
      <trkpt lat="44.57627" lon="5.64207">
        <ele>1172.84</ele>
        <time>2019-10-27T13:17:31Z</time>
      </trkpt>
      <trkpt lat="44.57628" lon="5.64209">
        <ele>1173.08</ele>
        <time>2019-10-27T13:17:32Z</time>
      </trkpt>
      <trkpt lat="44.57629" lon="5.6421">
        <ele>1173.3</ele>
        <time>2019-10-27T13:17:33Z</time>
      </trkpt>
      <trkpt lat="44.57631" lon="5.64212">
        <ele>1173.37</ele>
        <time>2019-10-27T13:17:34Z</time>
      </trkpt>
      <trkpt lat="44.57632" lon="5.64213">
        <ele>1173.41</ele>
        <time>2019-10-27T13:17:35Z</time>
      </trkpt>
      <trkpt lat="44.57632" lon="5.64215">
        <ele>1173.34</ele>
        <time>2019-10-27T13:17:36Z</time>
      </trkpt>
      <trkpt lat="44.57633" lon="5.64217">
        <ele>1173.26</ele>
        <time>2019-10-27T13:17:37Z</time>
      </trkpt>
      <trkpt lat="44.57645" lon="5.64242">
        <ele>1172.4</ele>
        <time>2019-10-27T13:17:53Z</time>
      </trkpt>
      <trkpt lat="44.57659" lon="5.64267">
        <ele>1170.99</ele>
        <time>2019-10-27T13:18:10Z</time>
      </trkpt>
      <trkpt lat="44.57677" lon="5.64291">
        <ele>1169.1</ele>
        <time>2019-10-27T13:18:28Z</time>
      </trkpt>
      <trkpt lat="44.57695" lon="5.64306">
        <ele>1171.88</ele>
        <time>2019-10-27T13:18:40Z</time>
      </trkpt>
      <trkpt lat="44.57734" lon="5.6432">
        <ele>1171.63</ele>
        <time>2019-10-27T13:18:54Z</time>
      </trkpt>
      <trkpt lat="44.57776" lon="5.64372">
        <ele>1171.56</ele>
        <time>2019-10-27T13:19:11Z</time>
      </trkpt>
      <trkpt lat="44.57823" lon="5.64427">
        <ele>1172.02</ele>
        <time>2019-10-27T13:19:29Z</time>
      </trkpt>
      <trkpt lat="44.57848" lon="5.64442">
        <ele>1171.29</ele>
        <time>2019-10-27T13:19:41Z</time>
      </trkpt>
      <trkpt lat="44.57874" lon="5.6444">
        <ele>1173.09</ele>
        <time>2019-10-27T13:20:01Z</time>
      </trkpt>
      <trkpt lat="44.57892" lon="5.64432">
        <ele>1174.86</ele>
        <time>2019-10-27T13:20:19Z</time>
      </trkpt>
      <trkpt lat="44.57911" lon="5.6445">
        <ele>1182.04</ele>
        <time>2019-10-27T13:20:38Z</time>
      </trkpt>
      <trkpt lat="44.57932" lon="5.64463">
        <ele>1178.69</ele>
        <time>2019-10-27T13:20:56Z</time>
      </trkpt>
      <trkpt lat="44.57957" lon="5.64464">
        <ele>1173.37</ele>
        <time>2019-10-27T13:21:16Z</time>
      </trkpt>
      <trkpt lat="44.57982" lon="5.64457">
        <ele>1168.05</ele>
        <time>2019-10-27T13:21:35Z</time>
      </trkpt>
      <trkpt lat="44.57993" lon="5.64475">
        <ele>1162.98</ele>
        <time>2019-10-27T13:21:50Z</time>
      </trkpt>
      <trkpt lat="44.58014" lon="5.64491">
        <ele>1158.49</ele>
        <time>2019-10-27T13:22:07Z</time>
      </trkpt>
      <trkpt lat="44.58036" lon="5.64507">
        <ele>1153.93</ele>
        <time>2019-10-27T13:22:25Z</time>
      </trkpt>
      <trkpt lat="44.58054" lon="5.64513">
        <ele>1150.12</ele>
        <time>2019-10-27T13:22:38Z</time>
      </trkpt>
      <trkpt lat="44.58077" lon="5.64519">
        <ele>1148.81</ele>
        <time>2019-10-27T13:22:55Z</time>
      </trkpt>
      <trkpt lat="44.58096" lon="5.64525">
        <ele>1156.6</ele>
        <time>2019-10-27T13:23:11Z</time>
      </trkpt>
      <trkpt lat="44.58113" lon="5.64532">
        <ele>1159.58</ele>
        <time>2019-10-27T13:23:25Z</time>
      </trkpt>
      <trkpt lat="44.58133" lon="5.64544">
        <ele>1160.04</ele>
        <time>2019-10-27T13:23:41Z</time>
      </trkpt>
      <trkpt lat="44.5814" lon="5.6455">
        <ele>1158.67</ele>
        <time>2019-10-27T13:23:47Z</time>
      </trkpt>
      <trkpt lat="44.58147" lon="5.64555">
        <ele>1158.82</ele>
        <time>2019-10-27T13:23:53Z</time>
      </trkpt>
      <trkpt lat="44.58148" lon="5.64556">
        <ele>1158.94</ele>
        <time>2019-10-27T13:23:54Z</time>
      </trkpt>
      <trkpt lat="44.5815" lon="5.64556">
        <ele>1159.13</ele>
        <time>2019-10-27T13:23:55Z</time>
      </trkpt>
      <trkpt lat="44.58151" lon="5.64556">
        <ele>1159.39</ele>
        <time>2019-10-27T13:23:56Z</time>
      </trkpt>
      <trkpt lat="44.58153" lon="5.64557">
        <ele>1159.88</ele>
        <time>2019-10-27T13:23:57Z</time>
      </trkpt>
      <trkpt lat="44.58154" lon="5.64557">
        <ele>1160.11</ele>
        <time>2019-10-27T13:23:58Z</time>
      </trkpt>
      <trkpt lat="44.58155" lon="5.64557">
        <ele>1160.48</ele>
        <time>2019-10-27T13:23:59Z</time>
      </trkpt>
      <trkpt lat="44.58156" lon="5.64558">
        <ele>1160.57</ele>
        <time>2019-10-27T13:24:00Z</time>
      </trkpt>
      <trkpt lat="44.5818" lon="5.64566">
        <ele>1159.83</ele>
        <time>2019-10-27T13:24:17Z</time>
      </trkpt>
      <trkpt lat="44.58204" lon="5.64573">
        <ele>1158.78</ele>
        <time>2019-10-27T13:24:35Z</time>
      </trkpt>
      <trkpt lat="44.58217" lon="5.64573">
        <ele>1155.48</ele>
        <time>2019-10-27T13:24:49Z</time>
      </trkpt>
      <trkpt lat="44.58237" lon="5.64579">
        <ele>1153.39</ele>
        <time>2019-10-27T13:25:05Z</time>
      </trkpt>
      <trkpt lat="44.58263" lon="5.64583">
        <ele>1151.43</ele>
        <time>2019-10-27T13:25:25Z</time>
      </trkpt>
      <trkpt lat="44.58268" lon="5.64583">
        <ele>1151.12</ele>
        <time>2019-10-27T13:25:29Z</time>
      </trkpt>
      <trkpt lat="44.58265" lon="5.64587">
        <ele>1150.29</ele>
        <time>2019-10-27T13:25:35Z</time>
      </trkpt>
      <trkpt lat="44.58256" lon="5.64584">
        <ele>1148.42</ele>
        <time>2019-10-27T13:25:48Z</time>
      </trkpt>
      <trkpt lat="44.5824" lon="5.64588">
        <ele>1146.8</ele>
        <time>2019-10-27T13:26:03Z</time>
      </trkpt>
      <trkpt lat="44.58229" lon="5.64588">
        <ele>1145.82</ele>
        <time>2019-10-27T13:26:16Z</time>
      </trkpt>
      <trkpt lat="44.5821" lon="5.64587">
        <ele>1144.06</ele>
        <time>2019-10-27T13:26:35Z</time>
      </trkpt>
      <trkpt lat="44.58181" lon="5.64592">
        <ele>1142.89</ele>
        <time>2019-10-27T13:26:55Z</time>
      </trkpt>
      <trkpt lat="44.58163" lon="5.64595">
        <ele>1140.5</ele>
        <time>2019-10-27T13:27:14Z</time>
      </trkpt>
      <trkpt lat="44.58135" lon="5.64606">
        <ele>1139.77</ele>
        <time>2019-10-27T13:27:33Z</time>
      </trkpt>
      <trkpt lat="44.58115" lon="5.64612">
        <ele>1138.85</ele>
        <time>2019-10-27T13:27:51Z</time>
      </trkpt>
      <trkpt lat="44.58111" lon="5.64613">
        <ele>1138.94</ele>
        <time>2019-10-27T13:27:54Z</time>
      </trkpt>
      <trkpt lat="44.58104" lon="5.64615">
        <ele>1138.8</ele>
        <time>2019-10-27T13:27:59Z</time>
      </trkpt>
      <trkpt lat="44.58093" lon="5.64618">
        <ele>1135.8</ele>
        <time>2019-10-27T13:28:16Z</time>
      </trkpt>
      <trkpt lat="44.58072" lon="5.64614">
        <ele>1136.57</ele>
        <time>2019-10-27T13:28:27Z</time>
      </trkpt>
      <trkpt lat="44.58048" lon="5.64607">
        <ele>1138.05</ele>
        <time>2019-10-27T13:28:36Z</time>
      </trkpt>
      <trkpt lat="44.58017" lon="5.64597">
        <ele>1143.68</ele>
        <time>2019-10-27T13:28:48Z</time>
      </trkpt>
      <trkpt lat="44.57986" lon="5.64593">
        <ele>1144.15</ele>
        <time>2019-10-27T13:29:03Z</time>
      </trkpt>
      <trkpt lat="44.57957" lon="5.6459">
        <ele>1145.87</ele>
        <time>2019-10-27T13:29:19Z</time>
      </trkpt>
      <trkpt lat="44.57937" lon="5.64592">
        <ele>1147.3</ele>
        <time>2019-10-27T13:29:31Z</time>
      </trkpt>
      <trkpt lat="44.57909" lon="5.64595">
        <ele>1149.94</ele>
        <time>2019-10-27T13:29:48Z</time>
      </trkpt>
      <trkpt lat="44.57892" lon="5.64601">
        <ele>1150.43</ele>
        <time>2019-10-27T13:29:58Z</time>
      </trkpt>
      <trkpt lat="44.57877" lon="5.64605">
        <ele>1148.47</ele>
        <time>2019-10-27T13:30:12Z</time>
      </trkpt>
      <trkpt lat="44.57858" lon="5.64599">
        <ele>1144.68</ele>
        <time>2019-10-27T13:30:30Z</time>
      </trkpt>
      <trkpt lat="44.57841" lon="5.64582">
        <ele>1130.41</ele>
        <time>2019-10-27T13:30:49Z</time>
      </trkpt>
      <trkpt lat="44.57825" lon="5.64578">
        <ele>1119.5</ele>
        <time>2019-10-27T13:31:02Z</time>
      </trkpt>
      <trkpt lat="44.57812" lon="5.64569">
        <ele>1114.53</ele>
        <time>2019-10-27T13:31:12Z</time>
      </trkpt>
      <trkpt lat="44.57811" lon="5.64567">
        <ele>1114.19</ele>
        <time>2019-10-27T13:31:13Z</time>
      </trkpt>
      <trkpt lat="44.578" lon="5.64559">
        <ele>1110.62</ele>
        <time>2019-10-27T13:31:25Z</time>
      </trkpt>
      <trkpt lat="44.5779" lon="5.64568">
        <ele>1109.16</ele>
        <time>2019-10-27T13:31:48Z</time>
      </trkpt>
      <trkpt lat="44.57783" lon="5.64569">
        <ele>1108.55</ele>
        <time>2019-10-27T13:32:13Z</time>
      </trkpt>
      <trkpt lat="44.57778" lon="5.6457">
        <ele>1107.77</ele>
        <time>2019-10-27T13:32:18Z</time>
      </trkpt>
      <trkpt lat="44.57777" lon="5.64571">
        <ele>1107.54</ele>
        <time>2019-10-27T13:32:19Z</time>
      </trkpt>
      <trkpt lat="44.57772" lon="5.64584">
        <ele>1107.08</ele>
        <time>2019-10-27T13:32:38Z</time>
      </trkpt>
      <trkpt lat="44.57771" lon="5.64601">
        <ele>1108.23</ele>
        <time>2019-10-27T13:33:00Z</time>
      </trkpt>
      <trkpt lat="44.57768" lon="5.64606">
        <ele>1108.28</ele>
        <time>2019-10-27T13:33:03Z</time>
      </trkpt>
      <trkpt lat="44.57768" lon="5.64608">
        <ele>1108.19</ele>
        <time>2019-10-27T13:33:04Z</time>
      </trkpt>
      <trkpt lat="44.57767" lon="5.64611">
        <ele>1108.04</ele>
        <time>2019-10-27T13:33:05Z</time>
      </trkpt>
      <trkpt lat="44.57766" lon="5.64615">
        <ele>1107.9</ele>
        <time>2019-10-27T13:33:06Z</time>
      </trkpt>
      <trkpt lat="44.57766" lon="5.64618">
        <ele>1107.85</ele>
        <time>2019-10-27T13:33:07Z</time>
      </trkpt>
      <trkpt lat="44.57767" lon="5.64622">
        <ele>1107.78</ele>
        <time>2019-10-27T13:33:08Z</time>
      </trkpt>
      <trkpt lat="44.57768" lon="5.64627">
        <ele>1107.51</ele>
        <time>2019-10-27T13:33:09Z</time>
      </trkpt>
      <trkpt lat="44.57779" lon="5.64667">
        <ele>1107.68</ele>
        <time>2019-10-27T13:33:18Z</time>
      </trkpt>
      <trkpt lat="44.57766" lon="5.6471">
        <ele>1108.03</ele>
        <time>2019-10-27T13:33:28Z</time>
      </trkpt>
      <trkpt lat="44.5775" lon="5.64751">
        <ele>1108.37</ele>
        <time>2019-10-27T13:33:36Z</time>
      </trkpt>
      <trkpt lat="44.57749" lon="5.64774">
        <ele>1109.33</ele>
        <time>2019-10-27T13:33:40Z</time>
      </trkpt>
      <trkpt lat="44.57749" lon="5.64793">
        <ele>1110.21</ele>
        <time>2019-10-27T13:33:43Z</time>
      </trkpt>
      <trkpt lat="44.57746" lon="5.64805">
        <ele>1111.42</ele>
        <time>2019-10-27T13:33:45Z</time>
      </trkpt>
      <trkpt lat="44.57729" lon="5.64827">
        <ele>1115.33</ele>
        <time>2019-10-27T13:33:50Z</time>
      </trkpt>
      <trkpt lat="44.57724" lon="5.64836">
        <ele>1117.75</ele>
        <time>2019-10-27T13:33:52Z</time>
      </trkpt>
      <trkpt lat="44.57705" lon="5.64861">
        <ele>1124.28</ele>
        <time>2019-10-27T13:33:58Z</time>
      </trkpt>
      <trkpt lat="44.5769" lon="5.6489">
        <ele>1127.65</ele>
        <time>2019-10-27T13:34:03Z</time>
      </trkpt>
      <trkpt lat="44.57673" lon="5.64903">
        <ele>1129.81</ele>
        <time>2019-10-27T13:34:07Z</time>
      </trkpt>
      <trkpt lat="44.57654" lon="5.64927">
        <ele>1132.73</ele>
        <time>2019-10-27T13:34:15Z</time>
      </trkpt>
      <trkpt lat="44.57651" lon="5.64933">
        <ele>1134.3</ele>
        <time>2019-10-27T13:34:17Z</time>
      </trkpt>
      <trkpt lat="44.57649" lon="5.6494">
        <ele>1137.22</ele>
        <time>2019-10-27T13:34:20Z</time>
      </trkpt>
      <trkpt lat="44.57645" lon="5.64955">
        <ele>1138.7</ele>
        <time>2019-10-27T13:34:32Z</time>
      </trkpt>
      <trkpt lat="44.5762" lon="5.64968">
        <ele>1138.07</ele>
        <time>2019-10-27T13:34:49Z</time>
      </trkpt>
      <trkpt lat="44.57599" lon="5.64986">
        <ele>1137.19</ele>
        <time>2019-10-27T13:35:02Z</time>
      </trkpt>
      <trkpt lat="44.5759" lon="5.64999">
        <ele>1135.84</ele>
        <time>2019-10-27T13:35:11Z</time>
      </trkpt>
      <trkpt lat="44.57579" lon="5.65012">
        <ele>1134.95</ele>
        <time>2019-10-27T13:35:24Z</time>
      </trkpt>
      <trkpt lat="44.5757" lon="5.6504">
        <ele>1139.42</ele>
        <time>2019-10-27T13:35:44Z</time>
      </trkpt>
      <trkpt lat="44.57558" lon="5.65072">
        <ele>1145.74</ele>
        <time>2019-10-27T13:36:04Z</time>
      </trkpt>
      <trkpt lat="44.57548" lon="5.65099">
        <ele>1152.6</ele>
        <time>2019-10-27T13:36:24Z</time>
      </trkpt>
      <trkpt lat="44.57531" lon="5.65134">
        <ele>1154.68</ele>
        <time>2019-10-27T13:36:44Z</time>
      </trkpt>
      <trkpt lat="44.57523" lon="5.6515">
        <ele>1159.42</ele>
        <time>2019-10-27T13:37:05Z</time>
      </trkpt>
      <trkpt lat="44.57513" lon="5.65158">
        <ele>1160.44</ele>
        <time>2019-10-27T13:37:25Z</time>
      </trkpt>
      <trkpt lat="44.57502" lon="5.65167">
        <ele>1159.89</ele>
        <time>2019-10-27T13:37:38Z</time>
      </trkpt>
      <trkpt lat="44.57483" lon="5.65184">
        <ele>1160.19</ele>
        <time>2019-10-27T13:37:55Z</time>
      </trkpt>
      <trkpt lat="44.5747" lon="5.65203">
        <ele>1162.98</ele>
        <time>2019-10-27T13:38:10Z</time>
      </trkpt>
      <trkpt lat="44.57461" lon="5.65226">
        <ele>1166.55</ele>
        <time>2019-10-27T13:38:28Z</time>
      </trkpt>
      <trkpt lat="44.57454" lon="5.6525">
        <ele>1171.73</ele>
        <time>2019-10-27T13:38:47Z</time>
      </trkpt>
      <trkpt lat="44.57445" lon="5.65257">
        <ele>1173.55</ele>
        <time>2019-10-27T13:38:53Z</time>
      </trkpt>
      <trkpt lat="44.57437" lon="5.65267">
        <ele>1175.61</ele>
        <time>2019-10-27T13:38:58Z</time>
      </trkpt>
      <trkpt lat="44.57424" lon="5.65288">
        <ele>1176.86</ele>
        <time>2019-10-27T13:39:13Z</time>
      </trkpt>
      <trkpt lat="44.57423" lon="5.65306">
        <ele>1177.25</ele>
        <time>2019-10-27T13:39:31Z</time>
      </trkpt>
      <trkpt lat="44.57416" lon="5.65324">
        <ele>1175.89</ele>
        <time>2019-10-27T13:39:49Z</time>
      </trkpt>
      <trkpt lat="44.57413" lon="5.65358">
        <ele>1176.45</ele>
        <time>2019-10-27T13:40:08Z</time>
      </trkpt>
      <trkpt lat="44.57419" lon="5.65372">
        <ele>1177.64</ele>
        <time>2019-10-27T13:40:15Z</time>
      </trkpt>
      <trkpt lat="44.57435" lon="5.65405">
        <ele>1178.94</ele>
        <time>2019-10-27T13:40:32Z</time>
      </trkpt>
      <trkpt lat="44.5744" lon="5.65426">
        <ele>1178.97</ele>
        <time>2019-10-27T13:40:52Z</time>
      </trkpt>
      <trkpt lat="44.57445" lon="5.6543">
        <ele>1179.01</ele>
        <time>2019-10-27T13:40:56Z</time>
      </trkpt>
      <trkpt lat="44.57459" lon="5.65442">
        <ele>1177.95</ele>
        <time>2019-10-27T13:41:17Z</time>
      </trkpt>
      <trkpt lat="44.57475" lon="5.65461">
        <ele>1177.28</ele>
        <time>2019-10-27T13:41:36Z</time>
      </trkpt>
      <trkpt lat="44.57494" lon="5.65483">
        <ele>1175.9</ele>
        <time>2019-10-27T13:41:55Z</time>
      </trkpt>
      <trkpt lat="44.57508" lon="5.65493">
        <ele>1177.21</ele>
        <time>2019-10-27T13:42:10Z</time>
      </trkpt>
      <trkpt lat="44.57518" lon="5.65497">
        <ele>1175.95</ele>
        <time>2019-10-27T13:42:30Z</time>
      </trkpt>
      <trkpt lat="44.57526" lon="5.655">
        <ele>1175.65</ele>
        <time>2019-10-27T13:42:37Z</time>
      </trkpt>
      <trkpt lat="44.57539" lon="5.65505">
        <ele>1175.24</ele>
        <time>2019-10-27T13:42:49Z</time>
      </trkpt>
      <trkpt lat="44.57545" lon="5.65504">
        <ele>1175.16</ele>
        <time>2019-10-27T13:42:53Z</time>
      </trkpt>
      <trkpt lat="44.57552" lon="5.65504">
        <ele>1174</ele>
        <time>2019-10-27T13:42:59Z</time>
      </trkpt>
      <trkpt lat="44.57562" lon="5.65505">
        <ele>1173.96</ele>
        <time>2019-10-27T13:43:07Z</time>
      </trkpt>
      <trkpt lat="44.57578" lon="5.65512">
        <ele>1173.09</ele>
        <time>2019-10-27T13:43:20Z</time>
      </trkpt>
      <trkpt lat="44.5758" lon="5.65513">
        <ele>1172.77</ele>
        <time>2019-10-27T13:43:22Z</time>
      </trkpt>
      <trkpt lat="44.57588" lon="5.65515">
        <ele>1171.75</ele>
        <time>2019-10-27T13:43:27Z</time>
      </trkpt>
      <trkpt lat="44.57599" lon="5.65523">
        <ele>1170.37</ele>
        <time>2019-10-27T13:43:39Z</time>
      </trkpt>
      <trkpt lat="44.57615" lon="5.65544">
        <ele>1164.15</ele>
        <time>2019-10-27T13:43:57Z</time>
      </trkpt>
      <trkpt lat="44.57623" lon="5.6556">
        <ele>1160.81</ele>
        <time>2019-10-27T13:44:12Z</time>
      </trkpt>
      <trkpt lat="44.57625" lon="5.65565">
        <ele>1158.62</ele>
        <time>2019-10-27T13:44:32Z</time>
      </trkpt>
      <trkpt lat="44.57626" lon="5.6557">
        <ele>1157.93</ele>
        <time>2019-10-27T13:44:53Z</time>
      </trkpt>
      <trkpt lat="44.57617" lon="5.65587">
        <ele>1155.93</ele>
        <time>2019-10-27T13:45:09Z</time>
      </trkpt>
      <trkpt lat="44.57612" lon="5.65597">
        <ele>1155.34</ele>
        <time>2019-10-27T13:45:17Z</time>
      </trkpt>
      <trkpt lat="44.57609" lon="5.65606">
        <ele>1155.31</ele>
        <time>2019-10-27T13:45:23Z</time>
      </trkpt>
      <trkpt lat="44.57601" lon="5.6563">
        <ele>1154.5</ele>
        <time>2019-10-27T13:45:39Z</time>
      </trkpt>
      <trkpt lat="44.57601" lon="5.65632">
        <ele>1154.22</ele>
        <time>2019-10-27T13:45:40Z</time>
      </trkpt>
      <trkpt lat="44.57596" lon="5.65661">
        <ele>1150.85</ele>
        <time>2019-10-27T13:45:56Z</time>
      </trkpt>
      <trkpt lat="44.57595" lon="5.65669">
        <ele>1149.45</ele>
        <time>2019-10-27T13:46:00Z</time>
      </trkpt>
      <trkpt lat="44.57584" lon="5.65694">
        <ele>1146.63</ele>
        <time>2019-10-27T13:46:17Z</time>
      </trkpt>
      <trkpt lat="44.57579" lon="5.65723">
        <ele>1143.32</ele>
        <time>2019-10-27T13:46:33Z</time>
      </trkpt>
      <trkpt lat="44.57575" lon="5.65757">
        <ele>1141.1</ele>
        <time>2019-10-27T13:46:50Z</time>
      </trkpt>
      <trkpt lat="44.57575" lon="5.65761">
        <ele>1141.05</ele>
        <time>2019-10-27T13:46:52Z</time>
      </trkpt>
      <trkpt lat="44.57569" lon="5.65777">
        <ele>1139.79</ele>
        <time>2019-10-27T13:47:02Z</time>
      </trkpt>
      <trkpt lat="44.5756" lon="5.6579">
        <ele>1138.53</ele>
        <time>2019-10-27T13:47:12Z</time>
      </trkpt>
      <trkpt lat="44.57551" lon="5.65809">
        <ele>1135.94</ele>
        <time>2019-10-27T13:47:27Z</time>
      </trkpt>
      <trkpt lat="44.57547" lon="5.65815">
        <ele>1135.08</ele>
        <time>2019-10-27T13:47:32Z</time>
      </trkpt>
      <trkpt lat="44.57544" lon="5.65829">
        <ele>1134.49</ele>
        <time>2019-10-27T13:47:42Z</time>
      </trkpt>
      <trkpt lat="44.57541" lon="5.65859">
        <ele>1135.27</ele>
        <time>2019-10-27T13:48:02Z</time>
      </trkpt>
      <trkpt lat="44.57537" lon="5.65883">
        <ele>1137.58</ele>
        <time>2019-10-27T13:48:16Z</time>
      </trkpt>
      <trkpt lat="44.57535" lon="5.65918">
        <ele>1142.23</ele>
        <time>2019-10-27T13:48:37Z</time>
      </trkpt>
      <trkpt lat="44.57531" lon="5.65955">
        <ele>1145.92</ele>
        <time>2019-10-27T13:48:56Z</time>
      </trkpt>
      <trkpt lat="44.57519" lon="5.65988">
        <ele>1150.78</ele>
        <time>2019-10-27T13:49:16Z</time>
      </trkpt>
      <trkpt lat="44.57517" lon="5.66029">
        <ele>1156.46</ele>
        <time>2019-10-27T13:49:37Z</time>
      </trkpt>
      <trkpt lat="44.57515" lon="5.66067">
        <ele>1162.13</ele>
        <time>2019-10-27T13:49:57Z</time>
      </trkpt>
      <trkpt lat="44.57516" lon="5.6611">
        <ele>1164.9</ele>
        <time>2019-10-27T13:50:17Z</time>
      </trkpt>
      <trkpt lat="44.57516" lon="5.66142">
        <ele>1164.83</ele>
        <time>2019-10-27T13:50:37Z</time>
      </trkpt>
      <trkpt lat="44.57516" lon="5.66174">
        <ele>1167.48</ele>
        <time>2019-10-27T13:50:57Z</time>
      </trkpt>
      <trkpt lat="44.57519" lon="5.66193">
        <ele>1159.35</ele>
        <time>2019-10-27T13:51:23Z</time>
      </trkpt>
      <trkpt lat="44.57518" lon="5.66194">
        <ele>1152.76</ele>
        <time>2019-10-27T13:51:46Z</time>
      </trkpt>
      <trkpt lat="44.5752" lon="5.66197">
        <ele>1147.61</ele>
        <time>2019-10-27T13:52:12Z</time>
      </trkpt>
      <trkpt lat="44.57518" lon="5.66222">
        <ele>1143.57</ele>
        <time>2019-10-27T13:52:32Z</time>
      </trkpt>
      <trkpt lat="44.57515" lon="5.66255">
        <ele>1142.89</ele>
        <time>2019-10-27T13:52:51Z</time>
      </trkpt>
      <trkpt lat="44.57516" lon="5.66297">
        <ele>1145.81</ele>
        <time>2019-10-27T13:53:14Z</time>
      </trkpt>
      <trkpt lat="44.57517" lon="5.6633">
        <ele>1149.14</ele>
        <time>2019-10-27T13:53:34Z</time>
      </trkpt>
      <trkpt lat="44.57514" lon="5.66362">
        <ele>1151.34</ele>
        <time>2019-10-27T13:53:52Z</time>
      </trkpt>
      <trkpt lat="44.57513" lon="5.66403">
        <ele>1152.49</ele>
        <time>2019-10-27T13:54:12Z</time>
      </trkpt>
      <trkpt lat="44.57512" lon="5.66436">
        <ele>1151.85</ele>
        <time>2019-10-27T13:54:30Z</time>
      </trkpt>
      <trkpt lat="44.57513" lon="5.66438">
        <ele>1152.07</ele>
        <time>2019-10-27T13:54:31Z</time>
      </trkpt>
      <trkpt lat="44.57511" lon="5.6647">
        <ele>1154.4</ele>
        <time>2019-10-27T13:54:47Z</time>
      </trkpt>
      <trkpt lat="44.57509" lon="5.66476">
        <ele>1154.51</ele>
        <time>2019-10-27T13:54:50Z</time>
      </trkpt>
      <trkpt lat="44.57506" lon="5.66501">
        <ele>1153.1</ele>
        <time>2019-10-27T13:55:01Z</time>
      </trkpt>
      <trkpt lat="44.57497" lon="5.66526">
        <ele>1148.72</ele>
        <time>2019-10-27T13:55:17Z</time>
      </trkpt>
      <trkpt lat="44.57489" lon="5.66545">
        <ele>1145.86</ele>
        <time>2019-10-27T13:55:30Z</time>
      </trkpt>
      <trkpt lat="44.57489" lon="5.66547">
        <ele>1145.83</ele>
        <time>2019-10-27T13:55:31Z</time>
      </trkpt>
      <trkpt lat="44.57488" lon="5.6655">
        <ele>1145.32</ele>
        <time>2019-10-27T13:55:33Z</time>
      </trkpt>
      <trkpt lat="44.57474" lon="5.66568">
        <ele>1137.82</ele>
        <time>2019-10-27T13:55:48Z</time>
      </trkpt>
      <trkpt lat="44.57458" lon="5.66573">
        <ele>1125.59</ele>
        <time>2019-10-27T13:56:04Z</time>
      </trkpt>
      <trkpt lat="44.57447" lon="5.66578">
        <ele>1119.39</ele>
        <time>2019-10-27T13:56:18Z</time>
      </trkpt>
      <trkpt lat="44.57428" lon="5.66583">
        <ele>1115.26</ele>
        <time>2019-10-27T13:56:35Z</time>
      </trkpt>
      <trkpt lat="44.57409" lon="5.66585">
        <ele>1111.95</ele>
        <time>2019-10-27T13:56:54Z</time>
      </trkpt>
      <trkpt lat="44.57382" lon="5.66593">
        <ele>1111.19</ele>
        <time>2019-10-27T13:57:12Z</time>
      </trkpt>
      <trkpt lat="44.57354" lon="5.66593">
        <ele>1111.5</ele>
        <time>2019-10-27T13:57:23Z</time>
      </trkpt>
      <trkpt lat="44.57326" lon="5.6659">
        <ele>1113.9</ele>
        <time>2019-10-27T13:57:32Z</time>
      </trkpt>
      <trkpt lat="44.57309" lon="5.66592">
        <ele>1115.47</ele>
        <time>2019-10-27T13:57:35Z</time>
      </trkpt>
      <trkpt lat="44.57286" lon="5.66596">
        <ele>1114.91</ele>
        <time>2019-10-27T13:57:39Z</time>
      </trkpt>
      <trkpt lat="44.57257" lon="5.66603">
        <ele>1115.71</ele>
        <time>2019-10-27T13:57:44Z</time>
      </trkpt>
      <trkpt lat="44.57245" lon="5.66607">
        <ele>1115</ele>
        <time>2019-10-27T13:57:46Z</time>
      </trkpt>
      <trkpt lat="44.57218" lon="5.66612">
        <ele>1114.47</ele>
        <time>2019-10-27T13:57:51Z</time>
      </trkpt>
      <trkpt lat="44.57178" lon="5.6662">
        <ele>1112.82</ele>
        <time>2019-10-27T13:57:58Z</time>
      </trkpt>
      <trkpt lat="44.57136" lon="5.66621">
        <ele>1109.66</ele>
        <time>2019-10-27T13:58:06Z</time>
      </trkpt>
      <trkpt lat="44.57128" lon="5.66622">
        <ele>1108.45</ele>
        <time>2019-10-27T13:58:08Z</time>
      </trkpt>
      <trkpt lat="44.57123" lon="5.66621">
        <ele>1108.28</ele>
        <time>2019-10-27T13:58:09Z</time>
      </trkpt>
      <trkpt lat="44.57118" lon="5.66621">
        <ele>1108</ele>
        <time>2019-10-27T13:58:10Z</time>
      </trkpt>
      <trkpt lat="44.57114" lon="5.66621">
        <ele>1107.59</ele>
        <time>2019-10-27T13:58:11Z</time>
      </trkpt>
      <trkpt lat="44.57112" lon="5.66622">
        <ele>1107.49</ele>
        <time>2019-10-27T13:58:12Z</time>
      </trkpt>
      <trkpt lat="44.57108" lon="5.66623">
        <ele>1107.58</ele>
        <time>2019-10-27T13:58:13Z</time>
      </trkpt>
      <trkpt lat="44.57087" lon="5.66633">
        <ele>1112.1</ele>
        <time>2019-10-27T13:58:21Z</time>
      </trkpt>
      <trkpt lat="44.57085" lon="5.66637">
        <ele>1113.11</ele>
        <time>2019-10-27T13:58:23Z</time>
      </trkpt>
      <trkpt lat="44.57086" lon="5.66638">
        <ele>1113.72</ele>
        <time>2019-10-27T13:58:24Z</time>
      </trkpt>
      <trkpt lat="44.57086" lon="5.66639">
        <ele>1113.86</ele>
        <time>2019-10-27T13:58:25Z</time>
      </trkpt>
      <trkpt lat="44.57087" lon="5.6664">
        <ele>1114.19</ele>
        <time>2019-10-27T13:58:26Z</time>
      </trkpt>
      <trkpt lat="44.57097" lon="5.66652">
        <ele>1115.64</ele>
        <time>2019-10-27T13:58:37Z</time>
      </trkpt>
      <trkpt lat="44.57098" lon="5.66653">
        <ele>1115.55</ele>
        <time>2019-10-27T13:58:38Z</time>
      </trkpt>
      <trkpt lat="44.57099" lon="5.66654">
        <ele>1115.66</ele>
        <time>2019-10-27T13:58:39Z</time>
      </trkpt>
      <trkpt lat="44.571" lon="5.66654">
        <ele>1115.72</ele>
        <time>2019-10-27T13:58:40Z</time>
      </trkpt>
      <trkpt lat="44.57101" lon="5.66655">
        <ele>1115.95</ele>
        <time>2019-10-27T13:58:41Z</time>
      </trkpt>
      <trkpt lat="44.57118" lon="5.66665">
        <ele>1116.65</ele>
        <time>2019-10-27T13:58:57Z</time>
      </trkpt>
      <trkpt lat="44.57134" lon="5.66674">
        <ele>1115.29</ele>
        <time>2019-10-27T13:59:11Z</time>
      </trkpt>
      <trkpt lat="44.57149" lon="5.66681">
        <ele>1115.5</ele>
        <time>2019-10-27T13:59:25Z</time>
      </trkpt>
      <trkpt lat="44.57167" lon="5.66688">
        <ele>1115.7</ele>
        <time>2019-10-27T13:59:40Z</time>
      </trkpt>
      <trkpt lat="44.57177" lon="5.6669">
        <ele>1114.21</ele>
        <time>2019-10-27T13:59:48Z</time>
      </trkpt>
      <trkpt lat="44.57178" lon="5.6669">
        <ele>1113.88</ele>
        <time>2019-10-27T13:59:49Z</time>
      </trkpt>
      <trkpt lat="44.57194" lon="5.66695">
        <ele>1111.35</ele>
        <time>2019-10-27T14:00:02Z</time>
      </trkpt>
      <trkpt lat="44.5721" lon="5.66697">
        <ele>1111.36</ele>
        <time>2019-10-27T14:00:14Z</time>
      </trkpt>
      <trkpt lat="44.57211" lon="5.66697">
        <ele>1111.44</ele>
        <time>2019-10-27T14:00:15Z</time>
      </trkpt>
      <trkpt lat="44.57212" lon="5.66697">
        <ele>1111.38</ele>
        <time>2019-10-27T14:00:16Z</time>
      </trkpt>
      <trkpt lat="44.57213" lon="5.66697">
        <ele>1111.5</ele>
        <time>2019-10-27T14:00:17Z</time>
      </trkpt>
      <trkpt lat="44.57214" lon="5.66697">
        <ele>1111.1</ele>
        <time>2019-10-27T14:00:18Z</time>
      </trkpt>
      <trkpt lat="44.57228" lon="5.66699">
        <ele>1109.09</ele>
        <time>2019-10-27T14:00:30Z</time>
      </trkpt>
      <trkpt lat="44.5723" lon="5.667">
        <ele>1108.68</ele>
        <time>2019-10-27T14:00:32Z</time>
      </trkpt>
      <trkpt lat="44.57232" lon="5.667">
        <ele>1108.54</ele>
        <time>2019-10-27T14:00:33Z</time>
      </trkpt>
      <trkpt lat="44.57233" lon="5.667">
        <ele>1108.42</ele>
        <time>2019-10-27T14:00:34Z</time>
      </trkpt>
      <trkpt lat="44.57236" lon="5.66701">
        <ele>1108.2</ele>
        <time>2019-10-27T14:00:37Z</time>
      </trkpt>
      <trkpt lat="44.57237" lon="5.66702">
        <ele>1107.92</ele>
        <time>2019-10-27T14:00:38Z</time>
      </trkpt>
      <trkpt lat="44.57238" lon="5.66703">
        <ele>1107.72</ele>
        <time>2019-10-27T14:00:39Z</time>
      </trkpt>
      <trkpt lat="44.57239" lon="5.66703">
        <ele>1107.36</ele>
        <time>2019-10-27T14:00:40Z</time>
      </trkpt>
      <trkpt lat="44.5724" lon="5.66704">
        <ele>1106.88</ele>
        <time>2019-10-27T14:00:41Z</time>
      </trkpt>
      <trkpt lat="44.57245" lon="5.66708">
        <ele>1105.56</ele>
        <time>2019-10-27T14:00:45Z</time>
      </trkpt>
      <trkpt lat="44.57246" lon="5.66708">
        <ele>1105.4</ele>
        <time>2019-10-27T14:00:46Z</time>
      </trkpt>
      <trkpt lat="44.57247" lon="5.66709">
        <ele>1105.33</ele>
        <time>2019-10-27T14:00:47Z</time>
      </trkpt>
      <trkpt lat="44.57248" lon="5.6671">
        <ele>1105.25</ele>
        <time>2019-10-27T14:00:48Z</time>
      </trkpt>
      <trkpt lat="44.57249" lon="5.6671">
        <ele>1105.14</ele>
        <time>2019-10-27T14:00:49Z</time>
      </trkpt>
      <trkpt lat="44.5725" lon="5.66711">
        <ele>1105.04</ele>
        <time>2019-10-27T14:00:50Z</time>
      </trkpt>
      <trkpt lat="44.57272" lon="5.66722">
        <ele>1103.36</ele>
        <time>2019-10-27T14:01:07Z</time>
      </trkpt>
      <trkpt lat="44.57276" lon="5.66723">
        <ele>1103.64</ele>
        <time>2019-10-27T14:01:11Z</time>
      </trkpt>
      <trkpt lat="44.5728" lon="5.66725">
        <ele>1104.86</ele>
        <time>2019-10-27T14:01:15Z</time>
      </trkpt>
      <trkpt lat="44.57281" lon="5.66726">
        <ele>1105.08</ele>
        <time>2019-10-27T14:01:16Z</time>
      </trkpt>
      <trkpt lat="44.57282" lon="5.66726">
        <ele>1105.31</ele>
        <time>2019-10-27T14:01:17Z</time>
      </trkpt>
      <trkpt lat="44.57283" lon="5.66726">
        <ele>1105.47</ele>
        <time>2019-10-27T14:01:18Z</time>
      </trkpt>
      <trkpt lat="44.57284" lon="5.66726">
        <ele>1105.69</ele>
        <time>2019-10-27T14:01:19Z</time>
      </trkpt>
      <trkpt lat="44.57298" lon="5.6673">
        <ele>1108.8</ele>
        <time>2019-10-27T14:01:33Z</time>
      </trkpt>
      <trkpt lat="44.57313" lon="5.66742">
        <ele>1111.01</ele>
        <time>2019-10-27T14:01:46Z</time>
      </trkpt>
      <trkpt lat="44.57315" lon="5.66743">
        <ele>1111.1</ele>
        <time>2019-10-27T14:01:47Z</time>
      </trkpt>
      <trkpt lat="44.57316" lon="5.66744">
        <ele>1111.23</ele>
        <time>2019-10-27T14:01:48Z</time>
      </trkpt>
      <trkpt lat="44.57333" lon="5.66754">
        <ele>1111.73</ele>
        <time>2019-10-27T14:02:04Z</time>
      </trkpt>
      <trkpt lat="44.57354" lon="5.6677">
        <ele>1111.77</ele>
        <time>2019-10-27T14:02:21Z</time>
      </trkpt>
      <trkpt lat="44.57363" lon="5.66769">
        <ele>1115.01</ele>
        <time>2019-10-27T14:02:32Z</time>
      </trkpt>
      <trkpt lat="44.57386" lon="5.66769">
        <ele>1121.91</ele>
        <time>2019-10-27T14:02:54Z</time>
      </trkpt>
      <trkpt lat="44.5741" lon="5.66777">
        <ele>1127.01</ele>
        <time>2019-10-27T14:03:13Z</time>
      </trkpt>
      <trkpt lat="44.57431" lon="5.66782">
        <ele>1129.99</ele>
        <time>2019-10-27T14:03:28Z</time>
      </trkpt>
      <trkpt lat="44.57454" lon="5.66785">
        <ele>1128.94</ele>
        <time>2019-10-27T14:03:46Z</time>
      </trkpt>
      <trkpt lat="44.57472" lon="5.66788">
        <ele>1127.87</ele>
        <time>2019-10-27T14:04:00Z</time>
      </trkpt>
      <trkpt lat="44.575" lon="5.668">
        <ele>1124.09</ele>
        <time>2019-10-27T14:04:18Z</time>
      </trkpt>
      <trkpt lat="44.57522" lon="5.66803">
        <ele>1120.58</ele>
        <time>2019-10-27T14:04:37Z</time>
      </trkpt>
      <trkpt lat="44.57544" lon="5.66808">
        <ele>1118.94</ele>
        <time>2019-10-27T14:04:52Z</time>
      </trkpt>
      <trkpt lat="44.57565" lon="5.66826">
        <ele>1110.78</ele>
        <time>2019-10-27T14:05:08Z</time>
      </trkpt>
      <trkpt lat="44.57576" lon="5.66849">
        <ele>1101.41</ele>
        <time>2019-10-27T14:05:23Z</time>
      </trkpt>
      <trkpt lat="44.5758" lon="5.66859">
        <ele>1097.65</ele>
        <time>2019-10-27T14:05:30Z</time>
      </trkpt>
      <trkpt lat="44.57581" lon="5.6686">
        <ele>1097.37</ele>
        <time>2019-10-27T14:05:31Z</time>
      </trkpt>
      <trkpt lat="44.57582" lon="5.66861">
        <ele>1097.04</ele>
        <time>2019-10-27T14:05:32Z</time>
      </trkpt>
      <trkpt lat="44.57583" lon="5.66862">
        <ele>1096.67</ele>
        <time>2019-10-27T14:05:33Z</time>
      </trkpt>
      <trkpt lat="44.57584" lon="5.66864">
        <ele>1096.46</ele>
        <time>2019-10-27T14:05:34Z</time>
      </trkpt>
      <trkpt lat="44.57591" lon="5.66876">
        <ele>1094.55</ele>
        <time>2019-10-27T14:05:44Z</time>
      </trkpt>
      <trkpt lat="44.57592" lon="5.66878">
        <ele>1094.37</ele>
        <time>2019-10-27T14:05:45Z</time>
      </trkpt>
      <trkpt lat="44.57598" lon="5.66883">
        <ele>1092.52</ele>
        <time>2019-10-27T14:06:00Z</time>
      </trkpt>
      <trkpt lat="44.57607" lon="5.66898">
        <ele>1090.1</ele>
        <time>2019-10-27T14:06:19Z</time>
      </trkpt>
      <trkpt lat="44.5762" lon="5.66913">
        <ele>1089.29</ele>
        <time>2019-10-27T14:06:34Z</time>
      </trkpt>
      <trkpt lat="44.57627" lon="5.66918">
        <ele>1088.85</ele>
        <time>2019-10-27T14:06:39Z</time>
      </trkpt>
      <trkpt lat="44.57629" lon="5.6692">
        <ele>1088.81</ele>
        <time>2019-10-27T14:06:41Z</time>
      </trkpt>
      <trkpt lat="44.57642" lon="5.66937">
        <ele>1086.97</ele>
        <time>2019-10-27T14:06:55Z</time>
      </trkpt>
      <trkpt lat="44.57657" lon="5.66955">
        <ele>1083.66</ele>
        <time>2019-10-27T14:07:10Z</time>
      </trkpt>
      <trkpt lat="44.57671" lon="5.66973">
        <ele>1081.4</ele>
        <time>2019-10-27T14:07:30Z</time>
      </trkpt>
      <trkpt lat="44.57688" lon="5.66992">
        <ele>1081.51</ele>
        <time>2019-10-27T14:07:51Z</time>
      </trkpt>
      <trkpt lat="44.57708" lon="5.67005">
        <ele>1081.69</ele>
        <time>2019-10-27T14:08:13Z</time>
      </trkpt>
      <trkpt lat="44.57719" lon="5.67012">
        <ele>1081.43</ele>
        <time>2019-10-27T14:08:23Z</time>
      </trkpt>
      <trkpt lat="44.57739" lon="5.67024">
        <ele>1078.58</ele>
        <time>2019-10-27T14:08:41Z</time>
      </trkpt>
      <trkpt lat="44.57764" lon="5.67043">
        <ele>1076.93</ele>
        <time>2019-10-27T14:09:00Z</time>
      </trkpt>
      <trkpt lat="44.57772" lon="5.67049">
        <ele>1075.63</ele>
        <time>2019-10-27T14:09:06Z</time>
      </trkpt>
      <trkpt lat="44.57773" lon="5.6705">
        <ele>1075.52</ele>
        <time>2019-10-27T14:09:07Z</time>
      </trkpt>
      <trkpt lat="44.57775" lon="5.67051">
        <ele>1075.2</ele>
        <time>2019-10-27T14:09:08Z</time>
      </trkpt>
      <trkpt lat="44.57776" lon="5.67051">
        <ele>1074.79</ele>
        <time>2019-10-27T14:09:09Z</time>
      </trkpt>
      <trkpt lat="44.57777" lon="5.67052">
        <ele>1074.49</ele>
        <time>2019-10-27T14:09:10Z</time>
      </trkpt>
      <trkpt lat="44.57783" lon="5.67052">
        <ele>1073.87</ele>
        <time>2019-10-27T14:09:15Z</time>
      </trkpt>
      <trkpt lat="44.57802" lon="5.67053">
        <ele>1074.37</ele>
        <time>2019-10-27T14:09:32Z</time>
      </trkpt>
      <trkpt lat="44.57804" lon="5.67052">
        <ele>1074.48</ele>
        <time>2019-10-27T14:09:33Z</time>
      </trkpt>
      <trkpt lat="44.57809" lon="5.67053">
        <ele>1075.31</ele>
        <time>2019-10-27T14:09:38Z</time>
      </trkpt>
      <trkpt lat="44.57824" lon="5.67057">
        <ele>1077.09</ele>
        <time>2019-10-27T14:09:52Z</time>
      </trkpt>
      <trkpt lat="44.57842" lon="5.67062">
        <ele>1076.67</ele>
        <time>2019-10-27T14:10:07Z</time>
      </trkpt>
      <trkpt lat="44.57854" lon="5.67068">
        <ele>1076.9</ele>
        <time>2019-10-27T14:10:18Z</time>
      </trkpt>
      <trkpt lat="44.57856" lon="5.67068">
        <ele>1076.82</ele>
        <time>2019-10-27T14:10:19Z</time>
      </trkpt>
      <trkpt lat="44.57857" lon="5.67069">
        <ele>1076.51</ele>
        <time>2019-10-27T14:10:20Z</time>
      </trkpt>
      <trkpt lat="44.57858" lon="5.6707">
        <ele>1076.23</ele>
        <time>2019-10-27T14:10:21Z</time>
      </trkpt>
      <trkpt lat="44.5786" lon="5.67072">
        <ele>1075.82</ele>
        <time>2019-10-27T14:10:22Z</time>
      </trkpt>
      <trkpt lat="44.57861" lon="5.67073">
        <ele>1075.56</ele>
        <time>2019-10-27T14:10:23Z</time>
      </trkpt>
      <trkpt lat="44.57862" lon="5.67074">
        <ele>1075.36</ele>
        <time>2019-10-27T14:10:24Z</time>
      </trkpt>
      <trkpt lat="44.57873" lon="5.67089">
        <ele>1075.68</ele>
        <time>2019-10-27T14:10:37Z</time>
      </trkpt>
      <trkpt lat="44.57887" lon="5.67103">
        <ele>1075.08</ele>
        <time>2019-10-27T14:10:50Z</time>
      </trkpt>
      <trkpt lat="44.57895" lon="5.67118">
        <ele>1073.77</ele>
        <time>2019-10-27T14:11:00Z</time>
      </trkpt>
      <trkpt lat="44.57906" lon="5.67137">
        <ele>1070.73</ele>
        <time>2019-10-27T14:11:13Z</time>
      </trkpt>
      <trkpt lat="44.57914" lon="5.67154">
        <ele>1066.3</ele>
        <time>2019-10-27T14:11:25Z</time>
      </trkpt>
      <trkpt lat="44.57922" lon="5.67176">
        <ele>1062.46</ele>
        <time>2019-10-27T14:11:39Z</time>
      </trkpt>
      <trkpt lat="44.57922" lon="5.67178">
        <ele>1062.23</ele>
        <time>2019-10-27T14:11:40Z</time>
      </trkpt>
      <trkpt lat="44.57922" lon="5.6718">
        <ele>1061.94</ele>
        <time>2019-10-27T14:11:41Z</time>
      </trkpt>
      <trkpt lat="44.57929" lon="5.67198">
        <ele>1059.67</ele>
        <time>2019-10-27T14:11:55Z</time>
      </trkpt>
      <trkpt lat="44.57936" lon="5.67224">
        <ele>1058.79</ele>
        <time>2019-10-27T14:12:08Z</time>
      </trkpt>
      <trkpt lat="44.57937" lon="5.67226">
        <ele>1058.69</ele>
        <time>2019-10-27T14:12:09Z</time>
      </trkpt>
      <trkpt lat="44.57952" lon="5.67249">
        <ele>1052.09</ele>
        <time>2019-10-27T14:12:24Z</time>
      </trkpt>
      <trkpt lat="44.57965" lon="5.67267">
        <ele>1046.59</ele>
        <time>2019-10-27T14:12:38Z</time>
      </trkpt>
      <trkpt lat="44.57977" lon="5.67282">
        <ele>1041.73</ele>
        <time>2019-10-27T14:12:52Z</time>
      </trkpt>
      <trkpt lat="44.57979" lon="5.67284">
        <ele>1041.21</ele>
        <time>2019-10-27T14:12:54Z</time>
      </trkpt>
      <trkpt lat="44.5798" lon="5.67286">
        <ele>1040.7</ele>
        <time>2019-10-27T14:12:55Z</time>
      </trkpt>
      <trkpt lat="44.57981" lon="5.67287">
        <ele>1040.32</ele>
        <time>2019-10-27T14:12:56Z</time>
      </trkpt>
      <trkpt lat="44.57982" lon="5.67288">
        <ele>1039.92</ele>
        <time>2019-10-27T14:12:57Z</time>
      </trkpt>
      <trkpt lat="44.57993" lon="5.67306">
        <ele>1036.97</ele>
        <time>2019-10-27T14:13:11Z</time>
      </trkpt>
      <trkpt lat="44.57995" lon="5.67309">
        <ele>1036.71</ele>
        <time>2019-10-27T14:13:13Z</time>
      </trkpt>
      <trkpt lat="44.57996" lon="5.6731">
        <ele>1036.58</ele>
        <time>2019-10-27T14:13:14Z</time>
      </trkpt>
      <trkpt lat="44.57997" lon="5.67311">
        <ele>1036.47</ele>
        <time>2019-10-27T14:13:15Z</time>
      </trkpt>
      <trkpt lat="44.58008" lon="5.67326">
        <ele>1035.02</ele>
        <time>2019-10-27T14:13:26Z</time>
      </trkpt>
      <trkpt lat="44.5801" lon="5.67327">
        <ele>1034.77</ele>
        <time>2019-10-27T14:13:27Z</time>
      </trkpt>
      <trkpt lat="44.58025" lon="5.67351">
        <ele>1030.68</ele>
        <time>2019-10-27T14:13:44Z</time>
      </trkpt>
      <trkpt lat="44.58025" lon="5.67352">
        <ele>1030.55</ele>
        <time>2019-10-27T14:13:45Z</time>
      </trkpt>
      <trkpt lat="44.58035" lon="5.67369">
        <ele>1026.72</ele>
        <time>2019-10-27T14:13:57Z</time>
      </trkpt>
      <trkpt lat="44.58036" lon="5.6737">
        <ele>1026.46</ele>
        <time>2019-10-27T14:13:58Z</time>
      </trkpt>
      <trkpt lat="44.58037" lon="5.67371">
        <ele>1026.07</ele>
        <time>2019-10-27T14:13:59Z</time>
      </trkpt>
      <trkpt lat="44.58038" lon="5.67373">
        <ele>1025.77</ele>
        <time>2019-10-27T14:14:00Z</time>
      </trkpt>
      <trkpt lat="44.58039" lon="5.67375">
        <ele>1025.46</ele>
        <time>2019-10-27T14:14:01Z</time>
      </trkpt>
      <trkpt lat="44.58039" lon="5.67376">
        <ele>1025.18</ele>
        <time>2019-10-27T14:14:02Z</time>
      </trkpt>
      <trkpt lat="44.5804" lon="5.67377">
        <ele>1025.01</ele>
        <time>2019-10-27T14:14:03Z</time>
      </trkpt>
      <trkpt lat="44.58043" lon="5.67388">
        <ele>1022.95</ele>
        <time>2019-10-27T14:14:10Z</time>
      </trkpt>
      <trkpt lat="44.58046" lon="5.67393">
        <ele>1022.19</ele>
        <time>2019-10-27T14:14:13Z</time>
      </trkpt>
      <trkpt lat="44.58053" lon="5.67403">
        <ele>1019.57</ele>
        <time>2019-10-27T14:14:21Z</time>
      </trkpt>
      <trkpt lat="44.58054" lon="5.67404">
        <ele>1019.45</ele>
        <time>2019-10-27T14:14:22Z</time>
      </trkpt>
      <trkpt lat="44.58055" lon="5.67405">
        <ele>1019.31</ele>
        <time>2019-10-27T14:14:23Z</time>
      </trkpt>
      <trkpt lat="44.58066" lon="5.67421">
        <ele>1015.43</ele>
        <time>2019-10-27T14:14:36Z</time>
      </trkpt>
      <trkpt lat="44.58067" lon="5.67422">
        <ele>1015.39</ele>
        <time>2019-10-27T14:14:37Z</time>
      </trkpt>
      <trkpt lat="44.58068" lon="5.67424">
        <ele>1015.28</ele>
        <time>2019-10-27T14:14:38Z</time>
      </trkpt>
      <trkpt lat="44.58069" lon="5.67425">
        <ele>1015.18</ele>
        <time>2019-10-27T14:14:39Z</time>
      </trkpt>
      <trkpt lat="44.5807" lon="5.67426">
        <ele>1015.04</ele>
        <time>2019-10-27T14:14:40Z</time>
      </trkpt>
      <trkpt lat="44.58074" lon="5.6743">
        <ele>1014.5</ele>
        <time>2019-10-27T14:14:44Z</time>
      </trkpt>
      <trkpt lat="44.58075" lon="5.67432">
        <ele>1014.46</ele>
        <time>2019-10-27T14:14:45Z</time>
      </trkpt>
      <trkpt lat="44.58081" lon="5.67442">
        <ele>1012.33</ele>
        <time>2019-10-27T14:15:01Z</time>
      </trkpt>
      <trkpt lat="44.58083" lon="5.67443">
        <ele>1012.57</ele>
        <time>2019-10-27T14:15:03Z</time>
      </trkpt>
      <trkpt lat="44.58084" lon="5.67444">
        <ele>1012.66</ele>
        <time>2019-10-27T14:15:04Z</time>
      </trkpt>
      <trkpt lat="44.58105" lon="5.67451">
        <ele>1013.5</ele>
        <time>2019-10-27T14:15:21Z</time>
      </trkpt>
      <trkpt lat="44.58119" lon="5.67462">
        <ele>1014.89</ele>
        <time>2019-10-27T14:15:33Z</time>
      </trkpt>
      <trkpt lat="44.58135" lon="5.67479">
        <ele>1019.3</ele>
        <time>2019-10-27T14:15:46Z</time>
      </trkpt>
      <trkpt lat="44.58141" lon="5.67486">
        <ele>1021.2</ele>
        <time>2019-10-27T14:15:50Z</time>
      </trkpt>
      <trkpt lat="44.58142" lon="5.67489">
        <ele>1021.24</ele>
        <time>2019-10-27T14:15:51Z</time>
      </trkpt>
      <trkpt lat="44.58144" lon="5.67491">
        <ele>1021.61</ele>
        <time>2019-10-27T14:15:52Z</time>
      </trkpt>
      <trkpt lat="44.58145" lon="5.67493">
        <ele>1021.92</ele>
        <time>2019-10-27T14:15:53Z</time>
      </trkpt>
      <trkpt lat="44.58146" lon="5.67495">
        <ele>1022.27</ele>
        <time>2019-10-27T14:15:54Z</time>
      </trkpt>
      <trkpt lat="44.5817" lon="5.67523">
        <ele>1028.87</ele>
        <time>2019-10-27T14:16:07Z</time>
      </trkpt>
      <trkpt lat="44.58178" lon="5.6753">
        <ele>1028.3</ele>
        <time>2019-10-27T14:16:12Z</time>
      </trkpt>
      <trkpt lat="44.5818" lon="5.6753">
        <ele>1028.43</ele>
        <time>2019-10-27T14:16:13Z</time>
      </trkpt>
      <trkpt lat="44.58182" lon="5.6753">
        <ele>1027.74</ele>
        <time>2019-10-27T14:16:14Z</time>
      </trkpt>
      <trkpt lat="44.58183" lon="5.67531">
        <ele>1027.5</ele>
        <time>2019-10-27T14:16:15Z</time>
      </trkpt>
      <trkpt lat="44.58184" lon="5.67532">
        <ele>1027.25</ele>
        <time>2019-10-27T14:16:16Z</time>
      </trkpt>
      <trkpt lat="44.58185" lon="5.67533">
        <ele>1027.06</ele>
        <time>2019-10-27T14:16:17Z</time>
      </trkpt>
      <trkpt lat="44.58186" lon="5.67535">
        <ele>1026.58</ele>
        <time>2019-10-27T14:16:18Z</time>
      </trkpt>
      <trkpt lat="44.58187" lon="5.67537">
        <ele>1026.17</ele>
        <time>2019-10-27T14:16:19Z</time>
      </trkpt>
      <trkpt lat="44.58189" lon="5.67539">
        <ele>1025.73</ele>
        <time>2019-10-27T14:16:20Z</time>
      </trkpt>
      <trkpt lat="44.5819" lon="5.6754">
        <ele>1025.55</ele>
        <time>2019-10-27T14:16:21Z</time>
      </trkpt>
      <trkpt lat="44.58192" lon="5.67541">
        <ele>1025.52</ele>
        <time>2019-10-27T14:16:22Z</time>
      </trkpt>
      <trkpt lat="44.58193" lon="5.67543">
        <ele>1025.32</ele>
        <time>2019-10-27T14:16:23Z</time>
      </trkpt>
      <trkpt lat="44.58194" lon="5.67544">
        <ele>1025.29</ele>
        <time>2019-10-27T14:16:24Z</time>
      </trkpt>
      <trkpt lat="44.58195" lon="5.67545">
        <ele>1025.23</ele>
        <time>2019-10-27T14:16:25Z</time>
      </trkpt>
      <trkpt lat="44.582" lon="5.67551">
        <ele>1025.85</ele>
        <time>2019-10-27T14:16:30Z</time>
      </trkpt>
      <trkpt lat="44.58201" lon="5.67552">
        <ele>1025.8</ele>
        <time>2019-10-27T14:16:31Z</time>
      </trkpt>
      <trkpt lat="44.5822" lon="5.67566">
        <ele>1024.38</ele>
        <time>2019-10-27T14:16:45Z</time>
      </trkpt>
      <trkpt lat="44.58236" lon="5.67587">
        <ele>1024.41</ele>
        <time>2019-10-27T14:17:02Z</time>
      </trkpt>
      <trkpt lat="44.58252" lon="5.67603">
        <ele>1026.28</ele>
        <time>2019-10-27T14:17:17Z</time>
      </trkpt>
      <trkpt lat="44.58258" lon="5.67609">
        <ele>1026.5</ele>
        <time>2019-10-27T14:17:23Z</time>
      </trkpt>
      <trkpt lat="44.58259" lon="5.6761">
        <ele>1026.3</ele>
        <time>2019-10-27T14:17:24Z</time>
      </trkpt>
      <trkpt lat="44.58261" lon="5.67611">
        <ele>1025.52</ele>
        <time>2019-10-27T14:17:25Z</time>
      </trkpt>
      <trkpt lat="44.58263" lon="5.67612">
        <ele>1025.27</ele>
        <time>2019-10-27T14:17:26Z</time>
      </trkpt>
      <trkpt lat="44.58264" lon="5.67613">
        <ele>1025.36</ele>
        <time>2019-10-27T14:17:27Z</time>
      </trkpt>
      <trkpt lat="44.58265" lon="5.67613">
        <ele>1025.48</ele>
        <time>2019-10-27T14:17:28Z</time>
      </trkpt>
      <trkpt lat="44.58266" lon="5.67614">
        <ele>1025.52</ele>
        <time>2019-10-27T14:17:29Z</time>
      </trkpt>
      <trkpt lat="44.58267" lon="5.67615">
        <ele>1025.64</ele>
        <time>2019-10-27T14:17:30Z</time>
      </trkpt>
      <trkpt lat="44.58268" lon="5.67616">
        <ele>1025.75</ele>
        <time>2019-10-27T14:17:31Z</time>
      </trkpt>
      <trkpt lat="44.58269" lon="5.67618">
        <ele>1025.72</ele>
        <time>2019-10-27T14:17:32Z</time>
      </trkpt>
      <trkpt lat="44.58271" lon="5.67619">
        <ele>1025.67</ele>
        <time>2019-10-27T14:17:33Z</time>
      </trkpt>
      <trkpt lat="44.58294" lon="5.67644">
        <ele>1017.51</ele>
        <time>2019-10-27T14:17:51Z</time>
      </trkpt>
      <trkpt lat="44.58309" lon="5.67654">
        <ele>1015.58</ele>
        <time>2019-10-27T14:18:02Z</time>
      </trkpt>
      <trkpt lat="44.5831" lon="5.67656">
        <ele>1015.36</ele>
        <time>2019-10-27T14:18:03Z</time>
      </trkpt>
      <trkpt lat="44.58311" lon="5.67657">
        <ele>1015.12</ele>
        <time>2019-10-27T14:18:04Z</time>
      </trkpt>
      <trkpt lat="44.58312" lon="5.67658">
        <ele>1014.95</ele>
        <time>2019-10-27T14:18:05Z</time>
      </trkpt>
      <trkpt lat="44.58313" lon="5.67659">
        <ele>1014.95</ele>
        <time>2019-10-27T14:18:06Z</time>
      </trkpt>
      <trkpt lat="44.58314" lon="5.6766">
        <ele>1014.84</ele>
        <time>2019-10-27T14:18:07Z</time>
      </trkpt>
      <trkpt lat="44.58315" lon="5.67661">
        <ele>1014.64</ele>
        <time>2019-10-27T14:18:08Z</time>
      </trkpt>
      <trkpt lat="44.58316" lon="5.67663">
        <ele>1014.33</ele>
        <time>2019-10-27T14:18:09Z</time>
      </trkpt>
      <trkpt lat="44.58318" lon="5.67663">
        <ele>1013.99</ele>
        <time>2019-10-27T14:18:10Z</time>
      </trkpt>
      <trkpt lat="44.58319" lon="5.67663">
        <ele>1013.72</ele>
        <time>2019-10-27T14:18:11Z</time>
      </trkpt>
      <trkpt lat="44.5832" lon="5.67664">
        <ele>1013.59</ele>
        <time>2019-10-27T14:18:12Z</time>
      </trkpt>
      <trkpt lat="44.58321" lon="5.67665">
        <ele>1013.26</ele>
        <time>2019-10-27T14:18:13Z</time>
      </trkpt>
      <trkpt lat="44.58322" lon="5.67666">
        <ele>1013.13</ele>
        <time>2019-10-27T14:18:14Z</time>
      </trkpt>
      <trkpt lat="44.58326" lon="5.6767">
        <ele>1011.7</ele>
        <time>2019-10-27T14:18:18Z</time>
      </trkpt>
      <trkpt lat="44.58347" lon="5.67678">
        <ele>1007.76</ele>
        <time>2019-10-27T14:18:35Z</time>
      </trkpt>
      <trkpt lat="44.58351" lon="5.67678">
        <ele>1008</ele>
        <time>2019-10-27T14:18:38Z</time>
      </trkpt>
      <trkpt lat="44.58352" lon="5.67678">
        <ele>1008.17</ele>
        <time>2019-10-27T14:18:39Z</time>
      </trkpt>
      <trkpt lat="44.58354" lon="5.67678">
        <ele>1008.2</ele>
        <time>2019-10-27T14:18:40Z</time>
      </trkpt>
      <trkpt lat="44.58372" lon="5.67685">
        <ele>1007.86</ele>
        <time>2019-10-27T14:18:54Z</time>
      </trkpt>
      <trkpt lat="44.58385" lon="5.67695">
        <ele>1008.45</ele>
        <time>2019-10-27T14:19:04Z</time>
      </trkpt>
      <trkpt lat="44.58385" lon="5.67697">
        <ele>1008.45</ele>
        <time>2019-10-27T14:19:05Z</time>
      </trkpt>
      <trkpt lat="44.58386" lon="5.67698">
        <ele>1008.46</ele>
        <time>2019-10-27T14:19:06Z</time>
      </trkpt>
      <trkpt lat="44.58388" lon="5.677">
        <ele>1008.39</ele>
        <time>2019-10-27T14:19:07Z</time>
      </trkpt>
      <trkpt lat="44.58388" lon="5.67701">
        <ele>1008.48</ele>
        <time>2019-10-27T14:19:08Z</time>
      </trkpt>
      <trkpt lat="44.5839" lon="5.67702">
        <ele>1008.48</ele>
        <time>2019-10-27T14:19:09Z</time>
      </trkpt>
      <trkpt lat="44.58395" lon="5.67715">
        <ele>1007.8</ele>
        <time>2019-10-27T14:19:18Z</time>
      </trkpt>
      <trkpt lat="44.58397" lon="5.6772">
        <ele>1007.93</ele>
        <time>2019-10-27T14:19:22Z</time>
      </trkpt>
      <trkpt lat="44.58397" lon="5.67722">
        <ele>1008</ele>
        <time>2019-10-27T14:19:23Z</time>
      </trkpt>
      <trkpt lat="44.58397" lon="5.67725">
        <ele>1007.94</ele>
        <time>2019-10-27T14:19:25Z</time>
      </trkpt>
      <trkpt lat="44.58402" lon="5.67732">
        <ele>1007.76</ele>
        <time>2019-10-27T14:19:30Z</time>
      </trkpt>
      <trkpt lat="44.58403" lon="5.67733">
        <ele>1007.99</ele>
        <time>2019-10-27T14:19:31Z</time>
      </trkpt>
      <trkpt lat="44.58415" lon="5.67754">
        <ele>1011.75</ele>
        <time>2019-10-27T14:19:45Z</time>
      </trkpt>
      <trkpt lat="44.58431" lon="5.67783">
        <ele>1014.54</ele>
        <time>2019-10-27T14:20:03Z</time>
      </trkpt>
      <trkpt lat="44.58442" lon="5.67818">
        <ele>1015.56</ele>
        <time>2019-10-27T14:20:22Z</time>
      </trkpt>
      <trkpt lat="44.58452" lon="5.67845">
        <ele>1014.09</ele>
        <time>2019-10-27T14:20:35Z</time>
      </trkpt>
      <trkpt lat="44.58462" lon="5.67855">
        <ele>1010.29</ele>
        <time>2019-10-27T14:20:49Z</time>
      </trkpt>
      <trkpt lat="44.58464" lon="5.67859">
        <ele>1008.33</ele>
        <time>2019-10-27T14:20:55Z</time>
      </trkpt>
      <trkpt lat="44.58465" lon="5.67861">
        <ele>1008.06</ele>
        <time>2019-10-27T14:20:56Z</time>
      </trkpt>
      <trkpt lat="44.58466" lon="5.67863">
        <ele>1007.77</ele>
        <time>2019-10-27T14:20:57Z</time>
      </trkpt>
      <trkpt lat="44.58478" lon="5.6789">
        <ele>1004.33</ele>
        <time>2019-10-27T14:21:14Z</time>
      </trkpt>
      <trkpt lat="44.58491" lon="5.67917">
        <ele>996.26</ele>
        <time>2019-10-27T14:21:29Z</time>
      </trkpt>
      <trkpt lat="44.58494" lon="5.67922">
        <ele>994.1</ele>
        <time>2019-10-27T14:21:32Z</time>
      </trkpt>
      <trkpt lat="44.58505" lon="5.67947">
        <ele>989.78</ele>
        <time>2019-10-27T14:21:48Z</time>
      </trkpt>
      <trkpt lat="44.58513" lon="5.67968">
        <ele>986.79</ele>
        <time>2019-10-27T14:22:02Z</time>
      </trkpt>
      <trkpt lat="44.58518" lon="5.67988">
        <ele>984.54</ele>
        <time>2019-10-27T14:22:14Z</time>
      </trkpt>
      <trkpt lat="44.58528" lon="5.68017">
        <ele>981.17</ele>
        <time>2019-10-27T14:22:29Z</time>
      </trkpt>
      <trkpt lat="44.58535" lon="5.68051">
        <ele>977.14</ele>
        <time>2019-10-27T14:22:46Z</time>
      </trkpt>
      <trkpt lat="44.58539" lon="5.6808">
        <ele>975.25</ele>
        <time>2019-10-27T14:23:01Z</time>
      </trkpt>
      <trkpt lat="44.58542" lon="5.68104">
        <ele>974.49</ele>
        <time>2019-10-27T14:23:15Z</time>
      </trkpt>
      <trkpt lat="44.58542" lon="5.6813">
        <ele>975.69</ele>
        <time>2019-10-27T14:23:30Z</time>
      </trkpt>
      <trkpt lat="44.5854" lon="5.68142">
        <ele>976.93</ele>
        <time>2019-10-27T14:23:37Z</time>
      </trkpt>
      <trkpt lat="44.5854" lon="5.68144">
        <ele>977.01</ele>
        <time>2019-10-27T14:23:38Z</time>
      </trkpt>
      <trkpt lat="44.58538" lon="5.68155">
        <ele>978.19</ele>
        <time>2019-10-27T14:23:45Z</time>
      </trkpt>
      <trkpt lat="44.58538" lon="5.68157">
        <ele>978.33</ele>
        <time>2019-10-27T14:23:46Z</time>
      </trkpt>
      <trkpt lat="44.58538" lon="5.68159">
        <ele>978.51</ele>
        <time>2019-10-27T14:23:47Z</time>
      </trkpt>
      <trkpt lat="44.58538" lon="5.68161">
        <ele>978.66</ele>
        <time>2019-10-27T14:23:48Z</time>
      </trkpt>
      <trkpt lat="44.58538" lon="5.68163">
        <ele>978.8</ele>
        <time>2019-10-27T14:23:49Z</time>
      </trkpt>
      <trkpt lat="44.58537" lon="5.68165">
        <ele>978.99</ele>
        <time>2019-10-27T14:23:50Z</time>
      </trkpt>
      <trkpt lat="44.58535" lon="5.68202">
        <ele>983.57</ele>
        <time>2019-10-27T14:24:09Z</time>
      </trkpt>
      <trkpt lat="44.58535" lon="5.68233">
        <ele>987.36</ele>
        <time>2019-10-27T14:24:25Z</time>
      </trkpt>
      <trkpt lat="44.58551" lon="5.6827">
        <ele>990.04</ele>
        <time>2019-10-27T14:24:41Z</time>
      </trkpt>
      <trkpt lat="44.58564" lon="5.68304">
        <ele>987.37</ele>
        <time>2019-10-27T14:24:55Z</time>
      </trkpt>
      <trkpt lat="44.58565" lon="5.68311">
        <ele>987.56</ele>
        <time>2019-10-27T14:24:59Z</time>
      </trkpt>
      <trkpt lat="44.58565" lon="5.68312">
        <ele>987.65</ele>
        <time>2019-10-27T14:25:00Z</time>
      </trkpt>
      <trkpt lat="44.58565" lon="5.68314">
        <ele>987.63</ele>
        <time>2019-10-27T14:25:01Z</time>
      </trkpt>
      <trkpt lat="44.58565" lon="5.68313">
        <ele>984.51</ele>
        <time>2019-10-27T14:25:14Z</time>
      </trkpt>
      <trkpt lat="44.58575" lon="5.6831">
        <ele>983.38</ele>
        <time>2019-10-27T14:25:41Z</time>
      </trkpt>
      <trkpt lat="44.58569" lon="5.68313">
        <ele>982.32</ele>
        <time>2019-10-27T14:26:05Z</time>
      </trkpt>
      <trkpt lat="44.5857" lon="5.6831">
        <ele>979.89</ele>
        <time>2019-10-27T14:26:33Z</time>
      </trkpt>
      <trkpt lat="44.58576" lon="5.68317">
        <ele>976.01</ele>
        <time>2019-10-27T14:26:49Z</time>
      </trkpt>
      <trkpt lat="44.58588" lon="5.68344">
        <ele>975</ele>
        <time>2019-10-27T14:27:03Z</time>
      </trkpt>
      <trkpt lat="44.58589" lon="5.68346">
        <ele>974.63</ele>
        <time>2019-10-27T14:27:04Z</time>
      </trkpt>
      <trkpt lat="44.5859" lon="5.68348">
        <ele>974.38</ele>
        <time>2019-10-27T14:27:05Z</time>
      </trkpt>
      <trkpt lat="44.58592" lon="5.68351">
        <ele>974</ele>
        <time>2019-10-27T14:27:06Z</time>
      </trkpt>
      <trkpt lat="44.58593" lon="5.68353">
        <ele>973.93</ele>
        <time>2019-10-27T14:27:07Z</time>
      </trkpt>
      <trkpt lat="44.58594" lon="5.68355">
        <ele>973.6</ele>
        <time>2019-10-27T14:27:08Z</time>
      </trkpt>
      <trkpt lat="44.58595" lon="5.68356">
        <ele>973.39</ele>
        <time>2019-10-27T14:27:09Z</time>
      </trkpt>
      <trkpt lat="44.58595" lon="5.68358">
        <ele>973.14</ele>
        <time>2019-10-27T14:27:10Z</time>
      </trkpt>
      <trkpt lat="44.58596" lon="5.6836">
        <ele>972.98</ele>
        <time>2019-10-27T14:27:11Z</time>
      </trkpt>
      <trkpt lat="44.58612" lon="5.68383">
        <ele>970.21</ele>
        <time>2019-10-27T14:27:26Z</time>
      </trkpt>
      <trkpt lat="44.58633" lon="5.68392">
        <ele>964.42</ele>
        <time>2019-10-27T14:27:42Z</time>
      </trkpt>
      <trkpt lat="44.58648" lon="5.68399">
        <ele>961.24</ele>
        <time>2019-10-27T14:27:54Z</time>
      </trkpt>
      <trkpt lat="44.58649" lon="5.684">
        <ele>961.04</ele>
        <time>2019-10-27T14:27:55Z</time>
      </trkpt>
      <trkpt lat="44.5865" lon="5.68401">
        <ele>960.7</ele>
        <time>2019-10-27T14:27:56Z</time>
      </trkpt>
      <trkpt lat="44.58651" lon="5.68401">
        <ele>960.48</ele>
        <time>2019-10-27T14:27:57Z</time>
      </trkpt>
      <trkpt lat="44.58652" lon="5.68402">
        <ele>960.28</ele>
        <time>2019-10-27T14:27:58Z</time>
      </trkpt>
      <trkpt lat="44.58676" lon="5.68416">
        <ele>957.59</ele>
        <time>2019-10-27T14:28:16Z</time>
      </trkpt>
      <trkpt lat="44.58679" lon="5.68418">
        <ele>957.2</ele>
        <time>2019-10-27T14:28:19Z</time>
      </trkpt>
      <trkpt lat="44.58681" lon="5.68418">
        <ele>956.88</ele>
        <time>2019-10-27T14:28:20Z</time>
      </trkpt>
      <trkpt lat="44.58682" lon="5.68418">
        <ele>956.9</ele>
        <time>2019-10-27T14:28:21Z</time>
      </trkpt>
      <trkpt lat="44.58683" lon="5.68418">
        <ele>956.73</ele>
        <time>2019-10-27T14:28:22Z</time>
      </trkpt>
      <trkpt lat="44.58685" lon="5.68418">
        <ele>956.69</ele>
        <time>2019-10-27T14:28:23Z</time>
      </trkpt>
      <trkpt lat="44.58696" lon="5.68411">
        <ele>957.09</ele>
        <time>2019-10-27T14:28:37Z</time>
      </trkpt>
      <trkpt lat="44.58709" lon="5.68396">
        <ele>957.55</ele>
        <time>2019-10-27T14:28:53Z</time>
      </trkpt>
      <trkpt lat="44.5871" lon="5.68395">
        <ele>957.61</ele>
        <time>2019-10-27T14:28:54Z</time>
      </trkpt>
      <trkpt lat="44.58717" lon="5.68391">
        <ele>957.7</ele>
        <time>2019-10-27T14:29:00Z</time>
      </trkpt>
      <trkpt lat="44.58733" lon="5.68395">
        <ele>960.56</ele>
        <time>2019-10-27T14:29:18Z</time>
      </trkpt>
      <trkpt lat="44.58737" lon="5.68406">
        <ele>963.96</ele>
        <time>2019-10-27T14:29:31Z</time>
      </trkpt>
      <trkpt lat="44.58737" lon="5.68409">
        <ele>964.39</ele>
        <time>2019-10-27T14:29:33Z</time>
      </trkpt>
      <trkpt lat="44.58737" lon="5.68411">
        <ele>964.57</ele>
        <time>2019-10-27T14:29:34Z</time>
      </trkpt>
      <trkpt lat="44.58737" lon="5.68422">
        <ele>966.18</ele>
        <time>2019-10-27T14:29:40Z</time>
      </trkpt>
      <trkpt lat="44.58738" lon="5.68424">
        <ele>966.59</ele>
        <time>2019-10-27T14:29:41Z</time>
      </trkpt>
      <trkpt lat="44.58739" lon="5.68431">
        <ele>968.16</ele>
        <time>2019-10-27T14:29:45Z</time>
      </trkpt>
      <trkpt lat="44.58746" lon="5.68462">
        <ele>977.91</ele>
        <time>2019-10-27T14:30:01Z</time>
      </trkpt>
      <trkpt lat="44.58745" lon="5.68492">
        <ele>987.53</ele>
        <time>2019-10-27T14:30:20Z</time>
      </trkpt>
      <trkpt lat="44.58744" lon="5.68498">
        <ele>990.38</ele>
        <time>2019-10-27T14:30:24Z</time>
      </trkpt>
      <trkpt lat="44.5876" lon="5.68527">
        <ele>984.16</ele>
        <time>2019-10-27T14:30:37Z</time>
      </trkpt>
      <trkpt lat="44.58776" lon="5.68537">
        <ele>984.89</ele>
        <time>2019-10-27T14:30:53Z</time>
      </trkpt>
    </trkseg>
  </trk>
</gpx>